[[{"header":{"parameterUnit":"m.s-1","parameterCategory":1,"la1":31.0,"la2":29.5877,"lo1":-88.7671,"lo2":-86.6584,"dy":0.0162,"dx":0.0185,"nx":115,"ny":88,"refTime":"2023-03-21T12:00:00:Z","depth":0,"parameterNumber":2,"parameterNumberName":"U-component_of_WINDS"},"data":[0.0,0.0,0.0,0.0,0.0,0.0,0.0,0.0,0.0,0.0,0.0,0.0,0.0,0.0,0.0,0.0,0.0,0.0,0.0,0.0,0.0,0.0,0.0,0.0,0.0,0.0,0.0,0.0,0.0,0.0,0.0,0.0,0.0,0.0,0.0,0.0,0.0,0.0,0.0,0.0,0.0,0.0,0.0,0.0,0.0,0.0,0.0,0.0,0.0,0.0,0.0,0.0,0.0,0.0,0.0,0.0,0.0,0.0,0.0,0.0,0.0,0.0,0.0,0.0,0.0,0.0,0.0,0.0,0.0,0.0,0.0,0.0,0.0,0.0,0.0,0.0,0.0,0.0,0.0,0.0,0.0,0.0,0.0,0.0,0.0,0.0,0.0,0.0,0.0,0.0,0.0,0.0,0.0,0.0,0.0,0.0,0.0,0.0,0.0,0.0,0.0,0.0,0.0,0.0,0.0,0.0,0.0,0.0,0.0,0.0,0.0,0.0,0.0,0.0,0.0,0.0,0.0,0.0,0.0,0.0,0.0,0.0,0.0,0.0,0.0,0.0,0.0,0.0,0.0,0.0,0.0,0.0,0.0,0.0,0.0,0.0,0.0,0.0,0.0,0.0,0.0,0.0,0.0,0.0,0.0,0.0,0.0,0.0,0.0,0.0,0.0,0.0,0.0,0.0,0.0,0.0,0.0,0.0,0.0,0.0,0.0,0.0,0.0,0.0,0.0,0.0,0.0,0.0,0.0,0.0,0.0,0.0,0.0,0.0,0.0,0.0,0.0,0.0,0.0,0.0,0.0,0.0,0.0,0.0,0.0,0.0,0.0,0.0,0.0,0.0,0.0,0.0,0.0,0.0,0.0,0.0,0.0,0.0,0.0,0.0,0.0,0.0,0.0,0.0,0.0,0.0,0.0,0.0,0.0,0.0,0.0,0.0,0.0,0.0,0.0,0.0,0.0,0.0,0.0,0.0,0.0,0.0,0.0,0.0,0.0,0.0,0.0,0.0,0.0,0.0,0.0,0.0,0.0,0.0,0.0,0.0,0.0,0.0,0.0,0.0,0.0,0.0,0.0,0.0,0.0,0.0,0.0,0.0,0.0,0.0,0.0,0.0,0.0,0.0,0.0,0.0,0.0,0.0,0.0,0.0,0.0,0.0,0.0,0.0,0.0,0.0,0.0,0.0,0.0,0.0,0.0,0.0,0.0,0.0,0.0,0.0,0.0,0.0,0.0,0.0,0.0,0.0,0.0,0.0,0.0,0.0,0.0,0.0,0.0,0.0,0.0,0.0,0.0,0.0,0.0,0.0,0.0,0.0,0.0,0.0,0.0,0.0,0.0,0.0,0.0,0.0,0.0,0.0,0.0,0.0,0.0,0.0,0.0,0.0,0.0,0.0,0.0,0.0,0.0,0.0,0.0,0.0,0.0,0.0,0.0,0.0,0.0,0.0,0.0,0.0,0.0,0.0,0.0,0.0,0.0,0.0,0.0,0.0,0.0,0.0,0.0,0.0,0.0,0.0,0.0,0.0,0.0,0.0,0.0,0.0,0.0,0.0,0.0,0.0,0.0,0.0,0.0,0.0,0.0,0.0,0.0,0.0,0.0,0.0,0.0,0.0,0.0,0.0,0.0,0.0,0.0,0.0,0.0,0.0,0.0,0.0,0.0,0.0,0.0,0.0,0.0,0.0,0.0,0.0,0.0,0.0,0.0,0.0,0.0,0.0,0.0,0.0,0.0,0.0,0.0,0.0,0.0,0.0,0.0,0.0,0.0,0.0,0.0,0.0,0.0,0.0,0.0,0.0,0.0,0.0,0.0,0.0,0.0,0.0,0.0,0.0,0.0,0.0,0.0,0.0,0.0,0.0,0.0,0.0,0.0,0.0,0.0,0.0,0.0,0.0,0.0,0.0,0.0,0.0,0.0,0.0,0.0,0.0,0.0,0.0,0.0,0.0,0.0,0.0,0.0,0.0,0.0,0.0,0.0,0.0,0.0,0.0,0.0,0.0,0.0,0.0,0.0,0.0,0.0,0.0,0.0,0.0,0.0,0.0,0.0,0.0,0.0,0.0,0.0,0.0,0.0,0.0,0.0,0.0,0.0,0.0,0.0,0.0,0.0,0.0,0.0,0.0,0.0,0.0,0.0,0.0,0.0,0.0,0.0,0.0,0.0,0.0,0.0,0.0,0.0,0.0,0.0,0.0,0.0,0.0,0.0,0.0,0.0,0.0,0.0,0.0,0.0,0.0,0.0,0.0,0.0,0.0,0.0,0.0,0.0,0.0,0.0,0.0,0.0,0.0,0.0,0.0,0.0,0.0,0.0,0.0,0.0,0.0,0.0,0.0,0.0,0.0,0.0,0.0,0.0,0.0,0.0,0.0,0.0,0.0,0.0,0.0,0.0,0.0,0.0,0.0,0.0,0.0,0.0,0.0,0.0,0.0,0.0,0.0,0.0,0.0,0.0,0.0,0.0,0.0,0.0,0.0,0.0,0.0,0.0,0.0,0.0,0.0,0.0,0.0,0.0,0.0,0.0,0.0,0.0,0.0,0.0,0.0,0.0,0.0,0.0,0.0,0.0,0.0,0.0,0.0,0.0,0.0,0.0,0.0,0.0,0.0,0.0,0.0,0.0,0.0,0.0,0.0,0.0,0.0,0.0,0.0,0.0,0.0,0.0,0.0,0.0,0.0,0.0,0.0,0.0,0.0,0.0,0.0,0.0,0.0,0.0,0.0,0.0,0.0,0.0,0.0,0.0,0.0,0.0,0.0,0.0,0.0,0.0,0.0,0.0,0.0,0.0,0.0,0.0,0.0,0.0,0.0,0.0,0.0,0.0,0.0,0.0,0.0,0.0,0.0,0.0,0.0,0.0,0.0,0.0,0.0,0.0,0.0,0.0,0.0,0.0,0.0,0.0,0.0,0.0,0.0,0.0,0.0,0.0,0.0,0.0,0.0,0.0,0.0,0.0,0.0,0.0,0.0,0.0,0.0,0.0,0.0,0.0,0.0,0.0,0.0,0.0,0.0,0.0,0.0,0.0,0.0,0.0,0.0,0.0,0.0,0.0,0.0,0.0,0.0,0.0,0.0,0.0,0.0,0.0,0.0,0.0,0.0,0.0,0.0,0.0,0.0,0.0,0.0,0.0,0.0,0.0,0.0,0.0,0.0,0.0,0.0,0.0,0.0,0.0,0.0,0.0,0.0,0.0,0.0,0.0,0.0,0.0,0.0,0.0,0.0,0.0,0.0,0.0,0.0,0.0,0.0,0.0,0.0,0.0,0.0,0.0,0.0,0.0,0.0,0.0,0.0,0.0,0.0,0.0,0.0,0.0,0.0,0.0,0.0,0.0,0.0,0.0,0.0,0.0,0.0,0.0,0.0,0.0,0.0,0.0,0.0,0.0,0.0,0.0,0.0,0.0,0.0,0.0,0.0,0.0,0.0,0.0,0.0,0.0,0.0,0.0,0.0,0.0,0.0,0.0,0.0,0.0,0.0,0.0,0.0,0.0,0.0,0.0,0.0,0.0,0.0,0.0,0.0,0.0,0.0,0.0,0.0,0.0,0.0,0.0,0.0,0.0,0.0,0.0,0.0,0.0,0.0,0.0,0.0,0.0,0.0,0.0,0.0,0.0,0.0,0.0,0.0,0.0,0.0,0.0,0.0,0.0,0.0,0.0,0.0,0.0,0.0,0.0,0.0,0.0,0.0,0.0,0.0,0.0,0.0,0.0,0.0,0.0,0.0,0.0,0.0,0.0,0.0,0.0,0.0,0.0,0.0,0.0,0.0,0.0,0.0,0.0,0.0,0.0,0.0,0.0,0.0,0.0,0.0,0.0,0.0,0.0,0.0,0.0,0.0,0.0,0.0,0.0,0.0,0.0,0.0,0.0,0.0,0.0,0.0,0.0,0.0,0.0,0.0,0.0,0.0,0.0,0.0,0.0,0.0,0.0,0.0,0.0,0.0,0.0,0.0,0.0,0.0,0.0,0.0,0.0,0.0,0.0,0.0,0.0,0.0,0.0,0.0,0.0,0.0,0.0,0.0,0.0,0.0,0.0,0.0,0.0,0.0,0.0,0.0,0.0,0.0,0.0,0.0,0.0,0.0,0.0,0.0,0.0,0.0,0.0,0.0,0.0,0.0,0.0,0.0,0.0,0.0,0.0,0.0,0.0,0.0,0.0,0.0,0.0,0.0,0.0,0.0,0.0,0.0,0.0,0.0,0.0,0.0,0.0,0.0,0.0,0.0,0.0,0.0,0.0,0.0,0.0,0.0,-1.3926,0.0,0.0,0.0,0.0,0.0,0.0,0.0,0.0,0.0,0.0,0.0,0.0,0.0,0.0,0.0,0.0,0.0,0.0,0.0,0.0,0.0,0.0,0.0,0.0,0.0,0.0,0.0,0.0,0.0,0.0,0.0,0.0,0.0,0.0,0.0,0.0,0.0,0.0,0.0,0.0,0.0,0.0,0.0,0.0,0.0,0.0,0.0,0.0,0.0,0.0,0.0,0.0,0.0,0.0,0.0,0.0,0.0,0.0,0.0,0.0,0.0,0.0,0.0,0.0,0.0,0.0,0.0,0.0,0.0,0.0,0.0,0.0,0.0,0.0,0.0,0.0,0.0,0.0,0.0,0.0,0.0,0.0,0.0,0.0,0.0,0.0,0.0,0.0,0.0,0.0,0.0,0.0,0.0,0.0,0.0,0.0,0.0,0.0,0.0,0.0,0.0,0.0,0.0,0.0,0.0,0.0,0.0,0.0,0.0,0.0,-1.3455,-1.3363,-1.362,-1.3823,-1.3995,0.0,0.0,0.0,0.0,0.0,0.0,0.0,0.0,0.0,0.0,0.0,0.0,0.0,0.0,0.0,0.0,0.0,0.0,0.0,0.0,0.0,0.0,0.0,0.0,0.0,0.0,0.0,0.0,0.0,0.0,0.0,0.0,0.0,0.0,0.0,0.0,0.0,0.0,0.0,0.0,0.0,0.0,0.0,0.0,0.0,0.0,0.0,0.0,0.0,0.0,0.0,0.0,0.0,0.0,0.0,0.0,0.0,0.0,0.0,0.0,0.0,0.0,0.0,0.0,0.0,0.0,0.0,0.0,0.0,0.0,0.0,0.0,0.0,0.0,0.0,0.0,0.0,0.0,0.0,0.0,0.0,0.0,0.0,0.0,0.0,0.0,0.0,0.0,0.0,0.0,0.0,0.0,0.0,0.0,0.0,0.0,0.0,0.0,0.0,0.0,0.0,0.0,0.0,0.0,0.0,0.0,0.0,0.0,0.0,0.0,0.0,0.0,-1.3992,-1.4281,-1.4445,0.0,0.0,0.0,0.0,0.0,0.0,0.0,0.0,0.0,0.0,0.0,0.0,0.0,0.0,0.0,0.0,0.0,0.0,0.0,0.0,0.0,0.0,0.0,0.0,0.0,0.0,0.0,0.0,0.0,0.0,0.0,0.0,0.0,0.0,0.0,0.0,0.0,0.0,0.0,0.0,0.0,0.0,0.0,0.0,0.0,0.0,0.0,0.0,0.0,0.0,0.0,0.0,0.0,0.0,0.0,0.0,0.0,0.0,0.0,0.0,0.0,0.0,0.0,0.0,0.0,0.0,0.0,0.0,0.0,0.0,0.0,0.0,0.0,0.0,0.0,0.0,0.0,0.0,0.0,0.0,0.0,0.0,0.0,0.0,0.0,0.0,0.0,0.0,0.0,0.0,0.0,0.0,0.0,0.0,0.0,0.0,0.0,0.0,0.0,0.0,0.0,0.0,0.0,0.0,0.0,0.0,0.0,0.0,0.0,0.0,-1.3667,-1.418,-1.4271,0.0,-1.5922,0.0,0.0,0.0,0.0,0.0,0.0,0.0,0.0,0.0,0.0,0.0,0.0,0.0,0.0,0.0,0.0,0.0,0.0,0.0,0.0,0.0,0.0,0.0,0.0,0.0,0.0,0.0,0.0,0.0,0.0,0.0,0.0,0.0,0.0,0.0,0.0,0.0,0.0,0.0,0.0,0.0,0.0,0.0,0.0,0.0,0.0,0.0,0.0,0.0,0.0,0.0,0.0,0.0,0.0,0.0,0.0,0.0,0.0,0.0,0.0,0.0,0.0,0.0,0.0,0.0,0.0,0.0,0.0,0.0,0.0,0.0,0.0,0.0,0.0,0.0,0.0,0.0,0.0,0.0,0.0,0.0,0.0,0.0,0.0,0.0,0.0,0.0,0.0,0.0,0.0,0.0,0.0,0.0,0.0,0.0,0.0,0.0,0.0,0.0,0.0,0.0,0.0,0.0,0.0,0.0,0.0,0.0,0.0,0.0,0.0,-1.4122,-1.4314,-1.5067,-1.589,0.0,0.0,0.0,0.0,0.0,0.0,0.0,0.0,0.0,0.0,0.0,0.0,0.0,0.0,0.0,0.0,0.0,0.0,0.0,0.0,0.0,0.0,0.0,0.0,0.0,0.0,0.0,0.0,0.0,0.0,0.0,0.0,0.0,0.0,0.0,0.0,0.0,0.0,0.0,0.0,0.0,0.0,0.0,0.0,0.0,0.0,0.0,0.0,0.0,0.0,0.0,0.0,0.0,0.0,0.0,0.0,0.0,0.0,0.0,0.0,0.0,0.0,0.0,0.0,0.0,0.0,0.0,0.0,0.0,0.0,0.0,0.0,0.0,0.0,0.0,0.0,0.0,0.0,0.0,0.0,0.0,0.0,0.0,0.0,0.0,0.0,0.0,0.0,0.0,0.0,0.0,0.0,0.0,0.0,0.0,0.0,0.0,0.0,0.0,0.0,0.0,0.0,0.0,0.0,0.0,0.0,0.0,0.0,0.0,0.0,-1.4549,-1.4836,-1.494,-1.6017,-1.6788,-1.7207,0.0,0.0,0.0,0.0,0.0,0.0,0.0,0.0,0.0,0.0,0.0,0.0,0.0,0.0,0.0,0.0,0.0,0.0,0.0,0.0,0.0,0.0,0.0,0.0,0.0,0.0,0.0,0.0,0.0,0.0,0.0,0.0,0.0,0.0,0.0,0.0,0.0,0.0,0.0,0.0,0.0,0.0,0.0,0.0,0.0,0.0,0.0,0.0,0.0,0.0,0.0,0.0,0.0,0.0,0.0,0.0,0.0,0.0,0.0,0.0,0.0,0.0,0.0,0.0,0.0,0.0,0.0,0.0,0.0,0.0,0.0,0.0,0.0,0.0,0.0,0.0,0.0,0.0,0.0,0.0,0.0,0.0,0.0,0.0,0.0,0.0,0.0,0.0,0.0,0.0,0.0,0.0,0.0,0.0,0.0,0.0,0.0,0.0,0.0,0.0,0.0,0.0,0.0,0.0,0.0,0.0,0.0,0.0,-1.557,-1.5559,-1.5812,-1.6391,-1.7029,-1.732,0.0,0.0,0.0,0.0,0.0,0.0,0.0,0.0,0.0,0.0,0.0,0.0,0.0,0.0,0.0,0.0,0.0,0.0,0.0,0.0,0.0,0.0,0.0,0.0,0.0,0.0,0.0,0.0,0.0,0.0,0.0,0.0,0.0,0.0,0.0,0.0,0.0,0.0,0.0,0.0,0.0,0.0,0.0,0.0,0.0,0.0,0.0,0.0,0.0,0.0,0.0,0.0,0.0,0.0,0.0,0.0,0.0,0.0,0.0,0.0,0.0,0.0,0.0,0.0,0.0,0.0,0.0,0.0,0.0,0.0,0.0,0.0,0.0,0.0,0.0,0.0,0.0,0.0,0.0,0.0,0.0,0.0,0.0,0.0,0.0,0.0,0.0,0.0,0.0,0.0,0.0,0.0,0.0,0.0,0.0,0.0,0.0,0.0,0.0,0.0,0.0,0.0,0.0,0.0,0.0,0.0,0.0,0.0,0.0,-1.5709,-1.6042,-1.6538,-1.7199,-1.7374,-1.7434,0.0,0.0,0.0,0.0,0.0,0.0,0.0,0.0,0.0,0.0,0.0,0.0,0.0,0.0,0.0,0.0,0.0,0.0,0.0,0.0,0.0,0.0,0.0,0.0,0.0,0.0,0.0,0.0,0.0,0.0,0.0,0.0,0.0,0.0,0.0,0.0,0.0,0.0,0.0,0.0,0.0,0.0,0.0,0.0,0.0,0.0,0.0,0.0,0.0,0.0,0.0,0.0,0.0,0.0,0.0,0.0,0.0,0.0,0.0,0.0,0.0,0.0,0.0,0.0,0.0,0.0,0.0,0.0,0.0,0.0,0.0,0.0,0.0,0.0,0.0,0.0,0.0,0.0,0.0,0.0,0.0,0.0,0.0,0.0,0.0,0.0,0.0,0.0,0.0,0.0,0.0,0.0,0.0,0.0,0.0,0.0,0.0,0.0,0.0,0.0,0.0,0.0,0.0,0.0,0.0,0.0,0.0,0.0,0.0,-1.6397,0.0,-1.7216,-1.7602,-1.7566,-1.7489,0.0,0.0,0.0,0.0,0.0,0.0,0.0,0.0,0.0,0.0,0.0,0.0,0.0,0.0,0.0,0.0,0.0,0.0,0.0,0.0,0.0,0.0,0.0,0.0,0.0,0.0,0.0,0.0,0.0,0.0,0.0,0.0,0.0,0.0,0.0,0.0,0.0,0.0,0.0,0.0,0.0,0.0,0.0,0.0,0.0,0.0,0.0,0.0,0.0,0.0,0.0,0.0,0.0,0.0,0.0,0.0,0.0,0.0,0.0,0.0,0.0,0.0,0.0,0.0,0.0,0.0,0.0,0.0,0.0,0.0,0.0,0.0,0.0,0.0,0.0,0.0,0.0,0.0,0.0,0.0,0.0,0.0,0.0,0.0,0.0,0.0,0.0,0.0,0.0,0.0,0.0,0.0,0.0,0.0,0.0,0.0,0.0,0.0,0.0,0.0,0.0,0.0,0.0,0.0,0.0,0.0,0.0,0.0,-1.7844,-1.7783,-1.7766,-1.7743,-1.7698,-1.763,-1.7542,0.0,0.0,0.0,0.0,0.0,0.0,0.0,0.0,0.0,0.0,0.0,0.0,0.0,0.0,0.0,0.0,0.0,0.0,0.0,0.0,0.0,0.0,0.0,0.0,0.0,0.0,0.0,0.0,0.0,0.0,0.0,0.0,0.0,0.0,0.0,0.0,0.0,0.0,0.0,0.0,0.0,0.0,0.0,0.0,0.0,0.0,0.0,0.0,0.0,0.0,0.0,0.0,0.0,0.0,0.0,0.0,0.0,0.0,0.0,0.0,0.0,0.0,0.0,0.0,0.0,0.0,0.0,0.0,0.0,0.0,0.0,0.0,0.0,0.0,0.0,0.0,0.0,0.0,0.0,0.0,0.0,0.0,0.0,0.0,0.0,0.0,0.0,0.0,0.0,0.0,0.0,0.0,0.0,0.0,0.0,0.0,0.0,0.0,0.0,0.0,0.0,0.0,0.0,0.0,0.0,0.0,0.0,0.0,0.0,-1.7817,-1.7789,-1.776,-1.7698,-1.7647,-1.7554,0.0,0.0,0.0,0.0,0.0,0.0,0.0,0.0,0.0,0.0,0.0,0.0,0.0,0.0,0.0,0.0,0.0,0.0,0.0,0.0,0.0,0.0,0.0,0.0,0.0,0.0,0.0,0.0,0.0,0.0,0.0,0.0,0.0,0.0,0.0,0.0,0.0,0.0,0.0,0.0,0.0,0.0,0.0,0.0,0.0,0.0,0.0,0.0,0.0,0.0,0.0,0.0,0.0,0.0,0.0,0.0,0.0,0.0,0.0,0.0,0.0,0.0,0.0,0.0,0.0,0.0,0.0,0.0,0.0,0.0,0.0,0.0,0.0,0.0,0.0,0.0,0.0,0.0,0.0,0.0,0.0,0.0,0.0,0.0,0.0,0.0,0.0,0.0,0.0,0.0,0.0,0.0,0.0,0.0,0.0,0.0,0.0,0.0,0.0,0.0,0.0,0.0,0.0,0.0,0.0,0.0,0.0,0.0,0.0,-1.8628,-1.8628,-1.8453,-1.8136,-1.8049,-1.7861,-1.7517,0.0,0.0,0.0,0.0,0.0,0.0,0.0,0.0,0.0,0.0,0.0,0.0,0.0,0.0,0.0,0.0,0.0,0.0,0.0,0.0,0.0,0.0,0.0,0.0,0.0,0.0,0.0,0.0,0.0,0.0,0.0,0.0,0.0,0.0,0.0,0.0,0.0,0.0,0.0,0.0,0.0,0.0,0.0,0.0,0.0,0.0,0.0,0.0,0.0,0.0,0.0,0.0,0.0,0.0,0.0,0.0,0.0,0.0,0.0,0.0,0.0,0.0,0.0,0.0,0.0,0.0,0.0,0.0,0.0,0.0,0.0,0.0,0.0,0.0,0.0,0.0,0.0,0.0,0.0,0.0,0.0,0.0,0.0,0.0,0.0,0.0,0.0,0.0,0.0,0.0,0.0,0.0,0.0,0.0,0.0,0.0,0.0,0.0,0.0,0.0,0.0,0.0,0.0,0.0,0.0,0.0,0.0,0.0,-2.0103,-2.017,-1.9769,-1.8899,-1.8816,-1.8375,0.0,0.0,0.0,0.0,0.0,0.0,0.0,0.0,0.0,0.0,0.0,0.0,0.0,0.0,0.0,0.0,0.0,0.0,0.0,0.0,0.0,0.0,0.0,0.0,0.0,0.0,0.0,0.0,0.0,0.0,0.0,0.0,0.0,0.0,0.0,0.0,0.0,0.0,0.0,0.0,0.0,0.0,0.0,0.0,0.0,0.0,0.0,0.0,0.0,0.0,0.0,0.0,0.0,0.0,0.0,0.0,0.0,0.0,0.0,0.0,0.0,0.0,0.0,0.0,0.0,0.0,0.0,0.0,0.0,0.0,0.0,0.0,0.0,0.0,0.0,0.0,0.0,0.0,0.0,0.0,0.0,0.0,0.0,0.0,0.0,0.0,0.0,0.0,0.0,0.0,0.0,0.0,0.0,0.0,0.0,0.0,0.0,0.0,0.0,0.0,0.0,0.0,0.0,0.0,0.0,0.0,0.0,0.0,0.0,-2.1654,-2.2243,-2.162,-1.9786,-1.9618,-1.8939,0.0,0.0,0.0,0.0,0.0,0.0,0.0,0.0,0.0,0.0,0.0,0.0,0.0,0.0,0.0,0.0,0.0,0.0,0.0,0.0,0.0,0.0,0.0,0.0,0.0,0.0,0.0,0.0,0.0,0.0,0.0,0.0,0.0,0.0,0.0,0.0,0.0,0.0,0.0,0.0,0.0,0.0,0.0,0.0,0.0,0.0,0.0,0.0,0.0,0.0,0.0,0.0,0.0,0.0,0.0,0.0,0.0,0.0,0.0,0.0,0.0,0.0,0.0,0.0,0.0,0.0,0.0,0.0,0.0,0.0,0.0,0.0,0.0,0.0,0.0,0.0,0.0,0.0,0.0,0.0,0.0,0.0,0.0,0.0,0.0,0.0,0.0,0.0,0.0,0.0,0.0,0.0,0.0,0.0,0.0,0.0,0.0,0.0,0.0,0.0,0.0,0.0,0.0,0.0,0.0,0.0,0.0,0.0,-2.0897,-2.2733,-2.3477,-2.3119,-2.1592,-2.1019,-1.9844,0.0,0.0,0.0,0.0,0.0,0.0,0.0,0.0,0.0,0.0,0.0,0.0,0.0,0.0,0.0,0.0,0.0,0.0,0.0,0.0,0.0,0.0,0.0,0.0,0.0,0.0,0.0,0.0,0.0,0.0,0.0,0.0,0.0,0.0,0.0,0.0,0.0,0.0,0.0,0.0,0.0,0.0,0.0,0.0,0.0,0.0,0.0,0.0,0.0,0.0,0.0,0.0,0.0,0.0,0.0,0.0,0.0,0.0,0.0,0.0,0.0,0.0,0.0,0.0,0.0,0.0,0.0,0.0,0.0,0.0,0.0,0.0,0.0,0.0,0.0,0.0,0.0,0.0,0.0,0.0,0.0,0.0,0.0,0.0,0.0,0.0,0.0,0.0,0.0,0.0,0.0,0.0,0.0,0.0,0.0,0.0,0.0,0.0,0.0,0.0,0.0,0.0,0.0,0.0,0.0,0.0,0.0,0.0,-2.1211,-2.3342,-2.4118,-2.4221,-2.3638,-2.2573,-2.0931,0.0,0.0,0.0,0.0,0.0,0.0,0.0,0.0,0.0,0.0,0.0,0.0,0.0,0.0,0.0,0.0,0.0,0.0,0.0,0.0,0.0,0.0,0.0,0.0,0.0,0.0,0.0,0.0,0.0,0.0,0.0,0.0,0.0,0.0,0.0,0.0,0.0,0.0,0.0,0.0,0.0,0.0,0.0,0.0,0.0,0.0,0.0,0.0,0.0,0.0,0.0,0.0,0.0,0.0,0.0,0.0,0.0,0.0,0.0,0.0,0.0,0.0,0.0,0.0,0.0,0.0,0.0,0.0,0.0,0.0,0.0,0.0,0.0,0.0,0.0,0.0,0.0,0.0,0.0,0.0,0.0,0.0,0.0,0.0,0.0,0.0,0.0,0.0,0.0,0.0,0.0,0.0,0.0,0.0,0.0,0.0,0.0,0.0,0.0,0.0,0.0,0.0,0.0,0.0,0.0,0.0,0.0,0.0,-2.1732,-2.3342,-2.4135,-2.4113,-2.3326,-2.2916,-2.1698,0.0,0.0,0.0,0.0,0.0,0.0,0.0,0.0,0.0,0.0,0.0,0.0,0.0,0.0,0.0,0.0,0.0,0.0,0.0,0.0,0.0,0.0,0.0,0.0,0.0,0.0,0.0,0.0,0.0,0.0,0.0,0.0,0.0,0.0,0.0,0.0,0.0,0.0,0.0,0.0,0.0,0.0,0.0,0.0,0.0,0.0,0.0,0.0,-1.4382,0.0,0.0,0.0,0.0,0.0,0.0,0.0,0.0,0.0,0.0,0.0,0.0,0.0,0.0,0.0,0.0,0.0,0.0,0.0,0.0,0.0,0.0,0.0,0.0,0.0,0.0,0.0,0.0,0.0,0.0,0.0,0.0,0.0,0.0,0.0,0.0,0.0,0.0,0.0,0.0,0.0,0.0,0.0,0.0,0.0,0.0,0.0,0.0,0.0,0.0,0.0,0.0,0.0,0.0,0.0,0.0,0.0,0.0,0.0,-2.1918,-2.3342,-2.3782,-2.3783,-2.3339,-2.2677,-2.1439,0.0,0.0,0.0,0.0,0.0,0.0,0.0,0.0,0.0,0.0,0.0,0.0,0.0,0.0,0.0,0.0,0.0,0.0,0.0,0.0,0.0,0.0,0.0,0.0,0.0,0.0,0.0,0.0,0.0,0.0,0.0,0.0,0.0,0.0,0.0,0.0,0.0,0.0,0.0,0.0,0.0,0.0,0.0,0.0,0.0,0.0,0.0,0.0,0.0,0.0,0.0,0.0,0.0,0.0,0.0,0.0,0.0,0.0,0.0,0.0,0.0,0.0,0.0,0.0,0.0,0.0,0.0,0.0,0.0,0.0,0.0,0.0,0.0,0.0,0.0,0.0,0.0,0.0,0.0,0.0,0.0,0.0,0.0,0.0,0.0,0.0,0.0,0.0,0.0,0.0,0.0,0.0,0.0,0.0,0.0,0.0,0.0,0.0,0.0,0.0,0.0,0.0,0.0,0.0,0.0,0.0,0.0,-2.0919,-2.1955,-2.3173,-2.3342,-2.3339,-2.3243,-2.2324,-2.098,-1.9252,0.0,0.0,0.0,0.0,0.0,0.0,0.0,0.0,0.0,0.0,0.0,0.0,0.0,0.0,0.0,0.0,0.0,0.0,0.0,0.0,0.0,0.0,0.0,0.0,0.0,0.0,0.0,0.0,0.0,0.0,0.0,0.0,0.0,0.0,0.0,0.0,0.0,0.0,-1.3369,-1.3921,0.0,0.0,0.0,0.0,0.0,0.0,0.0,0.0,-1.5556,0.0,0.0,0.0,0.0,0.0,0.0,0.0,0.0,0.0,0.0,0.0,0.0,0.0,0.0,0.0,0.0,0.0,0.0,0.0,0.0,0.0,0.0,0.0,0.0,0.0,0.0,0.0,0.0,0.0,0.0,0.0,0.0,0.0,0.0,0.0,0.0,0.0,0.0,0.0,0.0,0.0,0.0,0.0,0.0,0.0,0.0,0.0,0.0,0.0,0.0,0.0,0.0,0.0,0.0,0.0,0.0,-2.0002,-2.14,-2.2243,-2.2496,-2.3088,-2.2977,-2.2116,-2.2259,-2.1305,-1.9158,0.0,0.0,0.0,0.0,0.0,0.0,0.0,0.0,0.0,0.0,0.0,0.0,0.0,0.0,0.0,0.0,0.0,0.0,0.0,0.0,0.0,0.0,0.0,0.0,0.0,0.0,0.0,0.0,0.0,0.0,0.0,0.0,0.0,0.0,0.0,0.0,0.0,0.0,0.0,-1.4266,-1.4582,0.0,0.0,0.0,0.0,0.0,0.0,0.0,0.0,-1.6649,0.0,0.0,0.0,0.0,0.0,0.0,0.0,0.0,0.0,0.0,0.0,0.0,0.0,0.0,0.0,0.0,0.0,0.0,0.0,0.0,0.0,0.0,0.0,0.0,0.0,0.0,0.0,0.0,0.0,0.0,0.0,0.0,0.0,0.0,0.0,0.0,0.0,0.0,0.0,0.0,0.0,0.0,0.0,0.0,0.0,0.0,0.0,0.0,0.0,0.0,0.0,0.0,0.0,0.0,0.0,-2.0018,-2.113,-2.1904,-2.2296,-2.2543,-2.2381,-2.1812,-2.1584,-2.0702,0.0,0.0,0.0,0.0,0.0,0.0,0.0,0.0,0.0,0.0,0.0,0.0,0.0,0.0,0.0,0.0,0.0,0.0,0.0,0.0,0.0,0.0,0.0,0.0,0.0,0.0,0.0,0.0,0.0,0.0,0.0,0.0,0.0,0.0,0.0,0.0,0.0,0.0,0.0,0.0,-1.5006,-1.5391,-1.653,0.0,0.0,0.0,0.0,0.0,0.0,-1.7142,-1.7138,0.0,0.0,0.0,0.0,0.0,0.0,0.0,0.0,0.0,0.0,0.0,0.0,0.0,0.0,0.0,0.0,0.0,0.0,0.0,0.0,0.0,0.0,0.0,0.0,0.0,0.0,0.0,0.0,0.0,0.0,0.0,0.0,0.0,0.0,0.0,0.0,0.0,0.0,0.0,0.0,0.0,0.0,0.0,0.0,0.0,0.0,0.0,0.0,0.0,0.0,0.0,0.0,0.0,0.0,0.0,-2.0002,-2.0788,-2.1563,-2.2245,-2.2147,-2.1888,-2.158,-2.1035,-2.0188,0.0,0.0,0.0,0.0,0.0,0.0,0.0,0.0,0.0,0.0,0.0,0.0,0.0,0.0,0.0,0.0,0.0,0.0,0.0,0.0,0.0,0.0,0.0,0.0,0.0,0.0,0.0,0.0,0.0,0.0,0.0,0.0,0.0,0.0,0.0,0.0,0.0,0.0,0.0,0.0,0.0,-1.6464,-1.7631,-1.7884,0.0,0.0,0.0,0.0,-1.7466,-1.772,0.0,0.0,0.0,0.0,0.0,0.0,0.0,0.0,0.0,0.0,0.0,0.0,0.0,0.0,0.0,0.0,0.0,0.0,0.0,0.0,0.0,0.0,0.0,0.0,0.0,0.0,0.0,0.0,0.0,0.0,0.0,0.0,0.0,0.0,0.0,0.0,0.0,0.0,0.0,0.0,0.0,0.0,0.0,0.0,0.0,0.0,0.0,0.0,0.0,0.0,0.0,0.0,0.0,0.0,0.0,0.0,-1.9985,-2.0788,-2.1563,-2.2262,-2.2282,-2.1818,-2.0865,-2.1367,-2.0533,0.0,0.0,0.0,0.0,0.0,0.0,0.0,0.0,0.0,0.0,0.0,0.0,0.0,0.0,0.0,0.0,0.0,0.0,0.0,0.0,0.0,0.0,0.0,0.0,0.0,0.0,0.0,0.0,0.0,0.0,0.0,0.0,0.0,0.0,0.0,0.0,0.0,0.0,0.0,0.0,0.0,-1.7597,-1.7766,-1.8341,-1.8775,0.0,0.0,-1.8598,-1.8222,-1.9271,0.0,0.0,0.0,0.0,0.0,0.0,0.0,0.0,0.0,0.0,0.0,0.0,0.0,0.0,0.0,0.0,0.0,0.0,0.0,0.0,0.0,0.0,0.0,0.0,0.0,0.0,0.0,0.0,0.0,0.0,0.0,0.0,0.0,0.0,0.0,0.0,0.0,0.0,0.0,0.0,0.0,0.0,0.0,0.0,0.0,0.0,0.0,0.0,0.0,0.0,0.0,0.0,0.0,0.0,0.0,-1.8848,-1.9951,-2.0335,-2.1109,-2.2245,-2.2192,-2.1864,-2.1332,-2.1586,-2.0978,0.0,0.0,0.0,0.0,0.0,0.0,0.0,0.0,0.0,0.0,0.0,0.0,0.0,0.0,0.0,0.0,0.0,0.0,0.0,0.0,0.0,0.0,0.0,0.0,0.0,0.0,0.0,0.0,0.0,0.0,0.0,0.0,0.0,0.0,0.0,0.0,0.0,0.0,0.0,0.0,0.0,0.0,-1.7789,-1.878,0.0,0.0,0.0,-1.9997,-1.9301,0.0,0.0,0.0,0.0,0.0,0.0,0.0,0.0,0.0,0.0,0.0,0.0,0.0,0.0,0.0,0.0,0.0,0.0,0.0,0.0,0.0,0.0,0.0,0.0,0.0,0.0,0.0,0.0,0.0,0.0,0.0,0.0,0.0,0.0,0.0,0.0,0.0,0.0,0.0,0.0,0.0,0.0,0.0,0.0,0.0,0.0,0.0,0.0,0.0,0.0,0.0,0.0,0.0,0.0,0.0,0.0,0.0,-1.998,-2.02,-2.0961,-2.2229,-2.2163,-2.1931,-2.162,-2.17,0.0,0.0,0.0,0.0,0.0,0.0,0.0,0.0,0.0,0.0,0.0,0.0,0.0,0.0,0.0,0.0,0.0,0.0,0.0,0.0,0.0,0.0,0.0,0.0,0.0,0.0,0.0,-1.5458,0.0,0.0,0.0,0.0,0.0,0.0,0.0,0.0,0.0,0.0,0.0,0.0,0.0,0.0,-1.8341,-1.8341,-1.9473,-2.0099,0.0,0.0,-2.0951,-2.025,-2.091,-2.1108,0.0,0.0,0.0,0.0,0.0,0.0,0.0,0.0,0.0,0.0,0.0,0.0,0.0,0.0,0.0,0.0,0.0,0.0,0.0,0.0,0.0,0.0,0.0,0.0,0.0,0.0,0.0,0.0,0.0,0.0,0.0,0.0,0.0,0.0,0.0,0.0,0.0,0.0,0.0,0.0,0.0,0.0,0.0,0.0,0.0,0.0,0.0,0.0,0.0,0.0,0.0,0.0,0.0,0.0,0.0,-1.9985,-2.0737,-2.1481,-2.2262,-2.2296,-2.1902,-2.1102,-2.1537,-2.1123,0.0,0.0,0.0,0.0,0.0,0.0,0.0,0.0,0.0,0.0,0.0,0.0,0.0,0.0,0.0,0.0,0.0,0.0,0.0,0.0,0.0,0.0,0.0,0.0,0.0,0.0,0.0,0.0,0.0,0.0,0.0,0.0,0.0,0.0,0.0,0.0,0.0,0.0,0.0,0.0,0.0,-1.9849,-1.9849,-2.0585,-2.1106,0.0,0.0,-2.1137,-2.0883,-2.1917,-2.2305,-2.0929,0.0,0.0,0.0,0.0,0.0,0.0,0.0,0.0,0.0,0.0,0.0,0.0,0.0,0.0,0.0,0.0,0.0,0.0,0.0,0.0,0.0,0.0,0.0,0.0,0.0,0.0,0.0,0.0,0.0,0.0,0.0,0.0,0.0,0.0,0.0,0.0,0.0,0.0,0.0,0.0,0.0,0.0,0.0,0.0,0.0,0.0,0.0,0.0,0.0,0.0,0.0,0.0,0.0,-1.9519,-2.0703,-2.1038,-2.1549,-2.2262,-2.2313,-2.2071,-2.1625,-2.1795,-2.1562,0.0,0.0,0.0,0.0,0.0,0.0,0.0,0.0,0.0,0.0,0.0,0.0,0.0,0.0,0.0,0.0,0.0,0.0,0.0,0.0,0.0,0.0,0.0,0.0,0.0,0.0,0.0,0.0,-1.7732,-1.7957,-1.7817,0.0,0.0,0.0,0.0,0.0,0.0,0.0,0.0,0.0,0.0,-2.0568,-2.0086,-2.1062,0.0,0.0,-2.1969,-2.2381,-2.1841,-2.2586,-2.2862,-2.1814,-2.1535,0.0,0.0,0.0,0.0,0.0,0.0,0.0,0.0,0.0,0.0,0.0,0.0,0.0,0.0,0.0,0.0,0.0,0.0,0.0,0.0,0.0,0.0,0.0,0.0,0.0,0.0,0.0,0.0,0.0,0.0,0.0,0.0,0.0,0.0,0.0,0.0,0.0,0.0,0.0,0.0,0.0,0.0,0.0,0.0,0.0,0.0,0.0,0.0,0.0,0.0,0.0,0.0,-2.0111,-2.119,-2.1427,-2.1786,-2.2279,-2.2313,-2.2237,-2.2087,-2.1986,-2.1869,0.0,0.0,0.0,0.0,0.0,0.0,0.0,0.0,0.0,0.0,0.0,0.0,0.0,0.0,0.0,0.0,0.0,0.0,0.0,0.0,0.0,0.0,0.0,0.0,0.0,0.0,0.0,0.0,-1.838,-1.8369,-1.785,0.0,0.0,0.0,0.0,0.0,0.0,0.0,0.0,0.0,0.0,-2.1089,-2.0758,-2.162,-2.2124,-2.1641,-2.2423,-2.2914,-2.2434,-2.2804,-2.3013,-2.2654,0.0,0.0,0.0,0.0,0.0,0.0,0.0,0.0,0.0,0.0,0.0,0.0,0.0,0.0,0.0,0.0,0.0,0.0,0.0,0.0,0.0,0.0,0.0,0.0,0.0,0.0,0.0,0.0,0.0,0.0,-2.0048,0.0,0.0,0.0,0.0,0.0,0.0,0.0,0.0,0.0,0.0,0.0,0.0,0.0,0.0,0.0,0.0,0.0,0.0,0.0,0.0,0.0,0.0,-2.114,-2.1207,-2.1904,-2.2279,-2.2313,-2.2313,-2.2296,-2.2282,-2.2104,-2.1969,-2.1882,0.0,0.0,0.0,0.0,0.0,0.0,0.0,0.0,0.0,0.0,0.0,0.0,0.0,0.0,0.0,0.0,0.0,0.0,0.0,0.0,0.0,0.0,0.0,0.0,0.0,0.0,-1.8944,-1.8268,-1.785,0.0,0.0,0.0,0.0,0.0,0.0,0.0,0.0,0.0,0.0,-2.1187,-2.1461,-2.2127,-2.2293,-2.2307,-2.2343,-2.2408,-2.2439,-2.2491,-2.2521,-2.2746,0.0,0.0,0.0,0.0,0.0,0.0,0.0,0.0,0.0,0.0,0.0,0.0,0.0,0.0,0.0,0.0,0.0,0.0,0.0,0.0,0.0,0.0,0.0,0.0,0.0,0.0,0.0,-1.9604,-2.0754,0.0,0.0,0.0,0.0,0.0,0.0,0.0,0.0,0.0,0.0,0.0,-2.3054,-2.3543,0.0,0.0,0.0,0.0,0.0,0.0,0.0,0.0,0.0,0.0,0.0,0.0,-2.1444,-2.1921,-2.2161,-2.2313,-2.2313,-2.2313,-2.2313,-2.2313,-2.2101,-2.1969,-2.1913,0.0,0.0,0.0,0.0,0.0,0.0,0.0,0.0,0.0,0.0,0.0,0.0,0.0,0.0,0.0,0.0,0.0,0.0,0.0,0.0,0.0,0.0,0.0,0.0,0.0,-2.0483,0.0,0.0,0.0,0.0,0.0,0.0,0.0,0.0,0.0,0.0,0.0,-2.0632,-2.1123,-2.163,-2.2037,-2.2315,-2.238,-2.2363,0.0,0.0,0.0,0.0,0.0,0.0,0.0,0.0,0.0,0.0,0.0,0.0,0.0,0.0,-2.3517,-2.349,-2.3504,-2.3548,-2.3614,0.0,0.0,0.0,0.0,0.0,0.0,0.0,0.0,0.0,0.0,0.0,0.0,0.0,0.0,-2.0347,0.0,-2.1597,0.0,0.0,0.0,0.0,0.0,0.0,0.0,0.0,-2.3173,-2.3799,-2.4526,-2.4525,-2.4525,0.0,-2.378,-2.2917,0.0,0.0,0.0,0.0,0.0,0.0,0.0,0.0,-2.207,-2.3004,-2.2801,-2.2818,-2.3038,-2.2803,-2.255,-2.2313,-2.2118,-2.1955,-2.1869,-2.1812,-2.1582,0.0,0.0,0.0,0.0,0.0,0.0,0.0,0.0,0.0,0.0,0.0,0.0,0.0,0.0,0.0,0.0,0.0,0.0,0.0,0.0,0.0,0.0,0.0,-2.0974,0.0,0.0,0.0,0.0,0.0,0.0,0.0,0.0,0.0,-2.0111,-2.0733,-2.1376,-2.1901,-2.2158,-2.2324,-2.2391,0.0,0.0,0.0,0.0,0.0,0.0,0.0,-2.4216,-2.4457,-2.4981,-2.5367,-2.5409,-2.5539,-2.5642,-2.5616,0.0,0.0,-2.5219,-2.5167,-2.5181,-2.5251,-2.5265,-2.4964,-2.3968,-2.3733,-2.3353,0.0,0.0,0.0,0.0,0.0,0.0,0.0,0.0,-2.1027,-2.1563,0.0,-2.2347,0.0,0.0,0.0,0.0,0.0,-2.2347,0.0,0.0,-2.3545,-2.4644,-2.6522,-2.5337,-2.5388,-2.6573,-2.4575,-2.3545,-2.3477,-2.275,0.0,0.0,0.0,0.0,0.0,0.0,-2.3021,-2.4338,-2.3714,-2.3746,-2.4372,-2.3763,-2.3038,-2.233,-2.2101,-2.1972,-2.1842,-2.1869,-2.1823,-2.1723,-2.1283,0.0,0.0,0.0,0.0,0.0,0.0,0.0,0.0,0.0,0.0,0.0,0.0,0.0,0.0,0.0,0.0,0.0,0.0,0.0,0.0,-2.1241,0.0,0.0,0.0,0.0,0.0,0.0,0.0,0.0,0.0,0.0,-2.2313,-2.1766,-2.18,-2.3224,0.0,0.0,0.0,0.0,-2.2801,-2.3607,-2.3741,-2.4052,-2.493,-2.5114,-2.5374,-2.6053,0.0,0.0,-2.6227,-2.6411,-2.6516,-2.653,-2.6573,-2.6374,-2.5568,-2.545,-2.5477,-2.5515,-2.5563,-2.5476,-2.5423,-2.5295,-2.5044,-2.5761,0.0,0.0,0.0,0.0,-2.2082,-2.2706,-2.3272,-2.3407,-2.3922,-2.4611,-2.3545,0.0,0.0,0.0,0.0,0.0,0.0,-2.3765,-2.4983,-2.5507,-2.637,-2.7486,-2.7656,-2.7927,-2.8282,-2.6573,-2.576,-2.5693,-2.4491,-2.3224,-2.2006,0.0,0.0,0.0,0.0,-2.2767,-2.363,-2.3494,-2.3494,-2.3712,-2.3511,-2.3054,-2.2313,-2.2237,-2.2209,-2.2166,-2.1945,-2.1915,-2.2123,-2.1761,0.0,0.0,0.0,0.0,0.0,0.0,0.0,0.0,0.0,0.0,0.0,0.0,0.0,0.0,0.0,0.0,0.0,0.0,0.0,-2.1938,-2.1989,-2.1786,0.0,0.0,0.0,0.0,0.0,0.0,0.0,0.0,0.0,-2.4543,-2.3562,-2.3105,0.0,0.0,-2.3969,-2.4042,-2.4159,-2.4342,-2.4577,-2.4697,0.0,-2.5062,-2.5626,-2.6089,-2.6315,-2.6815,-2.7193,-2.7193,-2.7282,-2.7356,-2.7356,-2.737,-2.7297,-2.7075,-2.7005,-2.6988,-2.7034,-2.7034,-2.6858,-2.6388,-2.6234,-2.5988,-2.9482,-2.6404,-2.5389,-2.4837,-2.471,-2.526,-2.5698,-2.5966,-2.5815,-2.6016,-2.6404,-2.522,-2.4948,-2.532,-2.4441,0.0,0.0,0.0,-2.5338,-2.6488,-2.6911,-2.7858,-2.911,-2.9042,-2.9331,-2.9753,-2.801,-2.6996,-2.6691,-2.5523,-2.434,-2.319,0.0,0.0,-2.2313,-2.2584,-2.3257,-2.4222,-2.4272,-2.4272,-2.4255,-2.341,-2.275,-2.233,-2.2313,-2.2268,-2.2192,-2.2063,-2.2063,-2.2161,-2.2063,-2.2008,0.0,0.0,0.0,0.0,0.0,0.0,0.0,0.0,0.0,0.0,0.0,-2.1032,-2.1316,0.0,0.0,0.0,-2.1817,-2.1938,-2.2682,-2.275,0.0,0.0,0.0,0.0,0.0,0.0,0.0,-2.3797,-2.4237,-2.4778,-2.549,-2.4831,-2.4441,-2.488,-2.4723,-2.4613,-2.4765,0.0,-2.5106,-2.5487,-2.5608,-2.5787,-2.6054,-2.6533,-2.6877,-2.6903,-2.73,-2.7612,-2.7644,-2.7689,-2.7701,-2.7716,-2.7716,-2.7716,-2.7716,-2.7716,-2.7716,-2.7716,-2.7716,-2.7543,-2.7104,-2.7052,-2.6736,-3.2827,-3.1407,-3.0074,-2.9272,-2.8885,-2.8955,-2.8971,-2.8902,-2.8265,-2.8053,-2.8111,-2.7317,-2.6911,-2.6793,-2.6776,0.0,-2.6877,-2.6877,-2.7317,-2.8077,-2.806,-2.9159,-3.1106,-2.9805,-2.9924,-3.1224,-2.9041,-2.7655,-2.708,-2.6353,-2.5592,-2.4846,-2.4103,-2.3325,-2.2547,-2.3156,-2.4171,-2.5575,-2.5576,-2.5609,-2.5575,-2.3496,-2.2381,-2.2381,-2.233,-2.2223,-2.2041,-2.2192,-2.2192,-2.2027,-2.2242,-2.2685,-2.3308,0.0,0.0,0.0,0.0,0.0,0.0,0.0,0.0,0.0,0.0,0.0,0.0,0.0,0.0,0.0,-2.2868,0.0,-2.341,-2.3477,0.0,0.0,0.0,-2.4592,-2.466,-2.4711,-2.4745,-2.4677,0.0,0.0,-2.5609,-2.5677,-2.5693,-2.5709,-2.5131,-2.4785,-2.503,-2.5156,-2.5451,-2.6382,-2.6498,-2.6772,-2.7322,-2.753,-2.7545,-2.7616,-2.7716,-2.7701,-2.7683,-2.7701,-2.7716,-2.7716,-2.7716,-2.7716,-2.7716,-2.7716,-2.7716,-2.7716,-2.7716,-2.7716,-2.7663,-2.7631,-2.7245,-3.5346,-3.4309,-3.4115,-3.2626,-3.0442,-3.1139,-3.1338,-3.1221,-3.121,-3.1205,-3.1159,-2.9854,-2.8635,-2.7536,-2.7536,-2.7875,-2.8451,-2.8468,-2.9162,-3.0362,-3.0395,-3.0683,-3.1157,-3.0818,-3.1159,-3.1887,-3.0362,-2.9753,-3.0074,-2.9397,-2.8653,-2.7927,-2.7148,-2.5828,-2.4051,-2.4152,-2.4694,-2.5576,-2.5609,-2.5609,-2.5559,-2.4002,-2.3139,-2.3122,-2.2584,-2.2265,-2.2223,-2.2115,-2.2115,-2.2223,-2.2704,-2.3106,-2.3393,-2.3611,0.0,0.0,0.0,0.0,0.0,0.0,0.0,0.0,0.0,-2.3207,-2.3376,0.0,-2.4254,0.0,-2.4085,-2.4051,-2.4237,-2.4237,0.0,0.0,-2.5338,-2.5558,-2.6132,-2.6674,-2.681,-2.6251,-2.6674,-2.6877,-2.6488,-2.6437,-2.6487,-2.6653,-2.658,-2.6506,-2.6569,-2.6803,-2.7039,-2.7258,-2.7367,-2.7446,-2.7604,-2.7672,-2.7686,-2.7701,-2.7716,-2.7716,-2.7716,-2.7716,-2.7716,-2.7716,-2.7716,-2.7716,-2.7716,-2.7716,-2.7716,-2.7716,-2.7716,-2.7716,-2.7716,-2.7716,-2.7561,-3.6466,-3.5946,-3.5706,-3.457,-3.3035,-3.355,-3.3697,-3.3578,-3.3381,-3.3275,-3.3207,-3.2087,-3.1106,-3.0309,-3.0292,-3.0528,-3.0937,-3.0973,-3.1393,-3.2171,-3.2171,-3.2188,-3.2154,-3.185,-3.1921,-3.2259,-3.1123,-3.0632,-3.0683,-3.0294,-2.9905,-2.9482,-2.9024,-2.8383,-2.7453,-2.5845,-2.5186,-2.5592,-2.5609,-2.5609,-2.5559,-2.4458,-2.3746,-2.3393,-2.3004,-2.2617,-2.2313,-2.2192,-2.2192,-2.2299,-2.2916,-2.3471,-2.3881,-2.4271,-2.4474,0.0,0.0,0.0,0.0,0.0,0.0,0.0,0.0,0.0,0.0,0.0,-2.4846,-2.4541,-2.4508,-2.4626,-2.4949,-2.5015,-2.5287,-2.5998,-2.637,-2.6623,-2.6708,-2.7672,-2.7909,-2.6826,-2.7334,-2.7536,-2.681,-2.6996,-2.7233,-2.7352,-2.8151,-2.8335,-2.7571,-2.8004,-2.8495,-2.8224,-2.8215,-2.8087,-2.7786,-2.7716,-2.7716,-2.7716,-2.7716,-2.7716,-2.7716,-2.7716,-2.7716,-2.7716,-2.7716,-2.7716,-2.7716,-2.7716,-2.7716,-2.7666,-2.742,-2.735,-2.7613,-2.7455,-2.7139,-3.6897,-3.6728,-3.5921,-3.5616,-3.5616,-3.5616,-3.5616,-3.5566,-3.4928,-3.4641,-3.459,-3.3863,-3.3541,-3.3541,-3.3457,-3.3457,-3.3541,-3.3558,-3.3541,-3.3558,-3.3541,-3.3558,-3.3508,-3.2801,-3.2446,-3.2412,-3.1701,-3.0954,-3.026,-3.0345,-3.0395,-3.0395,-3.0395,-3.0717,-3.1157,-2.7824,-2.5947,-2.5761,-2.5947,-2.5947,-2.5744,-2.5,-2.4338,-2.3714,-2.3579,-2.3241,-2.2632,-2.2581,-2.2598,-2.2615,-2.3274,-2.3983,-2.4609,-2.4728,-2.5032,0.0,-2.5185,0.0,0.0,0.0,0.0,0.0,0.0,0.0,0.0,-2.566,-2.5524,-2.4982,-2.4931,-2.522,-2.5964,-2.6031,-2.6319,-2.7063,-2.7689,-2.7841,-2.7283,-2.8333,-2.8587,-2.7148,-2.7571,-2.7689,-2.7182,-2.7588,-2.7959,-2.8114,-2.9537,-2.992,-2.8404,-2.9042,-2.9732,-2.9143,-2.8947,-2.8544,-2.7894,-2.7716,-2.7716,-2.7716,-2.7716,-2.7716,-2.7716,-2.7716,-2.7716,-2.7716,-2.7716,-2.7716,-2.7716,-2.7716,-2.7716,-2.7698,-2.7245,-2.7052,-2.7473,-2.7139,-2.6437,-3.733,-3.6728,-3.5943,-3.5616,-3.5616,-3.5616,-3.5616,-3.56,-3.5447,-3.538,-3.5329,-3.4607,-3.4269,-3.4235,-3.366,-3.3728,-3.4269,-3.4286,-3.4307,-3.4286,-3.4286,-3.4286,-3.4252,-3.3541,-3.3203,-3.3152,-3.2446,-3.1718,-3.0987,-3.1599,-3.1887,-3.1887,-3.1887,-3.1955,-3.1972,0.0,0.0,0.0,-2.7723,-2.7757,-2.6522,-2.5761,-2.5338,-2.5186,-2.4592,0.0,-2.4101,-2.4085,-2.4085,-2.4118,-2.478,0.0,0.0,0.0,0.0,0.0,0.0,0.0,0.0,0.0,0.0,0.0,-2.7757,-2.6877,-2.5728,-2.615,-2.6691,-2.7114,-2.7181,-2.752,-2.8265,-2.8367,-2.8653,-2.9381,-2.9583,-2.9599,-2.9499,-2.9736,-2.9533,-2.8688,-2.8688,-2.8722,-2.8553,-2.8705,-2.881,-2.9003,-3.0321,-3.0743,-2.9587,-3.0292,-3.067,-3.0001,-2.9404,-2.8667,-2.7824,-2.7768,-2.7804,-2.7716,-2.7716,-2.7716,-2.7716,-2.7716,-2.7716,-2.7716,-2.7716,-2.7716,-2.7716,-2.7716,-2.7716,-2.7716,-2.7578,-2.7526,-2.7648,-2.7122,-2.6721,-3.7466,0.0,-3.5943,-3.5616,0.0,-3.5616,-3.5616,-3.5616,-3.5616,-3.5616,-3.5566,-3.5216,-3.5047,-3.503,-3.4658,-3.4709,-3.5047,-3.5047,-3.5047,-3.5047,-3.5047,-3.5064,-3.503,-3.4286,-3.3947,-3.3897,-3.2814,-3.2496,-3.2763,-3.2107,-3.2327,-3.3359,-3.2666,-3.2496,-3.2797,-3.2107,-3.0076,-2.6725,-2.7486,-2.7486,-2.6725,-2.6336,-2.5947,-2.5625,-2.5236,0.0,0.0,0.0,0.0,0.0,0.0,0.0,0.0,0.0,0.0,-2.6725,-2.7401,-2.7959,-2.8366,-2.911,-2.955,-2.9533,-2.8839,-2.7909,-2.6776,-2.7029,-2.7571,-2.8281,-2.7723,-2.774,-2.8857,-2.8653,-2.8721,-2.9465,-2.9888,-2.9954,-2.9721,-3.0209,-3.0176,-2.9264,-2.9314,-2.9414,-2.9044,-2.9365,-2.9608,-2.9876,-3.1528,-3.2417,-3.1724,-3.1865,-3.1812,-3.081,-3.0352,-2.9772,-2.9018,-2.8509,-2.8298,-2.8263,-2.7964,-2.7751,-2.7716,-2.7716,-2.7716,-2.7716,-2.7716,-2.7716,-2.7716,-2.7716,-2.7716,-2.7681,-2.7403,-2.7332,-2.7561,-2.7104,-2.67,-3.7736,-3.7117,-3.6214,-3.587,-3.5988,-3.5853,-3.587,-3.5988,0.0,0.0,0.0,-3.5752,-3.5808,-3.5825,-3.5802,-3.5802,-3.5802,-3.565,-3.5616,-3.5616,-3.5616,-3.5667,-3.5791,-3.5064,-3.4709,-3.4624,-3.3305,-3.3309,-3.437,-3.2391,-3.2395,-3.4015,-3.297,-3.2577,-3.3203,-3.3677,-3.1799,-2.7723,-2.7469,-2.7385,-2.7131,-2.6843,-2.642,-2.5828,-2.5812,-2.5507,-2.4914,-2.488,-2.4897,-2.4897,-2.5456,-2.5846,-2.6015,-2.6556,-2.7232,-2.7925,-2.8145,-2.8753,-3.0023,-3.0226,-3.0224,-3.0089,-2.9651,-2.8991,-2.8094,-2.801,-2.8349,-2.9128,-2.8045,-2.7875,-2.923,-2.8822,-2.867,-2.9331,-2.9939,-3.0057,-2.9568,-3.0296,-3.0514,-2.9653,-2.982,-2.9956,-2.9551,-2.9939,-3.0351,-3.0743,-3.2284,-3.374,-3.3339,-3.3276,-3.2947,-3.1687,-3.1335,-3.1072,-3.0213,-2.9562,-2.9088,-2.8842,-2.8333,-2.7877,-2.7736,-2.7716,-2.7716,-2.7716,-2.7716,-2.7716,-2.7716,-2.7716,-2.7716,-2.7716,-2.7227,-2.6949,-2.7473,-2.7227,-2.6876,-3.8768,-3.8565,-3.7218,-3.6992,-3.7527,-3.6891,-3.6975,-3.7449,-3.6174,-3.5616,-3.5633,-3.6332,-3.6643,-3.6643,-3.6626,-3.6643,-3.6592,-3.5943,-3.5616,-3.5616,-3.5616,-3.5977,-3.6592,-3.5825,-3.543,-3.5363,-3.4573,-3.4307,-3.4324,-3.2919,-3.2649,-3.3372,-3.2696,-3.2361,-3.2412,-3.1938,-3.1292,-3.0581,-3.0565,-2.9958,-2.8688,-2.7368,-2.6657,-2.6539,-2.6539,-2.6505,-2.6403,-2.637,-2.6403,-2.6386,-2.6488,-2.6843,-2.7435,-2.7587,-2.801,-2.8772,-2.9431,-2.9869,-3.0125,-3.07,-3.0768,-3.0209,-3.0581,-3.0313,-2.8976,-2.884,-2.9162,-2.9854,-2.9634,-2.9956,-3.0751,-3.0683,-3.0581,-3.0801,-3.0973,-3.097,-3.0801,-3.0497,-3.048,-3.0734,-3.0395,-3.0378,-3.07,-3.0903,-3.1007,-3.1218,-3.222,-3.2943,-3.3373,-3.3962,-3.3809,-3.2634,-3.223,-3.1633,-3.0581,-3.0037,-2.9686,-2.8983,-2.8877,-2.8509,-2.7894,-2.7821,-2.7786,-2.7716,-2.7716,-2.7716,-2.7716,-2.7716,-2.7716,-2.7683,-2.7526,-2.7561,-2.7683,-2.7561,-2.749,-3.8768,-3.8345,-3.7669,-3.7584,-3.7889,-3.7533,-3.7567,-3.7838,-3.7138,-3.685,-3.6867,-3.7229,-3.7381,-3.7398,-3.7398,-3.7398,-3.7381,-3.7003,-3.6637,-3.6299,-3.6671,-3.6603,-3.6197,-3.6197,-3.6028,-3.5566,-3.4861,-3.4912,-3.5487,-3.3829,-3.3271,-3.3846,-3.2459,-3.1904,-3.2242,-3.1972,-3.1968,-3.2324,-3.0376,-2.9228,-2.8993,-2.7469,-2.6708,-2.6708,-2.6708,-2.6708,-2.6708,-2.6708,-2.6708,-2.6708,-2.708,-2.7452,-2.779,-2.8213,-2.8789,-2.955,-2.9922,-3.0294,-3.0683,-3.1004,-3.1055,-3.0734,-3.1004,-3.092,-3.0262,-2.982,-2.9888,-3.0581,-3.0006,-2.9973,-3.1038,-3.0835,-3.0751,-3.1176,-3.119,-3.119,-3.1157,-3.0937,-3.0835,-3.1106,-3.0903,-3.0835,-3.1157,-3.119,-3.1249,-3.1414,-3.2248,-3.3157,-3.3855,-3.4333,-3.4126,-3.2757,-3.2406,-3.2142,-3.144,-3.0949,-3.058,-3.0176,-2.9808,-2.9263,-2.8544,-2.8333,-2.8157,-2.7804,-2.7716,-2.7716,-2.7716,-2.7716,-2.7716,-2.7716,-2.7716,-2.7716,-2.7716,-2.7716,-2.7417,-3.892,-3.8396,-3.821,-3.8142,-3.8159,-3.8328,-3.8396,-3.8396,-3.8413,-3.8396,-3.8379,-3.8227,-3.8159,-3.8142,-3.8159,-3.8142,-3.8125,-3.799,-3.7584,-3.7127,-3.7635,-3.728,-3.6259,-3.6755,-3.6705,-3.6073,-3.5368,-3.5746,-3.6677,-3.4759,-3.3744,-3.3833,-3.2293,-3.1752,-3.2276,-3.2124,-3.2476,-3.3136,-3.0055,-2.8619,-2.9179,-2.7588,-2.6708,-2.6708,-2.6877,-2.6962,-2.6962,-2.7114,-2.7215,-2.7232,-2.7774,-2.8145,-2.8331,-2.8907,-2.9583,-3.0243,-3.0362,-3.0598,-3.1123,-3.119,-3.119,-3.119,-3.119,-3.119,-3.114,-3.07,-3.0565,-3.097,-3.0192,-3.0059,-3.092,-3.0734,-3.0581,-3.1123,-3.119,-3.119,-3.119,-3.119,-3.119,-3.119,-3.119,-3.1173,-3.119,-3.119,-3.1308,-3.1642,-3.2337,-3.3205,-3.4001,-3.4179,-3.3617,-3.288,-3.2529,-3.2651,-3.2599,-3.1984,-3.1457,-3.1265,-3.0738,-2.9948,-2.9211,-2.8877,-2.8561,-2.7912,-2.7716,-2.7716,-2.7716,-2.7716,-2.7716,-2.7716,-2.7716,-2.7716,-2.7716,-2.7508,-2.7139,-3.9943,-3.9808,-3.9182,-3.8886,-3.8971,-3.9588,-3.9842,-3.9859,-3.9893,-3.9893,-3.9757,-3.9191,-3.8903,-3.8886,-3.8886,-3.8903,-3.8836,-3.821,-3.7889,-3.7821,-3.7872,-3.7821,-3.7635,-3.777,-3.777,-3.755,-3.6857,-3.688,-3.7499,-3.5453,-3.3761,-3.2649,-3.2293,-3.2226,-3.2242,-3.1647,-3.2019,-3.3322,-3.1089,-2.992,-2.9871,-2.7824,-2.6708,-2.6708,-2.735,-2.7705,-2.7705,-2.8399,-2.8773,-2.879,-2.8824,-2.9178,-2.977,-2.9956,-3.0328,-3.1004,-3.1072,-3.114,-3.119,-3.119,-3.119,-3.119,-3.119,-3.119,-3.119,-3.1123,-3.1106,-3.114,-3.1055,-3.0987,-3.1193,-3.1089,-3.1055,-3.114,-3.119,-3.119,-3.119,-3.119,-3.119,-3.119,-3.119,-3.119,-3.119,-3.121,-3.1366,-3.1688,-3.194,-3.2296,-3.2757,-3.2862,-3.288,-3.2651,-3.2915,-3.3266,-3.3178,-3.2774,-3.209,-3.144,-3.1194,-3.0545,-2.9614,-2.8983,-2.8649,-2.7929,-2.7716,-2.7716,-2.7716,-2.7716,-2.7716,-2.7716,-2.7716,-2.7716,-2.7631,-2.7297,-2.6739,-4.0113,-4.0079,-3.9774,-3.9656,-3.9706,-3.9977,-4.0113,-4.0113,-4.0113,-4.0113,-4.0079,-3.9774,-3.9631,-3.9656,-3.9656,-3.9656,-3.9639,-3.9326,-3.8954,-3.8633,-3.8971,-3.8751,-3.8007,-3.8362,-3.8345,-3.7872,-3.7127,-3.6965,-3.6874,-3.5385,-3.4184,-3.363,-3.3169,-3.2949,-3.2882,-3.2205,-3.2138,-3.2645,-3.1004,-3.0089,-2.9956,-2.8772,-2.8062,-2.8096,-2.8349,-2.8501,-2.8535,-2.884,-2.8993,-2.9027,-2.9414,-2.9786,-3.0108,-3.0514,-3.0886,-3.1173,-3.119,-3.119,-3.119,-3.119,-3.119,-3.119,-3.119,-3.119,-3.119,-3.119,-3.119,-3.119,-3.119,-3.119,-3.119,-3.119,-3.119,-3.119,-3.119,-3.119,-3.119,-3.119,-3.119,-3.119,-3.119,-3.119,-3.121,-3.1325,-3.1498,-3.1763,-3.1874,-3.209,-3.2371,-3.2406,-3.2599,-3.2915,-3.2985,-3.2827,-3.2915,-3.3038,-3.2652,-3.2213,-3.2283,-3.1932,-3.0176,-2.9632,-2.9228,-2.7979,-2.7754,-2.7701,-2.7716,-2.7716,-2.7716,-2.7716,-2.7716,-2.7716,-2.7716,-2.7455,-2.7139,-4.0113,-4.0113,-4.0113,-4.0113,-4.0113,-4.0113,-4.0113,-4.0113,-4.0113,-4.0113,-4.0113,-4.0113,-4.0113,-4.0113,-4.0113,-4.0113,-4.0113,-4.0113,-3.9825,-3.9402,-3.9859,-3.9537,-3.8616,-3.9046,-3.9022,-3.8464,-3.7787,-3.732,-3.6998,-3.5797,-3.503,-3.4726,-3.4066,-3.3592,-3.3372,-3.2852,-3.2496,-3.2242,-3.1207,-3.0615,-3.0378,-2.9871,-2.9416,-2.9061,-2.9196,-2.9297,-2.9314,-2.9501,-2.9619,-2.9636,-3.0125,-3.0412,-3.0429,-3.0903,-3.1292,-3.1444,-3.1312,-3.1312,-3.1481,-3.1309,-3.119,-3.119,-3.119,-3.119,-3.119,-3.119,-3.119,-3.119,-3.119,-3.119,-3.119,-3.119,-3.119,-3.119,-3.119,-3.119,-3.119,-3.119,-3.119,-3.119,-3.1249,-3.1308,-3.1366,-3.15,-3.167,-3.1873,-3.2001,-3.2161,-3.2371,-3.2423,-3.2599,-3.309,-3.2722,-3.2687,-3.2932,-3.3195,-3.3248,-3.3354,-3.3512,-3.3038,-3.1142,-3.0703,-2.9895,-2.8649,-2.8105,-2.7701,-2.7716,-2.7716,-2.7716,-2.7716,-2.7716,-2.7716,-2.7716,-2.7666,-2.7473,-4.0113,-4.0113,-4.0113,-4.0113,-4.0113,-4.0113,-4.0113,-4.0113,-4.0113,-4.0113,-4.0113,-4.0113,-4.0113,-4.0113,-4.0113,-4.0113,-4.0113,-4.0113,-4.0062,-3.9994,-4.0079,-4.0062,-4.0011,-4.0045,-4.0011,-3.9757,-3.9039,-3.8396,-3.7787,-3.7043,-3.6315,-3.5532,-3.4861,-3.415,-3.3609,-3.344,-3.3017,-3.2496,-3.2242,-3.187,-3.1295,-3.114,-3.0446,-2.9399,-2.9702,-3.0057,-3.0125,-3.0734,-3.1089,-3.1072,-3.1123,-3.114,-3.1173,-3.1224,-3.1596,-3.209,-3.165,-3.1546,-3.2073,-3.165,-3.1258,-3.1224,-3.1224,-3.119,-3.1207,-3.1275,-3.1309,-3.1244,-3.1343,-3.136,-3.1343,-3.1275,-3.1241,-3.1275,-3.1241,-3.1258,-3.1275,-3.1444,-3.1224,-3.128,-3.1397,-3.1619,-3.1776,-3.1781,-3.1942,-3.2123,-3.216,-3.2179,-3.2354,-3.2406,-3.2493,-3.2564,-3.2616,-3.288,-3.4126,-3.388,-3.3827,-3.3968,-3.388,-3.4038,-3.2827,-3.1598,-3.0387,-2.9228,-2.8298,-2.7789,-2.7751,-2.7716,-2.7716,-2.7716,-2.7716,-2.7716,-2.7716,-2.7716,-2.7593,-4.0113,-4.0113,-4.0113,-4.0113,-4.0113,-4.0113,-4.0113,-4.0113,-4.0113,-4.0113,-4.0113,-4.0113,-4.0113,-4.0113,-4.0113,-4.0113,-4.0113,-4.0113,-4.0113,-4.0113,-4.0113,-4.0113,-4.0113,-4.0113,-4.0113,-3.9994,-3.9343,-3.8616,-3.7956,-3.7618,-3.711,-3.6451,-3.6113,-3.5571,-3.4878,-3.4336,-3.3947,-3.3677,-3.3292,-3.2865,-3.2594,-3.2611,-3.2104,-3.1176,-3.0905,-3.0801,-3.0801,-3.1532,-3.1921,-3.1904,-3.1921,-3.2124,-3.2544,-3.2611,-3.2713,-3.2933,-3.2747,-3.273,-3.2865,-3.2307,-3.1904,-3.187,-3.1464,-3.1241,-3.1275,-3.1616,-3.1904,-3.1972,-3.2357,-3.2577,-3.2425,-3.1799,-3.1413,-3.1802,-3.1904,-3.209,-3.2493,-3.2611,-3.2442,-3.1992,-3.1723,-3.1878,-3.258,-3.2477,-3.2435,-3.3256,-3.2842,-3.2407,-3.2371,-3.2406,-3.2564,-3.2862,-3.2757,-3.2932,-3.446,-3.3985,-3.3669,-3.3932,-3.4056,-3.4003,-3.3231,-3.1967,-3.0738,-2.9843,-2.8772,-2.7841,-2.7771,-2.7716,-2.7716,-2.7716,-2.7716,-2.7716,-2.7716,-2.7716,-2.7716,-4.0113,-4.0113,-4.0113,-4.0113,-4.0113,-4.0113,-4.0113,-4.0113,-4.0113,-4.0113,-4.0113,-4.0113,-4.0113,-4.0113,-4.0113,-4.0113,-4.0113,-4.0113,-4.0113,-4.0113,-4.0113,-4.0113,-4.0113,-4.0113,-4.0113,-4.0045,-3.9622,-3.9073,-3.8633,-3.8362,-3.799,-3.7533,-3.7083,-3.6535,-3.5943,-3.5233,-3.4759,-3.4455,-3.3998,-3.3643,-3.3457,-3.3389,-3.3186,-3.2662,-3.2154,-3.1782,-3.1616,-3.2256,-3.2682,-3.2666,-3.2645,-3.2784,-3.3017,-3.3271,-3.3389,-3.3389,-3.3389,-3.3525,-3.3626,-3.3068,-3.2666,-3.2649,-3.2222,-3.1901,-3.1952,-3.2357,-3.2594,-3.2763,-3.3051,-3.3389,-3.322,-3.2493,-3.2121,-3.256,-3.2666,-3.2848,-3.3301,-3.3372,-3.3021,-3.2479,-3.2164,-3.2539,-3.3294,-3.3182,-3.3487,-3.4395,-3.3457,-3.2809,-3.2739,-3.2757,-3.2757,-3.3055,-3.295,-3.3038,-3.3599,-3.3248,-3.3617,-3.3986,-3.4161,-3.4073,-3.3634,-3.2353,-3.13,-3.0422,-2.9404,-2.8368,-2.7824,-2.7751,-2.7716,-2.7716,-2.7716,-2.7716,-2.7716,-2.7716,-2.7701,-4.0113,-4.0113,-4.0113,-4.0113,-4.0113,-4.0113,-4.0113,-4.0113,-4.0113,-4.0113,-4.0113,-4.0113,-4.0113,-4.0113,-4.0113,-4.0113,-4.0113,-4.0113,-4.0113,-4.0113,-4.0113,-4.0113,-4.0113,-4.0113,-4.0113,-4.0113,-4.0079,-4.0045,-3.9893,-3.9309,-3.8937,-3.865,-3.7591,-3.6948,-3.6761,-3.5977,-3.5267,-3.4726,-3.4523,-3.4184,-3.3541,-3.3592,-3.3558,-3.3423,-3.3406,-3.3102,-3.2412,-3.3034,-3.3406,-3.3423,-3.3406,-3.3068,-3.2767,-3.322,-3.3487,-3.3592,-3.3508,-3.3829,-3.4336,-3.3812,-3.3406,-3.3372,-3.3339,-3.3152,-3.3119,-3.3305,-3.3406,-3.3423,-3.3541,-3.3558,-3.3592,-3.3491,-3.3406,-3.3423,-3.3406,-3.3474,-3.3541,-3.3457,-3.3232,-3.2855,-3.2814,-3.2995,-3.341,-3.389,-3.4473,-3.4668,-3.4125,-3.3441,-3.3371,-3.3406,-3.3213,-3.2932,-3.3038,-3.3353,-3.2915,-3.2511,-3.3371,-3.4073,-3.4231,-3.4231,-3.3792,-3.2809,-3.2002,-3.1089,-2.9614,-2.8579,-2.8087,-2.7982,-2.7751,-2.7716,-2.7716,-2.7716,-2.7716,-2.7701,-2.7672,-4.0113,-4.0113,-4.0113,-4.0113,-4.0113,-4.0113,-4.0113,-4.0113,-4.0113,-4.0113,-4.0113,-4.0113,-4.0113,-4.0113,-4.0113,-4.0113,-4.0113,-4.0113,-4.0113,-4.0113,-4.0113,-4.0113,-4.0113,-4.0113,-4.0113,-4.0113,-4.0113,-4.0113,-4.0062,-3.9859,-3.9537,-3.8954,-3.8548,-3.7753,-3.6863,-3.6518,-3.6045,-3.5346,-3.5245,-3.5109,-3.4923,-3.4906,-3.4675,-3.4269,-3.4641,-3.459,-3.3901,-3.4032,-3.415,-3.4167,-3.415,-3.4049,-3.3986,-3.4523,-3.489,-3.4906,-3.4906,-3.4974,-3.5092,-3.459,-3.415,-3.4066,-3.3728,-3.3423,-3.3474,-3.3897,-3.415,-3.4218,-3.4607,-3.4906,-3.4906,-3.4906,-3.4675,-3.4218,-3.415,-3.4353,-3.4658,-3.4404,-3.4121,-3.3918,-3.3646,-3.4006,-3.4832,-3.5153,-3.5012,-3.5881,-3.5109,-3.4214,-3.374,-3.4056,-3.4284,-3.4056,-3.395,-3.3722,-3.3564,-3.3178,-3.3301,-3.3722,-3.3863,-3.395,-3.3582,-3.3161,-3.2423,-3.1528,-3.0053,-2.907,-2.8579,-2.821,-2.7979,-2.7751,-2.7716,-2.7716,-2.7716,-2.7672,-2.7612,-4.0113,-4.0113,-4.0113,-4.0113,-4.0113,-4.0113,-4.0113,-4.0113,-4.0113,-4.0113,-4.0113,-4.0113,-4.0113,-4.0113,-4.0113,-4.0113,-4.0113,-4.0113,-4.0113,-4.0113,-4.0113,-4.0113,-4.0113,-4.0113,-4.0113,-4.0113,-4.0113,-4.0113,-4.0113,-4.0096,-3.9876,-3.9469,-3.914,-3.8396,-3.7263,-3.6931,-3.64,-3.5718,-3.56,-3.5616,-3.56,-3.5616,-3.5363,-3.5047,-3.5363,-3.5329,-3.4928,-3.4928,-3.4912,-3.4912,-3.4912,-3.4793,-3.4607,-3.5148,-3.5481,-3.5261,-3.543,-3.5583,-3.5549,-3.5143,-3.4912,-3.4827,-3.4489,-3.423,-3.432,-3.4709,-3.4895,-3.4996,-3.5261,-3.5616,-3.5583,-3.56,-3.5363,-3.4957,-3.4912,-3.5092,-3.5414,-3.4945,-3.4605,-3.4491,-3.4408,-3.494,-3.5423,-3.5939,-3.5657,-3.6601,-3.5899,-3.5021,-3.4582,-3.4811,-3.4898,-3.4898,-3.474,-3.4582,-3.453,-3.4038,-3.3389,-3.3354,-3.3371,-3.3336,-3.3143,-3.2827,-3.2265,-3.1668,-3.0492,-2.965,-2.9105,-2.8614,-2.828,-2.8067,-2.7856,-2.7701,-2.7686,-2.7582,-2.7524,-4.0113,-4.0113,-4.0113,-4.0113,-4.0113,-4.0113,-4.0113,-4.0113,-4.0113,-4.0113,-4.0113,-4.0113,-4.0113,-4.0113,-4.0113,-4.0113,-4.0113,-4.0113,-4.0113,-4.0113,-4.0113,-4.0113,-4.0113,-4.0113,-4.0113,-4.0113,-4.0113,-4.0113,-4.0113,-4.0113,-4.0113,-3.996,-3.9419,-3.87,-3.799,-3.7303,-3.6654,-3.5926,-3.5735,-3.5735,-3.5633,-3.5616,-3.5583,-3.5532,-3.5566,-3.5566,-3.5498,-3.5481,-3.5532,-3.5566,-3.5515,-3.525,-3.4861,-3.5228,-3.5278,-3.481,-3.5284,-3.5532,-3.5616,-3.5532,-3.5498,-3.5464,-3.543,-3.56,-3.5414,-3.538,-3.5447,-3.5464,-3.5566,-3.5616,-3.5616,-3.5616,-3.5566,-3.56,-3.5464,-3.5532,-3.5515,-3.4996,-3.489,-3.4998,-3.5143,-3.5365,-3.574,-3.6339,-3.6718,-3.6794,-3.632,-3.5881,-3.5617,-3.553,-3.5425,-3.5336,-3.5248,-3.5197,-3.5074,-3.4162,-3.3547,-3.3354,-3.3248,-3.3055,-3.2932,-3.2651,-3.2371,-3.1756,-3.1142,-3.0317,-2.972,-2.9316,-2.8877,-2.8596,-2.8298,-2.7912,-2.7714,-2.7666,-2.7357,-4.0113,-4.0113,-4.0113,-4.0113,-4.0113,-4.0113,-4.0113,-4.0113,-4.0113,-4.0113,-4.0113,-4.0113,-4.0113,-4.0113,-4.0113,-4.0113,-4.0113,-4.0113,-4.0113,-4.0113,-4.0113,-4.0113,-4.0113,-4.0113,-4.0113,-4.0113,-4.0113,-4.0113,-4.0113,-4.0113,-4.0113,-4.0113,-3.9893,-3.9394,-3.8751,-3.843,-3.7702,-3.6671,-3.6468,-3.6146,-3.565,-3.5616,-3.5616,-3.5616,-3.5616,-3.5616,-3.5616,-3.5616,-3.5616,-3.5616,-3.5616,-3.5532,-3.5312,-3.5481,-3.5481,-3.5363,-3.547,-3.5616,-3.5616,-3.5616,-3.5616,-3.5616,-3.5616,-3.5616,-3.5616,-3.5616,-3.5616,-3.5616,-3.5616,-3.5616,-3.5616,-3.5616,-3.5616,-3.5616,-3.5616,-3.5616,-3.5611,-3.5642,-3.5642,-3.5711,-3.5847,-3.606,-3.6333,-3.6576,-3.6866,-3.6915,-3.6761,-3.6443,-3.6197,-3.6285,-3.6215,-3.581,-3.5652,-3.5634,-3.532,-3.4354,-3.3705,-3.3441,-3.3231,-3.3003,-3.2897,-3.2757,-3.2493,-3.2125,-3.1616,-3.0878,-3.058,-3.0246,-2.979,-2.9228,-2.893,-2.8599,-2.8167,-2.7941,-2.7306,-4.0113,-4.0113,-4.0113,-4.0113,-4.0113,-4.0113,-4.0113,-4.0113,-4.0113,-4.0113,-4.0113,-4.0113,-4.0113,-4.0113,-4.0113,-4.0113,-4.0113,-4.0113,-4.0113,-4.0113,-4.0113,-4.0113,-4.0113,-4.0113,-4.0113,-4.0113,-4.0113,-4.0113,-4.0113,-4.0113,-4.0113,-4.0113,-4.0113,-3.9723,-3.9005,-3.8954,-3.8302,-3.7066,-3.6795,-3.64,-3.5667,-3.5616,-3.5616,-3.5616,-3.5616,-3.5616,-3.5616,-3.5616,-3.5616,-3.5616,-3.5616,-3.5616,-3.5616,-3.5616,-3.5616,-3.5616,-3.5616,-3.5616,-3.5616,-3.5616,-3.5616,-3.5616,-3.5616,-3.5616,-3.5616,-3.5616,-3.5616,-3.5616,-3.5616,-3.5616,-3.5616,-3.5616,-3.5616,-3.5616,-3.5616,-3.5616,-3.5616,-3.5734,-3.5915,-3.6084,-3.6237,-3.6447,-3.6766,-3.6823,-3.6886,-3.6968,-3.6989,-3.6707,-3.6513,-3.6814,-3.6884,-3.6408,-3.6215,-3.625,-3.6215,-3.546,-3.4882,-3.4512,-3.3915,-3.3547,-3.3003,-3.2897,-3.2581,-3.23,-3.1932,-3.1581,-3.123,-3.0878,-3.0422,-2.9948,-2.965,-2.9187,-2.8698,-2.8262,-2.7587,-4.0113,-4.0113,-4.0113,-4.0113,-4.0113,-4.0113,-4.0113,-4.0113,-4.0113,-4.0113,-4.0113,-4.0113,-4.0113,-4.0113,-4.0113,-4.0113,-4.0113,-4.0113,-4.0113,-4.0113,-4.0113,-4.0113,-4.0113,-4.0113,-4.0113,-4.0113,-4.0113,-4.0113,-4.0113,-4.0113,-4.0113,-4.0113,-4.0113,-3.9791,-3.9343,-3.9174,-3.8386,-3.7455,-3.7286,-3.6891,-3.6231,-3.5971,-3.591,-3.5853,-3.565,-3.5616,-3.5616,-3.5616,-3.5616,-3.5616,-3.5616,-3.5616,-3.5616,-3.5616,-3.5616,-3.5616,-3.5616,-3.5616,-3.5616,-3.5616,-3.5616,-3.5616,-3.5616,-3.5616,-3.5616,-3.5616,-3.5616,-3.5616,-3.5616,-3.5616,-3.5616,-3.5616,-3.5616,-3.5616,-3.5616,-3.5616,-3.5622,-3.5622,-3.5822,-3.6195,-3.628,-3.6568,-3.6811,-3.6987,-3.6989,-3.6987,-3.6989,-3.6902,-3.6759,-3.6902,-3.6989,-3.6867,-3.6794,-3.6902,-3.6849,-3.6691,-3.6269,-3.5829,-3.5109,-3.4477,-3.3424,-3.3073,-3.2687,-3.2353,-3.2125,-3.1879,-3.1598,-3.123,-3.0966,-3.0756,-3.051,-2.9804,-2.9069,-2.8697,-2.8152,-4.0113,-4.0113,-4.0113,-4.0113,-4.0113,-4.0113,-4.0113,-4.0113,-4.0113,-4.0113,-4.0113,-4.0113,-4.0113,-4.0113,-4.0113,-4.0113,-4.0113,-4.0113,-4.0113,-4.0113,-4.0113,-4.0113,-4.0113,-4.0113,-4.0113,-4.0113,-4.0113,-4.0113,-4.0113,-4.0113,-4.0113,-4.0113,-4.0096,-4.0028,-3.9876,-3.974,-3.9453,-3.865,-3.8488,-3.8007,-3.7297,-3.6772,-3.6535,-3.6485,-3.6011,-3.5667,-3.5616,-3.5616,-3.5616,-3.5616,-3.565,-3.5701,-3.5701,-3.5718,-3.5735,-3.5684,-3.565,-3.5633,-3.5616,-3.5616,-3.5616,-3.5616,-3.5616,-3.5616,-3.5616,-3.5616,-3.5616,-3.5616,-3.5616,-3.5616,-3.5616,-3.5616,-3.5616,-3.5616,-3.5616,-3.5616,-3.5644,-3.5778,-3.5915,-3.6084,-3.6377,-3.6643,-3.6745,-3.6928,-3.6968,-3.697,-3.6989,-3.6989,-3.6989,-3.6989,-3.6989,-3.6989,-3.6989,-3.6989,-3.6937,-3.6831,-3.6603,-3.6445,-3.5952,-3.5372,-3.4319,-3.3634,-3.3406,-3.2932,-3.2388,-3.2142,-3.1897,-3.1984,-3.1791,-3.1581,-3.1301,-3.0609,-2.9937,-2.9403,-2.8732,-4.0113,-4.0113,-4.0113,-4.0113,-4.0113,-4.0113,-4.0113,-4.0113,-4.0113,-4.0113,-4.0113,-4.0113,-4.0113,-4.0113,-4.0113,-4.0113,-4.0113,-4.0113,-4.0113,-4.0113,-4.0113,-4.0113,-4.0113,-4.0113,-4.0113,-4.0113,-4.0113,-4.0113,-4.0113,-4.0113,-4.0113,-4.0113,-4.0096,-4.0096,-4.0113,-4.0096,-3.9673,-3.9097,-3.8988,-3.8633,-3.7939,-3.755,-3.7313,-3.7297,-3.6907,-3.6664,-3.6715,-3.6332,-3.64,-3.6502,-3.6366,-3.618,-3.6265,-3.6485,-3.6479,-3.6214,-3.6146,-3.5926,-3.5752,-3.5616,-3.5616,-3.5616,-3.5616,-3.5616,-3.5616,-3.5616,-3.5616,-3.5616,-3.5616,-3.5616,-3.5616,-3.5616,-3.5616,-3.5616,-3.5616,-3.5616,-3.5622,-3.5734,-3.5888,-3.5997,-3.6276,-3.6541,-3.6705,-3.6866,-3.6968,-3.6989,-3.6989,-3.6989,-3.6989,-3.6989,-3.6989,-3.6989,-3.6989,-3.6972,-3.6919,-3.6796,-3.6603,-3.655,-3.6463,-3.5952,-3.5249,-3.4704,-3.4283,-3.3529,-3.2722,-3.2423,-3.2248,-3.2406,-3.2406,-3.2142,-3.1758,-3.1324,-3.0838,-3.0248,-2.9523,-4.0113,-4.0113,-4.0113,-4.0113,-4.0113,-4.0113,-4.0113,-4.0113,-4.0113,-4.0113,-4.0113,-4.0113,-4.0113,-4.0113,-4.0113,-4.0113,-4.0113,-4.0113,-4.0113,-4.0113,-4.0113,-4.0113,-4.0113,-4.0113,-4.0113,-4.0113,-4.0113,-4.0113,-4.0113,-4.0113,-4.0113,-4.0096,-4.0171,-4.0171,-4.0121,-4.0154,-3.9917,-3.9351,-3.93,-3.9056,-3.8447,-3.821,-3.8024,-3.7787,-3.7753,-3.7669,-3.7567,-3.728,-3.7212,-3.7821,-3.7398,-3.7202,-3.7269,-3.7449,-3.7669,-3.6958,-3.6941,-3.662,-3.6163,-3.5988,-3.6056,-3.5836,-3.5802,-3.5904,-3.5988,-3.5819,-3.5718,-3.5752,-3.5769,-3.5616,-3.5616,-3.5616,-3.5616,-3.5616,-3.5616,-3.5616,-3.5616,-3.56,-3.5734,-3.5888,-3.6105,-3.6335,-3.6582,-3.6786,-3.6888,-3.6989,-3.6989,-3.6989,-3.6989,-3.6989,-3.6989,-3.6989,-3.6989,-3.6989,-3.6954,-3.6919,-3.6708,-3.6691,-3.6744,-3.6443,-3.6004,-3.5476,-3.4827,-3.3774,-3.3055,-3.2774,-3.2493,-3.2406,-3.2406,-3.2406,-3.2231,-3.1812,-3.1394,-3.1029,-3.0334,-4.0113,-4.0113,-4.0113,-4.0113,-4.0113,-4.0113,-4.0113,-4.0113,-4.0113,-4.0113,-4.0113,-4.0113,-4.0113,-4.0113,-4.0113,-4.0113,-4.0113,-4.0113,-4.0113,-4.0113,-4.0163,-4.0197,-4.0231,-4.0248,-4.0197,-4.0113,-4.0113,-4.0113,-4.0113,-4.0113,-4.0113,-4.0146,-4.0328,-4.0353,-4.0271,-4.0328,-4.0235,-3.9883,-3.9816,-3.9673,-3.9469,-3.9056,-3.8582,-3.821,-3.8176,-3.8125,-3.8,-3.7855,-3.7787,-3.7922,-3.8362,-3.8548,-3.8481,-3.8227,-3.7973,-3.777,-3.7702,-3.7381,-3.6772,-3.7127,-3.7077,-3.6795,-3.6586,-3.6874,-3.6941,-3.6377,-3.6028,-3.6096,-3.591,-3.5616,-3.5616,-3.5616,-3.5616,-3.5616,-3.5616,-3.5616,-3.5616,-3.56,-3.5622,-3.5734,-3.5932,-3.617,-3.6423,-3.6667,-3.6829,-3.6948,-3.6989,-3.6989,-3.6989,-3.6989,-3.6989,-3.6989,-3.6989,-3.6989,-3.6989,-3.6972,-3.6902,-3.6884,-3.6902,-3.6902,-3.6461,-3.6075,-3.5318,-3.4371,-3.3564,-3.309,-3.2827,-3.2564,-3.2406,-3.2406,-3.2319,-3.2249,-3.19,-3.1516,-3.1218,-4.0333,-4.0629,-4.0265,-4.0333,-4.0544,-4.0248,-4.0113,-4.0113,-4.0113,-4.0113,-4.0113,-4.0113,-4.0113,-4.0113,-4.0113,-4.0113,-4.0113,-4.0113,-4.0113,-4.0146,-4.0443,-4.0663,-4.0646,-4.0646,-4.0663,-4.0561,-4.0333,-4.0113,-4.0113,-4.0113,-4.0113,-4.0121,-4.0279,-4.0328,-4.0328,-4.032,-4.0377,-4.0296,-4.0196,-4.0113,-4.0113,-3.9706,-3.9351,-3.914,-3.9005,-3.9039,-3.8954,-3.8599,-3.87,-3.8954,-3.9005,-3.9208,-3.9309,-3.9225,-3.8836,-3.8548,-3.8464,-3.8142,-3.7516,-3.7753,-3.7669,-3.7449,-3.7364,-3.728,-3.7195,-3.6654,-3.6231,-3.6062,-3.5994,-3.5616,-3.5616,-3.5616,-3.5616,-3.5616,-3.5616,-3.5616,-3.5616,-3.5616,-3.5639,-3.5661,-3.5866,-3.6105,-3.6301,-3.6547,-3.6768,-3.6888,-3.697,-3.6989,-3.6989,-3.6989,-3.6989,-3.6989,-3.6989,-3.6989,-3.6989,-3.6989,-3.6989,-3.6989,-3.6989,-3.6989,-3.6919,-3.6478,-3.5934,-3.5161,-3.4406,-3.3652,-3.3108,-3.2845,-3.2634,-3.2441,-3.2406,-3.2371,-3.2267,-3.2021,-3.1724,-4.051,-4.1153,-4.0561,-4.073,-4.1255,-4.0823,-4.057,-4.0553,-4.0603,-4.0637,-4.0536,-4.0417,-4.0367,-4.0299,-4.018,-4.0113,-4.0113,-4.0113,-4.0113,-4.0248,-4.0781,-4.117,-4.1204,-4.1373,-4.1407,-4.1322,-4.073,-4.0248,-4.0113,-4.0113,-4.0113,-4.0146,-4.0146,-4.0271,-4.0377,-4.0328,-4.0402,-4.0345,-4.0254,-4.0096,-4.0113,-4.0113,-4.0113,-4.0113,-4.0113,-4.0028,-3.9876,-3.9503,-3.9503,-3.9673,-3.9639,-3.9503,-3.9977,-4.0096,-3.9825,-3.9326,-3.9208,-3.8802,-3.8379,-3.8396,-3.8464,-3.8159,-3.8125,-3.7804,-3.7364,-3.706,-3.6474,-3.5825,-3.5616,-3.5616,-3.5616,-3.5616,-3.5616,-3.5616,-3.5616,-3.5616,-3.5616,-3.5639,-3.5684,-3.5756,-3.591,-3.6084,-3.6259,-3.6506,-3.6766,-3.6908,-3.6989,-3.6989,-3.6989,-3.6989,-3.6989,-3.6989,-3.6989,-3.6989,-3.6989,-3.6989,-3.6989,-3.6989,-3.6989,-3.6989,-3.6989,-3.6902,-3.632,-3.5829,-3.5074,-3.4337,-3.374,-3.3196,-3.3055,-3.288,-3.2687,-3.2494,-3.2371,-3.2301,-3.2127,-4.051,-4.1204,-4.1102,-4.1491,-4.2049,-4.1965,-4.1965,-4.1914,-4.188,-4.2033,-4.1796,-4.1356,-4.1068,-4.0882,-4.04,-4.0163,-4.0146,-4.0214,-4.0299,-4.0502,-4.1085,-4.1457,-4.1407,-4.1914,-4.2117,-4.2033,-4.1424,-4.0713,-4.04,-4.0248,-4.0113,-4.0146,-4.0303,-4.0434,-4.0303,-4.0353,-4.0402,-4.0221,-4.0121,-4.0113,-4.0113,-4.0113,-4.0113,-4.0113,-4.0113,-4.0113,-4.0113,-3.9893,-3.9994,-4.0011,-4.0028,-4.0011,-4.0113,-4.0113,-4.0096,-3.9994,-3.991,-3.9656,-3.9106,-3.9276,-3.9385,-3.8971,-3.887,-3.8819,-3.8311,-3.7432,-3.6603,-3.5701,-3.5701,-3.5819,-3.5904,-3.5718,-3.565,-3.5718,-3.5836,-3.5802,-3.5752,-3.5616,-3.5684,-3.5914,-3.6081,-3.6135,-3.6255,-3.6523,-3.6766,-3.6888,-3.6989,-3.6989,-3.6989,-3.6989,-3.6989,-3.6989,-3.6989,-3.6989,-3.6989,-3.6989,-3.6989,-3.6989,-3.6989,-3.6989,-3.6989,-3.6989,-3.6989,-3.6408,-3.5688,-3.4986,-3.4283,-3.3827,-3.3564,-3.3283,-3.3003,-3.2739,-3.2476,-3.2441,-3.2441,-4.0553,-4.1238,-4.166,-4.1745,-4.1728,-4.21,-4.2033,-4.1813,-4.2117,-4.2303,-4.2252,-4.1999,-4.161,-4.1221,-4.0815,-4.073,-4.0713,-4.0713,-4.101,-4.1399,-4.1982,-4.2378,-4.2557,-4.276,-4.2929,-4.2743,-4.2236,-4.1762,-4.1196,-4.0502,-4.0113,-4.0172,-4.0271,-4.0377,-4.0279,-4.0303,-4.0353,-4.0303,-4.0221,-4.0096,-4.0113,-4.0113,-4.0113,-4.0113,-4.0113,-4.0113,-4.0113,-4.0113,-4.0113,-4.0113,-4.0113,-4.0113,-4.0113,-4.0113,-4.0096,-4.0096,-4.0096,-3.9926,-3.9723,-3.996,-3.9842,-3.9757,-3.9571,-3.9419,-3.892,-3.8058,-3.7297,-3.6992,-3.6901,-3.685,-3.6834,-3.6907,-3.6907,-3.6823,-3.6434,-3.6563,-3.6451,-3.5791,-3.5695,-3.6004,-3.629,-3.6426,-3.656,-3.6755,-3.6914,-3.6888,-3.6987,-3.6989,-3.6989,-3.6989,-3.6989,-3.6989,-3.6989,-3.6989,-3.6989,-3.6989,-3.6989,-3.6989,-3.6989,-3.6989,-3.6989,-3.6989,-3.6989,-3.6989,-3.6533,-3.5759,-3.4932,-3.453,-3.4284,-3.381,-3.3283,-3.3143,-3.295,-3.2546,-3.2546,-4.0578,-4.1018,-4.1897,-4.1965,-4.1593,-4.2455,-4.2472,-4.1914,-4.2608,-4.2895,-4.2794,-4.2658,-4.2168,-4.161,-4.1474,-4.1356,-4.1204,-4.139,-4.1644,-4.2219,-4.2895,-4.3284,-4.3352,-4.3487,-4.3707,-4.3673,-4.2929,-4.2422,-4.1897,-4.1348,-4.0739,-4.04,-4.0222,-4.0263,-4.0345,-4.0271,-4.0221,-4.0336,-4.0196,-4.0113,-4.0113,-4.0113,-4.0113,-4.0113,-4.0113,-4.0113,-4.0113,-4.0113,-4.0113,-4.0113,-4.0113,-4.0113,-4.0113,-4.0113,-4.0113,-4.0113,-4.0113,-4.0096,-4.0011,-4.0079,-4.0096,-4.0045,-3.9842,-3.9436,-3.9005,-3.8345,-3.7905,-3.7719,-3.7736,-3.7763,-3.7905,-3.7821,-3.7719,-3.7516,-3.733,-3.7584,-3.7618,-3.6874,-3.6536,-3.6916,-3.7115,-3.696,-3.7067,-3.7141,-3.713,-3.6971,-3.6948,-3.697,-3.6989,-3.6989,-3.6989,-3.6989,-3.6989,-3.6989,-3.6989,-3.6989,-3.6989,-3.6989,-3.6989,-3.6989,-3.6989,-3.6989,-3.6989,-3.6989,-3.6989,-3.6656,-3.5881,-3.5443,-3.5005,-3.4477,-3.4021,-3.3757,-3.3494,-3.3073,-3.295,-4.0747,-4.0299,-4.1677,-4.2185,-4.2202,-4.3836,-4.3893,-4.2946,-4.3859,-4.4175,-4.3978,-4.3656,-4.2929,-4.2371,-4.2168,-4.1897,-4.1339,-4.1931,-4.1948,-4.2117,-4.2598,-4.3369,-4.3639,-4.3978,-4.4412,-4.431,-4.3673,-4.2997,-4.2422,-4.2134,-4.1593,-4.1153,-4.0629,-4.029,-4.018,-4.0231,-4.0113,-4.0221,-4.0138,-4.0113,-4.0113,-4.0113,-4.0113,-4.0113,-4.0113,-4.0113,-4.0113,-4.0113,-4.0113,-4.0113,-4.0113,-4.0113,-4.0113,-4.0113,-4.0113,-4.0113,-4.0113,-4.0113,-4.0113,-4.0113,-4.0113,-3.9926,-3.9656,-3.9368,-3.9174,-3.8413,-3.8024,-3.8159,-3.8345,-3.821,-3.8108,-3.7956,-3.8278,-3.8227,-3.8176,-3.8176,-3.8159,-3.7838,-3.7587,-3.795,-3.79,-3.7576,-3.7626,-3.7701,-3.7421,-3.7271,-3.6965,-3.6989,-3.6989,-3.6989,-3.6989,-3.6989,-3.6989,-3.6989,-3.6989,-3.6989,-3.6989,-3.6989,-3.6989,-3.6989,-3.6989,-3.6989,-3.6989,-3.6989,-3.6989,-3.6919,-3.6849,-3.6357,-3.5813,-3.5197,-3.4758,-3.4512,-3.4389,-3.4161,-3.4126,-4.0383,-4.0197,-4.1204,-4.1356,-4.1077,-4.254,-4.2743,-4.2252,-4.2844,-4.3453,-4.3893,-4.3995,-4.369,-4.3149,-4.298,-4.2861,-4.2625,-4.2811,-4.2726,-4.298,-4.3555,-4.3775,-4.391,-4.4113,-4.4581,-4.453,-4.4198,-4.4062,-4.3768,-4.2895,-4.2642,-4.2134,-4.1356,-4.0933,-4.0713,-4.04,-4.018,-4.013,-4.0113,-4.0113,-4.0113,-4.0113,-4.0113,-4.0113,-4.0113,-4.0113,-4.0113,-4.0113,-4.0113,-4.0113,-4.0113,-4.0113,-4.0113,-4.0113,-4.0113,-4.0113,-4.0113,-4.0113,-4.0113,-4.0113,-4.0113,-4.0079,-3.9859,-3.9656,-3.9605,-3.9326,-3.9259,-3.9259,-3.914,-3.9039,-3.9225,-3.9259,-3.9326,-3.914,-3.8988,-3.887,-3.8734,-3.8481,-3.8403,-3.8632,-3.8292,-3.7878,-3.8048,-3.8288,-3.7914,-3.7547,-3.7231,-3.6989,-3.6989,-3.6989,-3.6989,-3.6989,-3.6989,-3.6989,-3.6989,-3.6989,-3.6989,-3.6989,-3.6989,-3.6989,-3.6989,-3.6989,-3.6989,-3.6989,-3.6989,-3.6954,-3.6954,-3.6972,-3.655,-3.5811,-3.546,-3.5266,-3.5214,-3.5179,-3.5162,-4.0113,-4.0163,-4.0646,-4.0578,-4.0333,-4.1687,-4.188,-4.1407,-4.2016,-4.2726,-4.3443,-4.4181,-4.4316,-4.3876,-4.3758,-4.3511,-4.347,-4.3572,-4.3555,-4.3724,-4.3961,-4.4164,-4.413,-4.4231,-4.4598,-4.4598,-4.4564,-4.4479,-4.3944,-4.3301,-4.3166,-4.2946,-4.2439,-4.1931,-4.1356,-4.0832,-4.0409,-4.0417,-4.018,-4.0113,-4.0113,-4.0113,-4.0113,-4.0113,-4.0113,-4.0113,-4.0113,-4.0113,-4.0113,-4.0113,-4.0113,-4.0113,-4.0113,-4.0113,-4.0113,-4.0113,-4.0113,-4.0113,-4.0113,-4.0113,-4.0113,-4.0096,-4.0096,-4.0045,-4.0113,-4.0113,-3.9893,-3.996,-4.0011,-4.0113,-4.0113,-3.9943,-3.9876,-3.9656,-3.9554,-3.9453,-3.9469,-3.9317,-3.9242,-3.9257,-3.896,-3.8894,-3.8931,-3.9152,-3.8534,-3.8,-3.7288,-3.706,-3.6989,-3.6989,-3.6989,-3.6989,-3.6989,-3.6989,-3.6989,-3.6989,-3.6989,-3.6989,-3.6989,-3.6989,-3.6989,-3.6989,-3.6989,-3.6989,-3.6989,-3.6989,-3.6989,-3.6989,-3.6724,-3.632,-3.6127,-3.5987,-3.6057,-3.6022,-3.5917,-4.0113,-4.0113,-4.0146,-4.0146,-4.0248,-4.1627,-4.1796,-4.1221,-4.188,-4.2625,-4.3325,-4.4113,-4.4547,-4.4445,-4.4378,-4.4079,-4.3809,-4.4147,-4.4096,-4.3741,-4.4198,-4.4496,-4.4479,-4.4496,-4.4598,-4.4598,-4.4564,-4.4248,-4.3673,-4.3792,-4.3792,-4.3656,-4.3284,-4.2811,-4.2252,-4.1525,-4.1187,-4.1085,-4.0493,-4.018,-4.0231,-4.0197,-4.0113,-4.0113,-4.0113,-4.0113,-4.0113,-4.0113,-4.0113,-4.0113,-4.0113,-4.0113,-4.0113,-4.0113,-4.0113,-4.0113,-4.0113,-4.0113,-4.0113,-4.0113,-4.0113,-4.0113,-4.0113,-4.0113,-4.0113,-4.0113,-4.0113,-4.0113,-4.0113,-4.0113,-4.0113,-4.0113,-4.0113,-4.0062,-3.9943,-3.9893,-3.9876,-3.9876,-3.9757,-3.9665,-4.0092,-4.0373,-4.0268,-4.0049,-3.9295,-3.8531,-3.7564,-3.7218,-3.7306,-3.7374,-3.7532,-3.7286,-3.7303,-3.7112,-3.7112,-3.7025,-3.6989,-3.6989,-3.6989,-3.6989,-3.6989,-3.6989,-3.6989,-3.7007,-3.6989,-3.6989,-3.6989,-3.6989,-3.6759,-3.6619,-3.6759,-3.6742,-3.6831,-3.6779,-3.655,-4.0113,-4.0113,-4.0113,-4.0113,-4.018,-4.0603,-4.0663,-4.0629,-4.1238,-4.1982,-4.2726,-4.347,-4.4147,-4.4445,-4.4581,-4.4429,-4.4327,-4.431,-4.4164,-4.3623,-4.4231,-4.4096,-4.413,-4.4367,-4.4581,-4.4598,-4.4564,-4.4513,-4.4248,-4.4181,-4.4164,-4.4079,-4.3978,-4.3453,-4.2422,-4.166,-4.1356,-4.1593,-4.0925,-4.0282,-4.0679,-4.04,-4.0113,-4.0113,-4.0113,-4.0113,-4.0113,-4.0113,-4.0113,-4.0113,-4.0113,-4.0113,-4.0113,-4.0113,-4.0113,-4.0113,-4.0113,-4.0113,-4.0113,-4.0113,-4.0113,-4.0113,-4.0113,-4.0113,-4.0113,-4.0113,-4.0113,-4.0113,-4.0113,-4.0113,-4.0113,-4.0113,-4.0113,-4.0113,-4.0028,-4.0045,-4.0045,-4.0045,-3.9994,-3.9977,-4.0221,-4.0534,-4.0597,-4.0533,-3.9965,-3.9707,-3.8954,-3.8497,-3.8462,-3.8497,-3.8567,-3.8041,-3.776,-3.7426,-3.7216,-3.7233,-3.7095,-3.6989,-3.6989,-3.6989,-3.6989,-3.713,-3.7095,-3.7165,-3.7077,-3.6989,-3.6989,-3.6989,-3.6989,-3.6972,-3.6989,-3.6989,-3.6937,-3.6919,-3.6884,-4.0113,-4.0113,-4.0113,-4.0113,-4.0113,-4.0113,-4.0113,-4.0248,-4.0865,-4.1491,-4.2049,-4.2946,-4.3656,-4.413,-4.4479,-4.4598,-4.4598,-4.4581,-4.4513,-4.3893,-4.4299,-4.4282,-4.4215,-4.4265,-4.4547,-4.4598,-4.4598,-4.4564,-4.4485,-4.4079,-4.413,-4.4434,-4.4581,-4.4045,-4.3149,-4.2608,-4.2252,-4.2252,-4.1491,-4.0713,-4.0815,-4.0561,-4.0113,-4.0113,-4.0113,-4.0113,-4.0113,-4.0113,-4.0113,-4.0113,-4.0113,-4.0113,-4.0113,-4.0113,-4.0113,-4.0113,-4.0113,-4.0113,-4.0113,-4.0113,-4.0113,-4.0113,-4.0113,-4.0113,-4.0113,-4.0113,-4.0113,-4.0113,-4.0113,-4.0113,-4.0113,-4.0113,-4.0113,-4.0113,-4.0113,-4.0113,-4.0113,-4.0113,-4.0113,-4.0113,-4.0263,-4.0541,-4.0813,-4.0787,-4.0585,-4.0508,-4.0411,-3.9989,-3.9533,-3.9445,-3.934,-3.8866,-3.8427,-3.8146,-3.783,-3.7567,-3.7356,-3.7042,-3.7165,-3.7374,-3.7409,-3.7584,-3.7444,-3.7306,-3.7218,-3.713,-3.7025,-3.7007,-3.713,-3.7112,-3.6989,-3.6989,-3.6989,-3.7058,-3.7108,-4.0113,-4.0113,-4.0113,-4.0113,-4.0113,-4.0113,-4.0113,-4.0163,-4.0815,-4.117,-4.1339,-4.276,-4.3375,-4.3606,-4.4231,-4.4581,-4.4598,-4.4598,-4.4547,-4.4513,-4.4547,-4.4496,-4.4496,-4.4547,-4.4598,-4.4598,-4.4598,-4.4598,-4.4598,-4.4445,-4.4451,-4.4581,-4.4598,-4.4378,-4.4012,-4.3656,-4.3301,-4.2844,-4.1644,-4.1052,-4.0984,-4.0476,-4.018,-4.0113,-4.0113,-4.0113,-4.0113,-4.0113,-4.0113,-4.0113,-4.0113,-4.0113,-4.0113,-4.0113,-4.0113,-4.0113,-4.0113,-4.013,-4.0282,-4.0316,-4.0434,-4.0553,-4.0434,-4.0265,-4.0113,-4.0113,-4.0113,-4.0113,-4.0113,-4.0113,-4.0113,-4.0113,-4.0113,-4.0113,-4.0113,-4.0113,-4.0113,-4.0113,-4.0113,-4.0188,-4.0337,-4.0607,-4.086,-4.0926,-4.0901,-4.1041,-4.0924,-4.0691,-4.027,-3.9985,-3.9866,-3.9568,-3.9199,-3.8936,-3.8602,-3.8234,-3.8058,-3.7883,-3.8006,-3.8164,-3.8164,-3.8164,-3.8164,-3.7988,-3.7514,-3.7411,-3.769,-3.7622,-3.7411,-3.7376,-3.7602,-3.7391,-3.7514,-3.7384,-3.7399,-4.0113,-4.0113,-4.0113,-4.0113,-4.0113,-4.0113,-4.0113,-4.0146,-4.0367,-4.0663,-4.1245,-4.2185,-4.2828,-4.3443,-4.4231,-4.4479,-4.4581,-4.4598,-4.4598,-4.4598,-4.4598,-4.4598,-4.4598,-4.4598,-4.4598,-4.4598,-4.4598,-4.4598,-4.4598,-4.4598,-4.4598,-4.4598,-4.4598,-4.4598,-4.4513,-4.4316,-4.3876,-4.3132,-4.1644,-4.1322,-4.1102,-4.0663,-4.04,-4.0299,-4.0316,-4.0316,-4.0316,-4.0282,-4.0265,-4.0214,-4.0163,-4.013,-4.0113,-4.0113,-4.0113,-4.0113,-4.0163,-4.0273,-4.0747,-4.0882,-4.1018,-4.1373,-4.1508,-4.0942,-4.0536,-4.0248,-4.0282,-4.04,-4.0316,-4.0299,-4.0248,-4.0197,-4.0146,-4.0113,-4.0113,-4.0113,-4.0113,-4.0113,-4.0113,-4.0163,-4.0337,-4.051,-4.0789,-4.0966,-4.1018,-4.1283,-4.1326,-4.1095,-4.095,-4.067,-4.0463,-4.02,-4.0024,-3.9796,-3.9357,-3.8971,-3.8883,-3.8796,-3.8883,-3.8954,-3.8971,-3.8971,-3.8971,-3.8743,-3.8322,-3.8427,-3.8743,-3.8515,-3.8146,-3.8515,-3.8725,-3.8339,-3.802,-3.8029,-3.7965,-4.0113,-4.0113,-4.0113,-4.0113,-4.0113,-4.0113,-4.0113,-4.0113,-4.0113,-4.04,-4.0832,-4.1542,-4.2117,-4.254,-4.3234,-4.3768,-4.4062,-4.4062,-4.4181,-4.4598,-4.4598,-4.4598,-4.4598,-4.4598,-4.4598,-4.4598,-4.4598,-4.4598,-4.4598,-4.4598,-4.4598,-4.4598,-4.4598,-4.4598,-4.4479,-4.4181,-4.3826,-4.3166,-4.2388,-4.188,-4.1542,-4.1288,-4.1077,-4.0891,-4.0908,-4.0908,-4.0908,-4.0908,-4.0942,-4.0976,-4.0976,-4.0993,-4.101,-4.101,-4.101,-4.1077,-4.1085,-4.1271,-4.1576,-4.1627,-4.1897,-4.2168,-4.2337,-4.1847,-4.1467,-4.1196,-4.1179,-4.1179,-4.0815,-4.0527,-4.0409,-4.029,-4.0214,-4.0113,-4.0113,-4.0113,-4.0113,-4.0113,-4.0096,-4.0121,-4.0221,-4.037,-4.059,-4.083,-4.1018,-4.1111,-4.1226,-4.1258,-4.1226,-4.1222,-4.1086,-4.0955,-4.0832,-4.0656,-4.0182,-3.9726,-3.9568,-3.9515,-3.9621,-3.9691,-3.9743,-3.9708,-3.9656,-3.9463,-3.9199,-3.9305,-3.9375,-3.9269,-3.9076,-3.9389,-3.9547,-3.9249,-3.9056,-3.9196,-3.907,-4.0113,-4.0113,-4.0113,-4.0113,-4.0113,-4.0113,-4.0113,-4.0113,-4.0113,-4.0113,-4.0273,-4.0899,-4.1322,-4.1694,-4.2303,-4.2878,-4.3284,-4.3504,-4.3876,-4.4513,-4.4598,-4.4598,-4.4598,-4.4598,-4.4598,-4.4598,-4.4598,-4.4598,-4.4598,-4.4598,-4.4598,-4.4598,-4.4598,-4.4598,-4.453,-4.4113,-4.3876,-4.369,-4.3386,-4.3115,-4.2811,-4.2574,-4.2303,-4.2185,-4.2151,-4.2151,-4.2185,-4.2236,-4.2303,-4.2269,-4.2236,-4.2134,-4.21,-4.2066,-4.21,-4.21,-4.1948,-4.2151,-4.2286,-4.2371,-4.2489,-4.2574,-4.2499,-4.2651,-4.2584,-4.1991,-4.1822,-4.1745,-4.1441,-4.1305,-4.1204,-4.1035,-4.0925,-4.0874,-4.0874,-4.0722,-4.0519,-4.0367,-4.0113,-4.0121,-4.0146,-4.0271,-4.037,-4.0614,-4.0758,-4.0894,-4.1035,-4.1163,-4.1255,-4.1386,-4.1445,-4.1424,-4.1323,-4.113,-4.0884,-4.0463,-4.0235,-4.02,-4.034,-4.0463,-4.0533,-4.0446,-4.0305,-4.0217,-4.0147,-3.9863,-3.9792,-3.982,-3.9886,-3.995,-4.0034,-4.0017,-4.0034,-4.0135,-4.0106,-4.0113,-4.0113,-4.0113,-4.0113,-4.0113,-4.0113,-4.0113,-4.0113,-4.0113,-4.0113,-4.0248,-4.0815,-4.117,-4.1221,-4.1796,-4.2303,-4.2557,-4.2919,-4.3426,-4.391,-4.4231,-4.4513,-4.4598,-4.4598,-4.4598,-4.4598,-4.4598,-4.4598,-4.4598,-4.4598,-4.4598,-4.4598,-4.4598,-4.4598,-4.4598,-4.4198,-4.4181,-4.4147,-4.413,-4.3639,-4.2929,-4.2608,-4.2303,-4.2354,-4.2388,-4.2472,-4.2455,-4.2405,-4.2354,-4.2286,-4.2286,-4.2269,-4.2286,-4.2337,-4.232,-4.2303,-4.2489,-4.276,-4.3014,-4.3183,-4.3335,-4.3758,-4.3938,-4.4022,-4.3735,-4.2855,-4.2381,-4.232,-4.2202,-4.21,-4.1965,-4.1796,-4.1576,-4.1576,-4.161,-4.1271,-4.095,-4.062,-4.0231,-4.0163,-4.0163,-4.0214,-4.0331,-4.0362,-4.051,-4.068,-4.0847,-4.0971,-4.1041,-4.1157,-4.1408,-4.1405,-4.1529,-4.1411,-4.1253,-4.1148,-4.0849,-4.0884,-4.1042,-4.1183,-4.1271,-4.1113,-4.0937,-4.113,-4.113,-4.0696,-4.0526,-4.0787,-4.0844,-4.0609,-4.0512,-4.0463,-4.0665,-4.0787,-4.0852,-4.0113,-4.0113,-4.0113,-4.0113,-4.0113,-4.0113,-4.0113,-4.0113,-4.0113,-4.0113,-4.0146,-4.0536,-4.0713,-4.0713,-4.1153,-4.1627,-4.1813,-4.2202,-4.2834,-4.3392,-4.3775,-4.4231,-4.4384,-4.4547,-4.4598,-4.4598,-4.4598,-4.4598,-4.4598,-4.4598,-4.4598,-4.4598,-4.4598,-4.4598,-4.4598,-4.4598,-4.4598,-4.4581,-4.4598,-4.4073,-4.3217,-4.3234,-4.3301,-4.3328,-4.3311,-4.3278,-4.3328,-4.3318,-4.3318,-4.3335,-4.3403,-4.342,-4.3453,-4.3481,-4.3413,-4.3369,-4.3436,-4.3487,-4.3775,-4.3961,-4.4079,-4.4445,-4.4598,-4.4395,-4.4412,-4.365,-4.3599,-4.3487,-4.298,-4.2811,-4.2608,-4.2439,-4.1796,-4.1542,-4.1745,-4.1728,-4.1508,-4.1288,-4.0933,-4.0713,-4.0713,-4.0739,-4.0671,-4.0307,-4.0415,-4.0362,-4.0558,-4.0796,-4.0875,-4.1099,-4.1296,-4.1431,-4.152,-4.1582,-4.1481,-4.1446,-4.1411,-4.1534,-4.1604,-4.1534,-4.1446,-4.1516,-4.1569,-4.1512,-4.145,-4.1286,-4.123,-4.1203,-4.1134,-4.0839,-4.0868,-4.0926,-4.1117,-4.1203,-4.1047,-4.0113,-4.0113,-4.0113,-4.0113,-4.0113,-4.0113,-4.0113,-4.0113,-4.0113,-4.0113,-4.0113,-4.013,-4.0113,-4.0113,-4.013,-4.0561,-4.1001,-4.1457,-4.2185,-4.2699,-4.3122,-4.3639,-4.4062,-4.435,-4.4401,-4.453,-4.4598,-4.4598,-4.4598,-4.4598,-4.4598,-4.4598,-4.4598,-4.4598,-4.4598,-4.4598,-4.4598,-4.4598,-4.4598,-4.4598,-4.4547,-4.4598,-4.4445,-4.4496,-4.4598,-4.4598,-4.4598,-4.4581,-4.4564,-4.4496,-4.4344,-4.431,-4.4293,-4.4242,-4.431,-4.4276,-4.4225,-4.4327,-4.4479,-4.4445,-4.4513,-4.4598,-4.4598,-4.4598,-4.4598,-4.4564,-4.4513,-4.4248,-4.3741,-4.3504,-4.3301,-4.3064,-4.2371,-4.1931,-4.2202,-4.2303,-4.2151,-4.1965,-4.1644,-4.1356,-4.1339,-4.1339,-4.1085,-4.0688,-4.0527,-4.0417,-4.0467,-4.0557,-4.0805,-4.1181,-4.1476,-4.1475,-4.1475,-4.1538,-4.1582,-4.1604,-4.1604,-4.1604,-4.1604,-4.1604,-4.1604,-4.1604,-4.1582,-4.1542,-4.1475,-4.1318,-4.1157,-4.1018,-4.0965,-4.0918,-4.0871,-4.083,-4.0871,-4.0918,-4.0894,-4.0113,-4.0113,-4.0113,-4.0113,-4.0113,-4.0113,-4.0113,-4.0113,-4.0113,-4.0113,-4.0113,-4.0113,-4.0113,-4.0113,-4.0113,-4.0316,-4.0502,-4.0865,-4.1153,-4.161,-4.2439,-4.3031,-4.3606,-4.413,-4.4147,-4.435,-4.4598,-4.4598,-4.4598,-4.4598,-4.4598,-4.4598,-4.4598,-4.4598,-4.4598,-4.4598,-4.4598,-4.4598,-4.4598,-4.4598,-4.4598,-4.4598,-4.4598,-4.4598,-4.4598,-4.4598,-4.4598,-4.4598,-4.4598,-4.4598,-4.4598,-4.4598,-4.4598,-4.4598,-4.4598,-4.4598,-4.4598,-4.4598,-4.4598,-4.4598,-4.4598,-4.4598,-4.4598,-4.4598,-4.4598,-4.4598,-4.4564,-4.4564,-4.4215,-4.4215,-4.4079,-4.4079,-4.3667,-4.3436,-4.3504,-4.32,-4.2946,-4.2625,-4.2286,-4.2151,-4.21,-4.21,-4.2033,-4.1762,-4.1644,-4.1611,-4.1629,-4.1673,-4.1416,-4.1567,-4.1693,-4.1627,-4.1553,-4.1538,-4.1604,-4.1604,-4.1604,-4.1604,-4.1604,-4.1604,-4.1604,-4.1604,-4.1565,-4.1565,-4.1408,-4.1209,-4.1065,-4.0871,-4.0758,-4.0704,-4.0631,-4.0607,-4.0648,-4.0648,-4.0631]},{"header":{"parameterUnit":"m.s-1","parameterCategory":1,"la1":31.0,"la2":29.5877,"lo1":-88.7671,"lo2":-86.6584,"dy":0.0162,"dx":0.0185,"nx":115,"ny":88,"refTime":"2023-03-21T12:00:00:Z","depth":0,"parameterNumber":3,"parameterNumberName":"V-component_of_WINDS"},"data":[0.0,0.0,0.0,0.0,0.0,0.0,0.0,0.0,0.0,0.0,0.0,0.0,0.0,0.0,0.0,0.0,0.0,0.0,0.0,0.0,0.0,0.0,0.0,0.0,0.0,0.0,0.0,0.0,0.0,0.0,0.0,0.0,0.0,0.0,0.0,0.0,0.0,0.0,0.0,0.0,0.0,0.0,0.0,0.0,0.0,0.0,0.0,0.0,0.0,0.0,0.0,0.0,0.0,0.0,0.0,0.0,0.0,0.0,0.0,0.0,0.0,0.0,0.0,0.0,0.0,0.0,0.0,0.0,0.0,0.0,0.0,0.0,0.0,0.0,0.0,0.0,0.0,0.0,0.0,0.0,0.0,0.0,0.0,0.0,0.0,0.0,0.0,0.0,0.0,0.0,0.0,0.0,0.0,0.0,0.0,0.0,0.0,0.0,0.0,0.0,0.0,0.0,0.0,0.0,0.0,0.0,0.0,0.0,0.0,0.0,0.0,0.0,0.0,0.0,0.0,0.0,0.0,0.0,0.0,0.0,0.0,0.0,0.0,0.0,0.0,0.0,0.0,0.0,0.0,0.0,0.0,0.0,0.0,0.0,0.0,0.0,0.0,0.0,0.0,0.0,0.0,0.0,0.0,0.0,0.0,0.0,0.0,0.0,0.0,0.0,0.0,0.0,0.0,0.0,0.0,0.0,0.0,0.0,0.0,0.0,0.0,0.0,0.0,0.0,0.0,0.0,0.0,0.0,0.0,0.0,0.0,0.0,0.0,0.0,0.0,0.0,0.0,0.0,0.0,0.0,0.0,0.0,0.0,0.0,0.0,0.0,0.0,0.0,0.0,0.0,0.0,0.0,0.0,0.0,0.0,0.0,0.0,0.0,0.0,0.0,0.0,0.0,0.0,0.0,0.0,0.0,0.0,0.0,0.0,0.0,0.0,0.0,0.0,0.0,0.0,0.0,0.0,0.0,0.0,0.0,0.0,0.0,0.0,0.0,0.0,0.0,0.0,0.0,0.0,0.0,0.0,0.0,0.0,0.0,0.0,0.0,0.0,0.0,0.0,0.0,0.0,0.0,0.0,0.0,0.0,0.0,0.0,0.0,0.0,0.0,0.0,0.0,0.0,0.0,0.0,0.0,0.0,0.0,0.0,0.0,0.0,0.0,0.0,0.0,0.0,0.0,0.0,0.0,0.0,0.0,0.0,0.0,0.0,0.0,0.0,0.0,0.0,0.0,0.0,0.0,0.0,0.0,0.0,0.0,0.0,0.0,0.0,0.0,0.0,0.0,0.0,0.0,0.0,0.0,0.0,0.0,0.0,0.0,0.0,0.0,0.0,0.0,0.0,0.0,0.0,0.0,0.0,0.0,0.0,0.0,0.0,0.0,0.0,0.0,0.0,0.0,0.0,0.0,0.0,0.0,0.0,0.0,0.0,0.0,0.0,0.0,0.0,0.0,0.0,0.0,0.0,0.0,0.0,0.0,0.0,0.0,0.0,0.0,0.0,0.0,0.0,0.0,0.0,0.0,0.0,0.0,0.0,0.0,0.0,0.0,0.0,0.0,0.0,0.0,0.0,0.0,0.0,0.0,0.0,0.0,0.0,0.0,0.0,0.0,0.0,0.0,0.0,0.0,0.0,0.0,0.0,0.0,0.0,0.0,0.0,0.0,0.0,0.0,0.0,0.0,0.0,0.0,0.0,0.0,0.0,0.0,0.0,0.0,0.0,0.0,0.0,0.0,0.0,0.0,0.0,0.0,0.0,0.0,0.0,0.0,0.0,0.0,0.0,0.0,0.0,0.0,0.0,0.0,0.0,0.0,0.0,0.0,0.0,0.0,0.0,0.0,0.0,0.0,0.0,0.0,0.0,0.0,0.0,0.0,0.0,0.0,0.0,0.0,0.0,0.0,0.0,0.0,0.0,0.0,0.0,0.0,0.0,0.0,0.0,0.0,0.0,0.0,0.0,0.0,0.0,0.0,0.0,0.0,0.0,0.0,0.0,0.0,0.0,0.0,0.0,0.0,0.0,0.0,0.0,0.0,0.0,0.0,0.0,0.0,0.0,0.0,0.0,0.0,0.0,0.0,0.0,0.0,0.0,0.0,0.0,0.0,0.0,0.0,0.0,0.0,0.0,0.0,0.0,0.0,0.0,0.0,0.0,0.0,0.0,0.0,0.0,0.0,0.0,0.0,0.0,0.0,0.0,0.0,0.0,0.0,0.0,0.0,0.0,0.0,0.0,0.0,0.0,0.0,0.0,0.0,0.0,0.0,0.0,0.0,0.0,0.0,0.0,0.0,0.0,0.0,0.0,0.0,0.0,0.0,0.0,0.0,0.0,0.0,0.0,0.0,0.0,0.0,0.0,0.0,0.0,0.0,0.0,0.0,0.0,0.0,0.0,0.0,0.0,0.0,0.0,0.0,0.0,0.0,0.0,0.0,0.0,0.0,0.0,0.0,0.0,0.0,0.0,0.0,0.0,0.0,0.0,0.0,0.0,0.0,0.0,0.0,0.0,0.0,0.0,0.0,0.0,0.0,0.0,0.0,0.0,0.0,0.0,0.0,0.0,0.0,0.0,0.0,0.0,0.0,0.0,0.0,0.0,0.0,0.0,0.0,0.0,0.0,0.0,0.0,0.0,0.0,0.0,0.0,0.0,0.0,0.0,0.0,0.0,0.0,0.0,0.0,0.0,0.0,0.0,0.0,0.0,0.0,0.0,0.0,0.0,0.0,0.0,0.0,0.0,0.0,0.0,0.0,0.0,0.0,0.0,0.0,0.0,0.0,0.0,0.0,0.0,0.0,0.0,0.0,0.0,0.0,0.0,0.0,0.0,0.0,0.0,0.0,0.0,0.0,0.0,0.0,0.0,0.0,0.0,0.0,0.0,0.0,0.0,0.0,0.0,0.0,0.0,0.0,0.0,0.0,0.0,0.0,0.0,0.0,0.0,0.0,0.0,0.0,0.0,0.0,0.0,0.0,0.0,0.0,0.0,0.0,0.0,0.0,0.0,0.0,0.0,0.0,0.0,0.0,0.0,0.0,0.0,0.0,0.0,0.0,0.0,0.0,0.0,0.0,0.0,0.0,0.0,0.0,0.0,0.0,0.0,0.0,0.0,0.0,0.0,0.0,0.0,0.0,0.0,0.0,0.0,0.0,0.0,0.0,0.0,0.0,0.0,0.0,0.0,0.0,0.0,0.0,0.0,0.0,0.0,0.0,0.0,0.0,0.0,0.0,0.0,0.0,0.0,0.0,0.0,0.0,0.0,0.0,0.0,0.0,0.0,0.0,0.0,0.0,0.0,0.0,0.0,0.0,0.0,0.0,0.0,0.0,0.0,0.0,0.0,0.0,0.0,0.0,0.0,0.0,0.0,0.0,0.0,0.0,0.0,0.0,0.0,0.0,0.0,0.0,0.0,0.0,0.0,0.0,0.0,0.0,0.0,0.0,0.0,0.0,0.0,0.0,0.0,0.0,0.0,0.0,0.0,0.0,0.0,0.0,0.0,0.0,0.0,0.0,0.0,0.0,0.0,0.0,0.0,0.0,0.0,0.0,0.0,0.0,0.0,0.0,0.0,0.0,0.0,0.0,0.0,0.0,0.0,0.0,0.0,0.0,0.0,0.0,0.0,0.0,0.0,0.0,0.0,0.0,0.0,0.0,0.0,0.0,0.0,0.0,0.0,0.0,0.0,0.0,0.0,0.0,0.0,0.0,0.0,0.0,0.0,0.0,0.0,0.0,0.0,0.0,0.0,0.0,0.0,0.0,0.0,0.0,0.0,0.0,0.0,0.0,0.0,0.0,0.0,0.0,0.0,0.0,0.0,0.0,0.0,0.0,0.0,0.0,0.0,0.0,0.0,0.0,0.0,0.0,0.0,0.0,0.0,0.0,0.0,0.0,0.0,0.0,0.0,0.0,0.0,0.0,0.0,0.0,0.0,0.0,0.0,0.0,0.0,0.0,0.0,0.0,0.0,0.0,0.0,0.0,0.0,0.0,0.0,0.0,0.0,0.0,0.0,0.0,0.0,0.0,0.0,0.0,0.0,0.0,0.0,0.0,0.0,0.0,0.0,0.0,0.0,0.0,0.0,0.0,0.0,0.0,0.0,0.0,0.0,0.0,0.0,0.0,0.0,0.0,0.0,0.0,0.0,0.0,0.0,0.0,0.0,0.0,0.0,0.0,0.0,0.0,0.0,0.0,0.0,0.0,0.0,0.0,0.0,0.0,0.0,0.0,0.0,0.0,0.0,0.0,0.0,0.0,0.0,0.0,0.0,0.0,0.8893,0.0,0.0,0.0,0.0,0.0,0.0,0.0,0.0,0.0,0.0,0.0,0.0,0.0,0.0,0.0,0.0,0.0,0.0,0.0,0.0,0.0,0.0,0.0,0.0,0.0,0.0,0.0,0.0,0.0,0.0,0.0,0.0,0.0,0.0,0.0,0.0,0.0,0.0,0.0,0.0,0.0,0.0,0.0,0.0,0.0,0.0,0.0,0.0,0.0,0.0,0.0,0.0,0.0,0.0,0.0,0.0,0.0,0.0,0.0,0.0,0.0,0.0,0.0,0.0,0.0,0.0,0.0,0.0,0.0,0.0,0.0,0.0,0.0,0.0,0.0,0.0,0.0,0.0,0.0,0.0,0.0,0.0,0.0,0.0,0.0,0.0,0.0,0.0,0.0,0.0,0.0,0.0,0.0,0.0,0.0,0.0,0.0,0.0,0.0,0.0,0.0,0.0,0.0,0.0,0.0,0.0,0.0,0.0,0.0,0.0,0.7593,0.7754,0.8163,0.8617,0.911,0.0,0.0,0.0,0.0,0.0,0.0,0.0,0.0,0.0,0.0,0.0,0.0,0.0,0.0,0.0,0.0,0.0,0.0,0.0,0.0,0.0,0.0,0.0,0.0,0.0,0.0,0.0,0.0,0.0,0.0,0.0,0.0,0.0,0.0,0.0,0.0,0.0,0.0,0.0,0.0,0.0,0.0,0.0,0.0,0.0,0.0,0.0,0.0,0.0,0.0,0.0,0.0,0.0,0.0,0.0,0.0,0.0,0.0,0.0,0.0,0.0,0.0,0.0,0.0,0.0,0.0,0.0,0.0,0.0,0.0,0.0,0.0,0.0,0.0,0.0,0.0,0.0,0.0,0.0,0.0,0.0,0.0,0.0,0.0,0.0,0.0,0.0,0.0,0.0,0.0,0.0,0.0,0.0,0.0,0.0,0.0,0.0,0.0,0.0,0.0,0.0,0.0,0.0,0.0,0.0,0.0,0.0,0.0,0.0,0.0,0.0,0.0,0.8491,0.8989,0.9493,0.0,0.0,0.0,0.0,0.0,0.0,0.0,0.0,0.0,0.0,0.0,0.0,0.0,0.0,0.0,0.0,0.0,0.0,0.0,0.0,0.0,0.0,0.0,0.0,0.0,0.0,0.0,0.0,0.0,0.0,0.0,0.0,0.0,0.0,0.0,0.0,0.0,0.0,0.0,0.0,0.0,0.0,0.0,0.0,0.0,0.0,0.0,0.0,0.0,0.0,0.0,0.0,0.0,0.0,0.0,0.0,0.0,0.0,0.0,0.0,0.0,0.0,0.0,0.0,0.0,0.0,0.0,0.0,0.0,0.0,0.0,0.0,0.0,0.0,0.0,0.0,0.0,0.0,0.0,0.0,0.0,0.0,0.0,0.0,0.0,0.0,0.0,0.0,0.0,0.0,0.0,0.0,0.0,0.0,0.0,0.0,0.0,0.0,0.0,0.0,0.0,0.0,0.0,0.0,0.0,0.0,0.0,0.0,0.0,0.0,0.7891,0.852,0.8596,0.0,1.034,0.0,0.0,0.0,0.0,0.0,0.0,0.0,0.0,0.0,0.0,0.0,0.0,0.0,0.0,0.0,0.0,0.0,0.0,0.0,0.0,0.0,0.0,0.0,0.0,0.0,0.0,0.0,0.0,0.0,0.0,0.0,0.0,0.0,0.0,0.0,0.0,0.0,0.0,0.0,0.0,0.0,0.0,0.0,0.0,0.0,0.0,0.0,0.0,0.0,0.0,0.0,0.0,0.0,0.0,0.0,0.0,0.0,0.0,0.0,0.0,0.0,0.0,0.0,0.0,0.0,0.0,0.0,0.0,0.0,0.0,0.0,0.0,0.0,0.0,0.0,0.0,0.0,0.0,0.0,0.0,0.0,0.0,0.0,0.0,0.0,0.0,0.0,0.0,0.0,0.0,0.0,0.0,0.0,0.0,0.0,0.0,0.0,0.0,0.0,0.0,0.0,0.0,0.0,0.0,0.0,0.0,0.0,0.0,0.0,0.0,0.8236,0.8601,0.9279,1.0099,0.0,0.0,0.0,0.0,0.0,0.0,0.0,0.0,0.0,0.0,0.0,0.0,0.0,0.0,0.0,0.0,0.0,0.0,0.0,0.0,0.0,0.0,0.0,0.0,0.0,0.0,0.0,0.0,0.0,0.0,0.0,0.0,0.0,0.0,0.0,0.0,0.0,0.0,0.0,0.0,0.0,0.0,0.0,0.0,0.0,0.0,0.0,0.0,0.0,0.0,0.0,0.0,0.0,0.0,0.0,0.0,0.0,0.0,0.0,0.0,0.0,0.0,0.0,0.0,0.0,0.0,0.0,0.0,0.0,0.0,0.0,0.0,0.0,0.0,0.0,0.0,0.0,0.0,0.0,0.0,0.0,0.0,0.0,0.0,0.0,0.0,0.0,0.0,0.0,0.0,0.0,0.0,0.0,0.0,0.0,0.0,0.0,0.0,0.0,0.0,0.0,0.0,0.0,0.0,0.0,0.0,0.0,0.0,0.0,0.0,0.8315,0.8717,0.8999,1.0008,1.0798,1.1335,0.0,0.0,0.0,0.0,0.0,0.0,0.0,0.0,0.0,0.0,0.0,0.0,0.0,0.0,0.0,0.0,0.0,0.0,0.0,0.0,0.0,0.0,0.0,0.0,0.0,0.0,0.0,0.0,0.0,0.0,0.0,0.0,0.0,0.0,0.0,0.0,0.0,0.0,0.0,0.0,0.0,0.0,0.0,0.0,0.0,0.0,0.0,0.0,0.0,0.0,0.0,0.0,0.0,0.0,0.0,0.0,0.0,0.0,0.0,0.0,0.0,0.0,0.0,0.0,0.0,0.0,0.0,0.0,0.0,0.0,0.0,0.0,0.0,0.0,0.0,0.0,0.0,0.0,0.0,0.0,0.0,0.0,0.0,0.0,0.0,0.0,0.0,0.0,0.0,0.0,0.0,0.0,0.0,0.0,0.0,0.0,0.0,0.0,0.0,0.0,0.0,0.0,0.0,0.0,0.0,0.0,0.0,0.0,0.8653,0.887,0.9291,0.9922,1.0563,1.0981,0.0,0.0,0.0,0.0,0.0,0.0,0.0,0.0,0.0,0.0,0.0,0.0,0.0,0.0,0.0,0.0,0.0,0.0,0.0,0.0,0.0,0.0,0.0,0.0,0.0,0.0,0.0,0.0,0.0,0.0,0.0,0.0,0.0,0.0,0.0,0.0,0.0,0.0,0.0,0.0,0.0,0.0,0.0,0.0,0.0,0.0,0.0,0.0,0.0,0.0,0.0,0.0,0.0,0.0,0.0,0.0,0.0,0.0,0.0,0.0,0.0,0.0,0.0,0.0,0.0,0.0,0.0,0.0,0.0,0.0,0.0,0.0,0.0,0.0,0.0,0.0,0.0,0.0,0.0,0.0,0.0,0.0,0.0,0.0,0.0,0.0,0.0,0.0,0.0,0.0,0.0,0.0,0.0,0.0,0.0,0.0,0.0,0.0,0.0,0.0,0.0,0.0,0.0,0.0,0.0,0.0,0.0,0.0,0.0,0.8843,0.9285,0.979,1.036,1.0673,1.0947,0.0,0.0,0.0,0.0,0.0,0.0,0.0,0.0,0.0,0.0,0.0,0.0,0.0,0.0,0.0,0.0,0.0,0.0,0.0,0.0,0.0,0.0,0.0,0.0,0.0,0.0,0.0,0.0,0.0,0.0,0.0,0.0,0.0,0.0,0.0,0.0,0.0,0.0,0.0,0.0,0.0,0.0,0.0,0.0,0.0,0.0,0.0,0.0,0.0,0.0,0.0,0.0,0.0,0.0,0.0,0.0,0.0,0.0,0.0,0.0,0.0,0.0,0.0,0.0,0.0,0.0,0.0,0.0,0.0,0.0,0.0,0.0,0.0,0.0,0.0,0.0,0.0,0.0,0.0,0.0,0.0,0.0,0.0,0.0,0.0,0.0,0.0,0.0,0.0,0.0,0.0,0.0,0.0,0.0,0.0,0.0,0.0,0.0,0.0,0.0,0.0,0.0,0.0,0.0,0.0,0.0,0.0,0.0,0.0,0.9372,0.0,1.0141,1.0524,1.0659,1.0822,0.0,0.0,0.0,0.0,0.0,0.0,0.0,0.0,0.0,0.0,0.0,0.0,0.0,0.0,0.0,0.0,0.0,0.0,0.0,0.0,0.0,0.0,0.0,0.0,0.0,0.0,0.0,0.0,0.0,0.0,0.0,0.0,0.0,0.0,0.0,0.0,0.0,0.0,0.0,0.0,0.0,0.0,0.0,0.0,0.0,0.0,0.0,0.0,0.0,0.0,0.0,0.0,0.0,0.0,0.0,0.0,0.0,0.0,0.0,0.0,0.0,0.0,0.0,0.0,0.0,0.0,0.0,0.0,0.0,0.0,0.0,0.0,0.0,0.0,0.0,0.0,0.0,0.0,0.0,0.0,0.0,0.0,0.0,0.0,0.0,0.0,0.0,0.0,0.0,0.0,0.0,0.0,0.0,0.0,0.0,0.0,0.0,0.0,0.0,0.0,0.0,0.0,0.0,0.0,0.0,0.0,0.0,0.0,1.0147,1.0293,1.0283,1.0322,1.0399,1.0515,1.0697,0.0,0.0,0.0,0.0,0.0,0.0,0.0,0.0,0.0,0.0,0.0,0.0,0.0,0.0,0.0,0.0,0.0,0.0,0.0,0.0,0.0,0.0,0.0,0.0,0.0,0.0,0.0,0.0,0.0,0.0,0.0,0.0,0.0,0.0,0.0,0.0,0.0,0.0,0.0,0.0,0.0,0.0,0.0,0.0,0.0,0.0,0.0,0.0,0.0,0.0,0.0,0.0,0.0,0.0,0.0,0.0,0.0,0.0,0.0,0.0,0.0,0.0,0.0,0.0,0.0,0.0,0.0,0.0,0.0,0.0,0.0,0.0,0.0,0.0,0.0,0.0,0.0,0.0,0.0,0.0,0.0,0.0,0.0,0.0,0.0,0.0,0.0,0.0,0.0,0.0,0.0,0.0,0.0,0.0,0.0,0.0,0.0,0.0,0.0,0.0,0.0,0.0,0.0,0.0,0.0,0.0,0.0,0.0,0.0,1.0312,1.0322,1.0332,1.0399,1.0525,1.0678,0.0,0.0,0.0,0.0,0.0,0.0,0.0,0.0,0.0,0.0,0.0,0.0,0.0,0.0,0.0,0.0,0.0,0.0,0.0,0.0,0.0,0.0,0.0,0.0,0.0,0.0,0.0,0.0,0.0,0.0,0.0,0.0,0.0,0.0,0.0,0.0,0.0,0.0,0.0,0.0,0.0,0.0,0.0,0.0,0.0,0.0,0.0,0.0,0.0,0.0,0.0,0.0,0.0,0.0,0.0,0.0,0.0,0.0,0.0,0.0,0.0,0.0,0.0,0.0,0.0,0.0,0.0,0.0,0.0,0.0,0.0,0.0,0.0,0.0,0.0,0.0,0.0,0.0,0.0,0.0,0.0,0.0,0.0,0.0,0.0,0.0,0.0,0.0,0.0,0.0,0.0,0.0,0.0,0.0,0.0,0.0,0.0,0.0,0.0,0.0,0.0,0.0,0.0,0.0,0.0,0.0,0.0,0.0,0.0,1.0782,1.0782,1.0734,1.0656,1.0765,1.0812,1.0813,0.0,0.0,0.0,0.0,0.0,0.0,0.0,0.0,0.0,0.0,0.0,0.0,0.0,0.0,0.0,0.0,0.0,0.0,0.0,0.0,0.0,0.0,0.0,0.0,0.0,0.0,0.0,0.0,0.0,0.0,0.0,0.0,0.0,0.0,0.0,0.0,0.0,0.0,0.0,0.0,0.0,0.0,0.0,0.0,0.0,0.0,0.0,0.0,0.0,0.0,0.0,0.0,0.0,0.0,0.0,0.0,0.0,0.0,0.0,0.0,0.0,0.0,0.0,0.0,0.0,0.0,0.0,0.0,0.0,0.0,0.0,0.0,0.0,0.0,0.0,0.0,0.0,0.0,0.0,0.0,0.0,0.0,0.0,0.0,0.0,0.0,0.0,0.0,0.0,0.0,0.0,0.0,0.0,0.0,0.0,0.0,0.0,0.0,0.0,0.0,0.0,0.0,0.0,0.0,0.0,0.0,0.0,0.0,1.1665,1.1704,1.15,1.1132,1.1194,1.1095,0.0,0.0,0.0,0.0,0.0,0.0,0.0,0.0,0.0,0.0,0.0,0.0,0.0,0.0,0.0,0.0,0.0,0.0,0.0,0.0,0.0,0.0,0.0,0.0,0.0,0.0,0.0,0.0,0.0,0.0,0.0,0.0,0.0,0.0,0.0,0.0,0.0,0.0,0.0,0.0,0.0,0.0,0.0,0.0,0.0,0.0,0.0,0.0,0.0,0.0,0.0,0.0,0.0,0.0,0.0,0.0,0.0,0.0,0.0,0.0,0.0,0.0,0.0,0.0,0.0,0.0,0.0,0.0,0.0,0.0,0.0,0.0,0.0,0.0,0.0,0.0,0.0,0.0,0.0,0.0,0.0,0.0,0.0,0.0,0.0,0.0,0.0,0.0,0.0,0.0,0.0,0.0,0.0,0.0,0.0,0.0,0.0,0.0,0.0,0.0,0.0,0.0,0.0,0.0,0.0,0.0,0.0,0.0,0.0,1.2533,1.2842,1.2514,1.151,1.1642,1.1408,0.0,0.0,0.0,0.0,0.0,0.0,0.0,0.0,0.0,0.0,0.0,0.0,0.0,0.0,0.0,0.0,0.0,0.0,0.0,0.0,0.0,0.0,0.0,0.0,0.0,0.0,0.0,0.0,0.0,0.0,0.0,0.0,0.0,0.0,0.0,0.0,0.0,0.0,0.0,0.0,0.0,0.0,0.0,0.0,0.0,0.0,0.0,0.0,0.0,0.0,0.0,0.0,0.0,0.0,0.0,0.0,0.0,0.0,0.0,0.0,0.0,0.0,0.0,0.0,0.0,0.0,0.0,0.0,0.0,0.0,0.0,0.0,0.0,0.0,0.0,0.0,0.0,0.0,0.0,0.0,0.0,0.0,0.0,0.0,0.0,0.0,0.0,0.0,0.0,0.0,0.0,0.0,0.0,0.0,0.0,0.0,0.0,0.0,0.0,0.0,0.0,0.0,0.0,0.0,0.0,0.0,0.0,0.0,1.2126,1.3125,1.3555,1.355,1.3135,1.2723,1.2101,0.0,0.0,0.0,0.0,0.0,0.0,0.0,0.0,0.0,0.0,0.0,0.0,0.0,0.0,0.0,0.0,0.0,0.0,0.0,0.0,0.0,0.0,0.0,0.0,0.0,0.0,0.0,0.0,0.0,0.0,0.0,0.0,0.0,0.0,0.0,0.0,0.0,0.0,0.0,0.0,0.0,0.0,0.0,0.0,0.0,0.0,0.0,0.0,0.0,0.0,0.0,0.0,0.0,0.0,0.0,0.0,0.0,0.0,0.0,0.0,0.0,0.0,0.0,0.0,0.0,0.0,0.0,0.0,0.0,0.0,0.0,0.0,0.0,0.0,0.0,0.0,0.0,0.0,0.0,0.0,0.0,0.0,0.0,0.0,0.0,0.0,0.0,0.0,0.0,0.0,0.0,0.0,0.0,0.0,0.0,0.0,0.0,0.0,0.0,0.0,0.0,0.0,0.0,0.0,0.0,0.0,0.0,0.0,1.2246,1.3477,1.389,1.441,1.4987,1.4037,1.3016,0.0,0.0,0.0,0.0,0.0,0.0,0.0,0.0,0.0,0.0,0.0,0.0,0.0,0.0,0.0,0.0,0.0,0.0,0.0,0.0,0.0,0.0,0.0,0.0,0.0,0.0,0.0,0.0,0.0,0.0,0.0,0.0,0.0,0.0,0.0,0.0,0.0,0.0,0.0,0.0,0.0,0.0,0.0,0.0,0.0,0.0,0.0,0.0,0.0,0.0,0.0,0.0,0.0,0.0,0.0,0.0,0.0,0.0,0.0,0.0,0.0,0.0,0.0,0.0,0.0,0.0,0.0,0.0,0.0,0.0,0.0,0.0,0.0,0.0,0.0,0.0,0.0,0.0,0.0,0.0,0.0,0.0,0.0,0.0,0.0,0.0,0.0,0.0,0.0,0.0,0.0,0.0,0.0,0.0,0.0,0.0,0.0,0.0,0.0,0.0,0.0,0.0,0.0,0.0,0.0,0.0,0.0,0.0,1.2515,1.3477,1.3899,1.4133,1.4155,1.4077,1.3923,0.0,0.0,0.0,0.0,0.0,0.0,0.0,0.0,0.0,0.0,0.0,0.0,0.0,0.0,0.0,0.0,0.0,0.0,0.0,0.0,0.0,0.0,0.0,0.0,0.0,0.0,0.0,0.0,0.0,0.0,0.0,0.0,0.0,0.0,0.0,0.0,0.0,0.0,0.0,0.0,0.0,0.0,0.0,0.0,0.0,0.0,0.0,0.0,1.0141,0.0,0.0,0.0,0.0,0.0,0.0,0.0,0.0,0.0,0.0,0.0,0.0,0.0,0.0,0.0,0.0,0.0,0.0,0.0,0.0,0.0,0.0,0.0,0.0,0.0,0.0,0.0,0.0,0.0,0.0,0.0,0.0,0.0,0.0,0.0,0.0,0.0,0.0,0.0,0.0,0.0,0.0,0.0,0.0,0.0,0.0,0.0,0.0,0.0,0.0,0.0,0.0,0.0,0.0,0.0,0.0,0.0,0.0,0.0,1.2623,1.3477,1.373,1.4114,1.4655,1.4239,1.3856,0.0,0.0,0.0,0.0,0.0,0.0,0.0,0.0,0.0,0.0,0.0,0.0,0.0,0.0,0.0,0.0,0.0,0.0,0.0,0.0,0.0,0.0,0.0,0.0,0.0,0.0,0.0,0.0,0.0,0.0,0.0,0.0,0.0,0.0,0.0,0.0,0.0,0.0,0.0,0.0,0.0,0.0,0.0,0.0,0.0,0.0,0.0,0.0,0.0,0.0,0.0,0.0,0.0,0.0,0.0,0.0,0.0,0.0,0.0,0.0,0.0,0.0,0.0,0.0,0.0,0.0,0.0,0.0,0.0,0.0,0.0,0.0,0.0,0.0,0.0,0.0,0.0,0.0,0.0,0.0,0.0,0.0,0.0,0.0,0.0,0.0,0.0,0.0,0.0,0.0,0.0,0.0,0.0,0.0,0.0,0.0,0.0,0.0,0.0,0.0,0.0,0.0,0.0,0.0,0.0,0.0,0.0,1.2047,1.2676,1.3379,1.3477,1.4058,1.5239,1.4359,1.356,1.2986,0.0,0.0,0.0,0.0,0.0,0.0,0.0,0.0,0.0,0.0,0.0,0.0,0.0,0.0,0.0,0.0,0.0,0.0,0.0,0.0,0.0,0.0,0.0,0.0,0.0,0.0,0.0,0.0,0.0,0.0,0.0,0.0,0.0,0.0,0.0,0.0,0.0,0.0,0.7974,0.8344,0.0,0.0,0.0,0.0,0.0,0.0,0.0,0.0,1.0641,0.0,0.0,0.0,0.0,0.0,0.0,0.0,0.0,0.0,0.0,0.0,0.0,0.0,0.0,0.0,0.0,0.0,0.0,0.0,0.0,0.0,0.0,0.0,0.0,0.0,0.0,0.0,0.0,0.0,0.0,0.0,0.0,0.0,0.0,0.0,0.0,0.0,0.0,0.0,0.0,0.0,0.0,0.0,0.0,0.0,0.0,0.0,0.0,0.0,0.0,0.0,0.0,0.0,0.0,0.0,0.0,1.1606,1.2387,1.2842,1.2988,1.333,1.3636,1.3921,1.4386,1.4168,1.3228,0.0,0.0,0.0,0.0,0.0,0.0,0.0,0.0,0.0,0.0,0.0,0.0,0.0,0.0,0.0,0.0,0.0,0.0,0.0,0.0,0.0,0.0,0.0,0.0,0.0,0.0,0.0,0.0,0.0,0.0,0.0,0.0,0.0,0.0,0.0,0.0,0.0,0.0,0.0,0.8529,0.8762,0.0,0.0,0.0,0.0,0.0,0.0,0.0,0.0,1.1257,0.0,0.0,0.0,0.0,0.0,0.0,0.0,0.0,0.0,0.0,0.0,0.0,0.0,0.0,0.0,0.0,0.0,0.0,0.0,0.0,0.0,0.0,0.0,0.0,0.0,0.0,0.0,0.0,0.0,0.0,0.0,0.0,0.0,0.0,0.0,0.0,0.0,0.0,0.0,0.0,0.0,0.0,0.0,0.0,0.0,0.0,0.0,0.0,0.0,0.0,0.0,0.0,0.0,0.0,0.0,1.1616,1.223,1.2646,1.2905,1.318,1.3415,1.3597,1.3884,1.3735,0.0,0.0,0.0,0.0,0.0,0.0,0.0,0.0,0.0,0.0,0.0,0.0,0.0,0.0,0.0,0.0,0.0,0.0,0.0,0.0,0.0,0.0,0.0,0.0,0.0,0.0,0.0,0.0,0.0,0.0,0.0,0.0,0.0,0.0,0.0,0.0,0.0,0.0,0.0,0.0,0.8773,0.9044,0.9688,0.0,0.0,0.0,0.0,0.0,0.0,1.1292,1.137,0.0,0.0,0.0,0.0,0.0,0.0,0.0,0.0,0.0,0.0,0.0,0.0,0.0,0.0,0.0,0.0,0.0,0.0,0.0,0.0,0.0,0.0,0.0,0.0,0.0,0.0,0.0,0.0,0.0,0.0,0.0,0.0,0.0,0.0,0.0,0.0,0.0,0.0,0.0,0.0,0.0,0.0,0.0,0.0,0.0,0.0,0.0,0.0,0.0,0.0,0.0,0.0,0.0,0.0,0.0,1.1606,1.2002,1.2418,1.2876,1.3045,1.3249,1.3452,1.3401,1.3236,0.0,0.0,0.0,0.0,0.0,0.0,0.0,0.0,0.0,0.0,0.0,0.0,0.0,0.0,0.0,0.0,0.0,0.0,0.0,0.0,0.0,0.0,0.0,0.0,0.0,0.0,0.0,0.0,0.0,0.0,0.0,0.0,0.0,0.0,0.0,0.0,0.0,0.0,0.0,0.0,0.0,0.953,1.0205,1.043,0.0,0.0,0.0,0.0,1.1261,1.148,0.0,0.0,0.0,0.0,0.0,0.0,0.0,0.0,0.0,0.0,0.0,0.0,0.0,0.0,0.0,0.0,0.0,0.0,0.0,0.0,0.0,0.0,0.0,0.0,0.0,0.0,0.0,0.0,0.0,0.0,0.0,0.0,0.0,0.0,0.0,0.0,0.0,0.0,0.0,0.0,0.0,0.0,0.0,0.0,0.0,0.0,0.0,0.0,0.0,0.0,0.0,0.0,0.0,0.0,0.0,0.0,1.1596,1.2002,1.2418,1.2886,1.2929,1.2948,1.2975,1.3351,1.3207,0.0,0.0,0.0,0.0,0.0,0.0,0.0,0.0,0.0,0.0,0.0,0.0,0.0,0.0,0.0,0.0,0.0,0.0,0.0,0.0,0.0,0.0,0.0,0.0,0.0,0.0,0.0,0.0,0.0,0.0,0.0,0.0,0.0,0.0,0.0,0.0,0.0,0.0,0.0,0.0,0.0,1.0185,1.0283,1.0616,1.084,0.0,0.0,1.1065,1.1637,1.2425,0.0,0.0,0.0,0.0,0.0,0.0,0.0,0.0,0.0,0.0,0.0,0.0,0.0,0.0,0.0,0.0,0.0,0.0,0.0,0.0,0.0,0.0,0.0,0.0,0.0,0.0,0.0,0.0,0.0,0.0,0.0,0.0,0.0,0.0,0.0,0.0,0.0,0.0,0.0,0.0,0.0,0.0,0.0,0.0,0.0,0.0,0.0,0.0,0.0,0.0,0.0,0.0,0.0,0.0,0.0,1.0909,1.1577,1.177,1.2187,1.2876,1.3007,1.3137,1.3297,1.3554,1.3526,0.0,0.0,0.0,0.0,0.0,0.0,0.0,0.0,0.0,0.0,0.0,0.0,0.0,0.0,0.0,0.0,0.0,0.0,0.0,0.0,0.0,0.0,0.0,0.0,0.0,0.0,0.0,0.0,0.0,0.0,0.0,0.0,0.0,0.0,0.0,0.0,0.0,0.0,0.0,0.0,0.0,0.0,1.0322,1.087,0.0,0.0,0.0,1.1691,1.1828,0.0,0.0,0.0,0.0,0.0,0.0,0.0,0.0,0.0,0.0,0.0,0.0,0.0,0.0,0.0,0.0,0.0,0.0,0.0,0.0,0.0,0.0,0.0,0.0,0.0,0.0,0.0,0.0,0.0,0.0,0.0,0.0,0.0,0.0,0.0,0.0,0.0,0.0,0.0,0.0,0.0,0.0,0.0,0.0,0.0,0.0,0.0,0.0,0.0,0.0,0.0,0.0,0.0,0.0,0.0,0.0,0.0,1.1565,1.1692,1.2132,1.2866,1.3055,1.3178,1.3314,1.3592,0.0,0.0,0.0,0.0,0.0,0.0,0.0,0.0,0.0,0.0,0.0,0.0,0.0,0.0,0.0,0.0,0.0,0.0,0.0,0.0,0.0,0.0,0.0,0.0,0.0,0.0,0.0,0.9426,0.0,0.0,0.0,0.0,0.0,0.0,0.0,0.0,0.0,0.0,0.0,0.0,0.0,0.0,1.0616,1.0616,1.1271,1.1633,0.0,0.0,1.2188,1.2108,1.2564,1.284,0.0,0.0,0.0,0.0,0.0,0.0,0.0,0.0,0.0,0.0,0.0,0.0,0.0,0.0,0.0,0.0,0.0,0.0,0.0,0.0,0.0,0.0,0.0,0.0,0.0,0.0,0.0,0.0,0.0,0.0,0.0,0.0,0.0,0.0,0.0,0.0,0.0,0.0,0.0,0.0,0.0,0.0,0.0,0.0,0.0,0.0,0.0,0.0,0.0,0.0,0.0,0.0,0.0,0.0,0.0,1.1596,1.1973,1.2402,1.2886,1.2905,1.2805,1.2586,1.3263,1.3263,0.0,0.0,0.0,0.0,0.0,0.0,0.0,0.0,0.0,0.0,0.0,0.0,0.0,0.0,0.0,0.0,0.0,0.0,0.0,0.0,0.0,0.0,0.0,0.0,0.0,0.0,0.0,0.0,0.0,0.0,0.0,0.0,0.0,0.0,0.0,0.0,0.0,0.0,0.0,0.0,0.0,1.1518,1.1518,1.1885,1.2155,0.0,0.0,1.2296,1.261,1.3464,1.3803,1.2983,0.0,0.0,0.0,0.0,0.0,0.0,0.0,0.0,0.0,0.0,0.0,0.0,0.0,0.0,0.0,0.0,0.0,0.0,0.0,0.0,0.0,0.0,0.0,0.0,0.0,0.0,0.0,0.0,0.0,0.0,0.0,0.0,0.0,0.0,0.0,0.0,0.0,0.0,0.0,0.0,0.0,0.0,0.0,0.0,0.0,0.0,0.0,0.0,0.0,0.0,0.0,0.0,0.0,1.127,1.1953,1.2116,1.2441,1.2886,1.2915,1.2904,1.2929,1.329,1.3408,0.0,0.0,0.0,0.0,0.0,0.0,0.0,0.0,0.0,0.0,0.0,0.0,0.0,0.0,0.0,0.0,0.0,0.0,0.0,0.0,0.0,0.0,0.0,0.0,0.0,0.0,0.0,0.0,1.0341,1.042,1.0312,0.0,0.0,0.0,0.0,0.0,0.0,0.0,0.0,0.0,0.0,1.1875,1.1655,1.2191,0.0,0.0,1.2652,1.2954,1.2833,1.3338,1.3601,1.3107,1.2812,0.0,0.0,0.0,0.0,0.0,0.0,0.0,0.0,0.0,0.0,0.0,0.0,0.0,0.0,0.0,0.0,0.0,0.0,0.0,0.0,0.0,0.0,0.0,0.0,0.0,0.0,0.0,0.0,0.0,0.0,0.0,0.0,0.0,0.0,0.0,0.0,0.0,0.0,0.0,0.0,0.0,0.0,0.0,0.0,0.0,0.0,0.0,0.0,0.0,0.0,0.0,0.0,1.1611,1.2203,1.234,1.2578,1.2895,1.2915,1.2968,1.3108,1.3276,1.3467,0.0,0.0,0.0,0.0,0.0,0.0,0.0,0.0,0.0,0.0,0.0,0.0,0.0,0.0,0.0,0.0,0.0,0.0,0.0,0.0,0.0,0.0,0.0,0.0,0.0,0.0,0.0,0.0,1.0665,1.0605,1.0332,0.0,0.0,0.0,0.0,0.0,0.0,0.0,0.0,0.0,0.0,1.2145,1.2015,1.2514,1.2773,1.24,1.2881,1.3163,1.2822,1.3001,1.3186,1.3145,0.0,0.0,0.0,0.0,0.0,0.0,0.0,0.0,0.0,0.0,0.0,0.0,0.0,0.0,0.0,0.0,0.0,0.0,0.0,0.0,0.0,0.0,0.0,0.0,0.0,0.0,0.0,0.0,0.0,0.0,1.1604,0.0,0.0,0.0,0.0,0.0,0.0,0.0,0.0,0.0,0.0,0.0,0.0,0.0,0.0,0.0,0.0,0.0,0.0,0.0,0.0,0.0,0.0,1.2174,1.2213,1.2646,1.2895,1.2915,1.2915,1.2905,1.2929,1.3118,1.3266,1.3409,0.0,0.0,0.0,0.0,0.0,0.0,0.0,0.0,0.0,0.0,0.0,0.0,0.0,0.0,0.0,0.0,0.0,0.0,0.0,0.0,0.0,0.0,0.0,0.0,0.0,0.0,1.0937,1.0547,1.0332,0.0,0.0,0.0,0.0,0.0,0.0,0.0,0.0,0.0,0.0,1.2171,1.2359,1.2807,1.2871,1.2847,1.2706,1.271,1.2695,1.2563,1.2548,1.2706,0.0,0.0,0.0,0.0,0.0,0.0,0.0,0.0,0.0,0.0,0.0,0.0,0.0,0.0,0.0,0.0,0.0,0.0,0.0,0.0,0.0,0.0,0.0,0.0,0.0,0.0,0.0,1.1318,1.1982,0.0,0.0,0.0,0.0,0.0,0.0,0.0,0.0,0.0,0.0,0.0,1.3311,1.3558,0.0,0.0,0.0,0.0,0.0,0.0,0.0,0.0,0.0,0.0,0.0,0.0,1.235,1.2656,1.2827,1.2915,1.2915,1.2915,1.2915,1.2915,1.3084,1.3266,1.3396,0.0,0.0,0.0,0.0,0.0,0.0,0.0,0.0,0.0,0.0,0.0,0.0,0.0,0.0,0.0,0.0,0.0,0.0,0.0,0.0,0.0,0.0,0.0,0.0,0.0,1.1826,0.0,0.0,0.0,0.0,0.0,0.0,0.0,0.0,0.0,0.0,0.0,1.1882,1.2164,1.2457,1.2691,1.2754,1.2759,1.2749,0.0,0.0,0.0,0.0,0.0,0.0,0.0,0.0,0.0,0.0,0.0,0.0,0.0,0.0,1.2307,1.2359,1.2333,1.2291,1.2162,0.0,0.0,0.0,0.0,0.0,0.0,0.0,0.0,0.0,0.0,0.0,0.0,0.0,0.0,1.1866,0.0,1.2437,0.0,0.0,0.0,0.0,0.0,0.0,0.0,0.0,1.3379,1.374,1.416,1.4124,1.4124,0.0,1.3695,1.3198,0.0,0.0,0.0,0.0,0.0,0.0,0.0,0.0,1.271,1.3281,1.3164,1.3174,1.3301,1.3199,1.3052,1.2915,1.3094,1.329,1.3467,1.3597,1.3486,0.0,0.0,0.0,0.0,0.0,0.0,0.0,0.0,0.0,0.0,0.0,0.0,0.0,0.0,0.0,0.0,0.0,0.0,0.0,0.0,0.0,0.0,0.0,1.2109,0.0,0.0,0.0,0.0,0.0,0.0,0.0,0.0,0.0,1.1611,1.194,1.2311,1.2613,1.2793,1.2856,1.27,0.0,0.0,0.0,0.0,0.0,0.0,0.0,1.3114,1.3244,1.3423,1.3488,1.3368,1.3118,1.2959,1.3052,0.0,0.0,1.2885,1.2858,1.2831,1.2693,1.2665,1.2481,1.1983,1.193,1.1771,0.0,0.0,0.0,0.0,0.0,0.0,0.0,0.0,1.2634,1.2765,0.0,1.2935,0.0,0.0,0.0,0.0,0.0,1.2935,0.0,0.0,1.3594,1.4228,1.5312,1.4591,1.4621,1.5342,1.4153,1.3594,1.3555,1.3135,0.0,0.0,0.0,0.0,0.0,0.0,1.3291,1.4016,1.3691,1.3675,1.4036,1.3685,1.3301,1.2925,1.3084,1.33,1.3549,1.3467,1.3505,1.3739,1.3042,0.0,0.0,0.0,0.0,0.0,0.0,0.0,0.0,0.0,0.0,0.0,0.0,0.0,0.0,0.0,0.0,0.0,0.0,0.0,0.0,1.2233,0.0,0.0,0.0,0.0,0.0,0.0,0.0,0.0,0.0,0.0,1.2915,1.2535,1.2554,1.3408,0.0,0.0,0.0,0.0,1.2769,1.2884,1.2924,1.2924,1.2978,1.3004,1.3139,1.3526,0.0,0.0,1.3616,1.3385,1.322,1.3191,1.3104,1.2935,1.2713,1.2689,1.2633,1.2513,1.2503,1.246,1.2434,1.2474,1.2452,1.4873,0.0,0.0,0.0,0.0,1.304,1.3442,1.4018,1.3753,1.3916,1.4209,1.3594,0.0,0.0,0.0,0.0,0.0,0.0,1.3721,1.4424,1.4727,1.5225,1.5909,1.5927,1.6083,1.6287,1.5342,1.4835,1.4834,1.4104,1.3408,1.2705,0.0,0.0,0.0,0.0,1.3145,1.3643,1.3564,1.3564,1.3656,1.3574,1.3311,1.2915,1.2968,1.3017,1.3089,1.3382,1.343,1.3162,1.327,0.0,0.0,0.0,0.0,0.0,0.0,0.0,0.0,0.0,0.0,0.0,0.0,0.0,0.0,0.0,0.0,0.0,0.0,0.0,1.2666,1.2695,1.2578,0.0,0.0,0.0,0.0,0.0,0.0,0.0,0.0,0.0,1.417,1.3603,1.334,0.0,0.0,1.3561,1.343,1.322,1.3045,1.3102,1.2959,0.0,1.2977,1.3163,1.3329,1.3444,1.3626,1.3744,1.3744,1.3565,1.3416,1.3416,1.3386,1.3314,1.3279,1.3244,1.3236,1.3185,1.3185,1.31,1.2906,1.2866,1.2745,1.7021,1.5244,1.4658,1.4557,1.4811,1.4879,1.5175,1.5564,1.5206,1.5172,1.5283,1.4561,1.4367,1.4582,1.4111,0.0,0.0,0.0,1.4629,1.5332,1.5576,1.6124,1.6807,1.6768,1.6892,1.7178,1.6172,1.5586,1.5371,1.4699,1.4053,1.3389,0.0,0.0,1.2915,1.3071,1.3428,1.3984,1.4014,1.4014,1.4004,1.3516,1.3135,1.2925,1.2915,1.2954,1.3007,1.3224,1.3224,1.3021,1.3224,1.3126,0.0,0.0,0.0,0.0,0.0,0.0,0.0,0.0,0.0,0.0,0.0,1.2204,1.2338,0.0,0.0,0.0,1.2564,1.2666,1.3096,1.3135,0.0,0.0,0.0,0.0,0.0,0.0,0.0,1.3704,1.3958,1.427,1.4717,1.4336,1.4111,1.4328,1.4131,1.389,1.3657,0.0,1.3314,1.3303,1.3154,1.3104,1.3311,1.3447,1.3547,1.345,1.3574,1.3692,1.367,1.358,1.3511,1.348,1.348,1.348,1.348,1.348,1.348,1.348,1.348,1.3434,1.322,1.3194,1.304,1.9001,1.8179,1.7363,1.7071,1.7228,1.7226,1.7236,1.7238,1.6858,1.6525,1.6271,1.5771,1.5537,1.5469,1.5459,0.0,1.5518,1.5518,1.5771,1.6251,1.6242,1.6877,1.7959,1.7165,1.7233,1.8027,1.6809,1.6007,1.5635,1.5215,1.4775,1.4309,1.3916,1.3467,1.3018,1.3369,1.3955,1.4766,1.4803,1.4785,1.4766,1.36,1.2954,1.2954,1.2925,1.2992,1.3146,1.3007,1.3007,1.317,1.3036,1.313,1.3457,0.0,0.0,0.0,0.0,0.0,0.0,0.0,0.0,0.0,0.0,0.0,0.0,0.0,0.0,0.0,1.3203,0.0,1.3516,1.3555,0.0,0.0,0.0,1.4163,1.4202,1.4231,1.425,1.4211,0.0,0.0,1.4785,1.4862,1.4834,1.4806,1.44,1.4022,1.3661,1.3552,1.3497,1.3442,1.3429,1.3494,1.366,1.3726,1.3696,1.3507,1.348,1.3511,1.3502,1.3511,1.348,1.348,1.348,1.348,1.348,1.348,1.348,1.348,1.348,1.348,1.3455,1.3476,1.3288,2.0613,2.0412,1.9895,1.9075,1.8201,1.8251,1.8414,1.8574,1.8247,1.8061,1.7944,1.7236,1.6574,1.5938,1.5938,1.6094,1.6385,1.6395,1.6794,1.7529,1.7549,1.7715,1.7988,1.7793,1.7944,1.8364,1.7529,1.7178,1.7363,1.6973,1.6543,1.6083,1.5674,1.4912,1.3851,1.3909,1.4221,1.4803,1.4785,1.4785,1.4793,1.3857,1.3359,1.335,1.3071,1.292,1.2992,1.306,1.306,1.2992,1.3407,1.361,1.3506,1.3597,0.0,0.0,0.0,0.0,0.0,0.0,0.0,0.0,0.0,1.3398,1.3496,0.0,1.3968,0.0,1.387,1.3851,1.3958,1.3958,0.0,0.0,1.4629,1.4756,1.505,1.54,1.5478,1.5118,1.54,1.5518,1.5293,1.5264,1.5177,1.4964,1.4734,1.4504,1.4388,1.399,1.3703,1.3702,1.357,1.3498,1.3575,1.3571,1.3541,1.3511,1.348,1.348,1.348,1.348,1.348,1.348,1.348,1.348,1.348,1.348,1.348,1.348,1.348,1.348,1.348,1.348,1.3442,2.1213,2.1174,2.0771,2.0161,1.9459,1.9468,1.9603,1.973,1.937,1.9163,1.9124,1.8525,1.7959,1.7543,1.7533,1.767,1.7861,1.7837,1.8125,1.8574,1.8574,1.8584,1.8564,1.8389,1.8383,1.8578,1.7969,1.7686,1.7715,1.749,1.7266,1.7021,1.6799,1.6387,1.581,1.4884,1.4541,1.4813,1.4785,1.4785,1.4793,1.4121,1.3675,1.3506,1.3281,1.3091,1.2915,1.3007,1.3007,1.2939,1.3431,1.3722,1.3753,1.3977,1.4094,0.0,0.0,0.0,0.0,0.0,0.0,0.0,0.0,0.0,0.0,0.0,1.4309,1.4133,1.4114,1.4182,1.4404,1.4406,1.46,1.501,1.5263,1.5371,1.5381,1.5977,1.6113,1.5488,1.5821,1.5938,1.5478,1.5586,1.5644,1.5514,1.5444,1.5145,1.4544,1.4346,1.4285,1.3995,1.3838,1.3699,1.3515,1.348,1.348,1.348,1.348,1.348,1.348,1.348,1.348,1.348,1.348,1.348,1.348,1.348,1.348,1.3494,1.3374,1.3339,1.3468,1.3391,1.3237,2.1249,2.1151,2.0791,2.0615,2.0615,2.0615,2.0615,2.0586,2.0166,2.0,1.9971,1.9551,1.9365,1.9365,1.9316,1.9316,1.9365,1.9375,1.9365,1.9375,1.9365,1.9375,1.9346,1.889,1.8685,1.8666,1.8256,1.7871,1.7471,1.7519,1.7549,1.7549,1.7549,1.7734,1.7988,1.6064,1.498,1.4873,1.498,1.498,1.4863,1.4434,1.4016,1.3691,1.3613,1.3418,1.3066,1.3037,1.3047,1.3057,1.3437,1.3812,1.4172,1.4241,1.4416,0.0,1.4504,0.0,0.0,0.0,0.0,0.0,0.0,0.0,0.0,1.4852,1.4736,1.4387,1.4358,1.4561,1.499,1.5029,1.5195,1.5625,1.6026,1.6114,1.5752,1.6317,1.6463,1.5674,1.5918,1.6026,1.5693,1.5928,1.6183,1.6109,1.6288,1.5867,1.4551,1.4718,1.4824,1.4253,1.4119,1.3922,1.3605,1.348,1.348,1.348,1.348,1.348,1.348,1.348,1.348,1.348,1.348,1.348,1.348,1.348,1.348,1.3472,1.3288,1.3194,1.3399,1.3237,1.2894,2.1553,2.1151,2.0752,2.0615,2.0615,2.0615,2.0615,2.0605,2.0517,2.0478,2.0449,1.998,1.9785,1.9766,1.9434,1.9473,1.9785,1.9795,1.9757,1.9795,1.9795,1.9795,1.9775,1.9365,1.917,1.9141,1.8685,1.8266,1.7891,1.8198,1.8364,1.8364,1.8364,1.8403,1.8412,0.0,0.0,0.0,1.5966,1.5985,1.5312,1.4873,1.4629,1.4541,1.4163,0.0,1.388,1.387,1.387,1.389,1.4307,0.0,0.0,0.0,0.0,0.0,0.0,0.0,0.0,0.0,0.0,0.0,1.6025,1.5557,1.4891,1.5098,1.541,1.5694,1.5733,1.5889,1.6278,1.6336,1.6543,1.6963,1.708,1.7132,1.7031,1.7168,1.7051,1.6521,1.6521,1.6541,1.6443,1.6531,1.6466,1.6284,1.6807,1.6606,1.5197,1.5144,1.5042,1.4632,1.4341,1.3982,1.3571,1.3506,1.3523,1.348,1.348,1.348,1.348,1.348,1.348,1.348,1.348,1.348,1.348,1.348,1.348,1.348,1.3451,1.3425,1.3485,1.3228,1.3069,2.1631,0.0,2.0752,2.0615,0.0,2.0615,2.0615,2.0615,2.0615,2.0615,2.0586,2.0332,2.0234,2.0225,2.001,2.0039,2.0234,2.0234,2.0234,2.0234,2.0234,2.0244,2.0225,1.9795,1.96,1.957,1.8945,1.8715,1.8916,1.849,1.8617,1.9212,1.8812,1.8715,1.8936,1.849,1.7321,1.543,1.5829,1.5829,1.543,1.5205,1.5019,1.4795,1.457,0.0,0.0,0.0,0.0,0.0,0.0,0.0,0.0,0.0,0.0,1.543,1.586,1.6183,1.6377,1.6807,1.7061,1.7051,1.665,1.6113,1.5498,1.5605,1.5918,1.6328,1.6006,1.6016,1.6619,1.6543,1.6582,1.7012,1.7256,1.7337,1.7116,1.7441,1.7422,1.6853,1.6882,1.6982,1.6726,1.6911,1.688,1.6603,1.7207,1.7327,1.6295,1.6061,1.5861,1.5111,1.4804,1.4521,1.4153,1.3905,1.3802,1.3785,1.3639,1.3498,1.348,1.348,1.348,1.348,1.348,1.348,1.348,1.348,1.348,1.3463,1.3365,1.3331,1.3442,1.322,1.3023,2.1787,2.1375,2.0908,2.0762,2.083,2.0752,2.0762,2.083,0.0,0.0,0.0,2.0693,2.0674,2.0684,2.0723,2.0723,2.0723,2.0635,2.0615,2.0615,2.0615,2.0644,2.0664,2.0244,2.0039,1.999,1.9228,1.9182,1.9844,1.8701,1.8656,1.9639,1.8987,1.8809,1.917,1.9443,1.8359,1.6006,1.5859,1.5771,1.5625,1.5498,1.5254,1.4912,1.4902,1.4727,1.4348,1.4328,1.4338,1.4338,1.4697,1.496,1.5019,1.5332,1.5723,1.6163,1.629,1.6643,1.7334,1.7451,1.7494,1.7416,1.7119,1.6738,1.6261,1.6212,1.6367,1.6775,1.6151,1.6094,1.6833,1.6641,1.6553,1.6892,1.7285,1.7353,1.7028,1.7447,1.7617,1.7077,1.7217,1.7295,1.7019,1.7285,1.7391,1.7173,1.7574,1.7752,1.7125,1.6863,1.6517,1.5541,1.5283,1.5155,1.4777,1.4418,1.4187,1.4067,1.3819,1.3596,1.3528,1.348,1.348,1.348,1.348,1.348,1.348,1.348,1.348,1.348,1.328,1.3181,1.3399,1.328,1.3108,2.2383,2.2266,2.1434,2.1357,2.1721,2.1299,2.1348,2.1621,2.0938,2.0615,2.0625,2.0977,2.1103,2.1103,2.1093,2.1103,2.1073,2.0752,2.0615,2.0615,2.0615,2.0771,2.1073,2.0684,2.0507,2.0468,1.9961,1.9757,1.9767,1.8958,1.8802,1.9268,1.8877,1.8637,1.8666,1.8393,1.8066,1.7656,1.7646,1.7252,1.6521,1.5801,1.5391,1.5322,1.5322,1.5303,1.5206,1.5225,1.5206,1.5196,1.5293,1.5498,1.588,1.5968,1.6172,1.6611,1.6992,1.7288,1.7393,1.7725,1.7764,1.7441,1.7656,1.7457,1.6687,1.6609,1.6794,1.7236,1.7109,1.7295,1.7754,1.7715,1.7656,1.7783,1.7837,1.7881,1.7783,1.7607,1.7598,1.7744,1.7549,1.7539,1.7725,1.7842,1.7857,1.7842,1.7814,1.7794,1.7188,1.6933,1.6581,1.5917,1.572,1.5429,1.4957,1.4691,1.4519,1.4136,1.4084,1.3905,1.3605,1.3532,1.3515,1.348,1.348,1.348,1.348,1.348,1.348,1.3502,1.3425,1.3442,1.3502,1.3442,1.3408,2.2383,2.2139,2.1748,2.1699,2.1875,2.167,2.1689,2.1846,2.1496,2.1329,2.1339,2.1494,2.1582,2.1592,2.1592,2.1592,2.1582,2.1417,2.1152,2.0957,2.1172,2.1133,2.0898,2.0898,2.0801,2.0586,2.0127,2.0156,2.0488,1.9531,1.9209,1.9541,1.874,1.8373,1.8568,1.8412,1.8457,1.8662,1.7582,1.6875,1.6697,1.5859,1.542,1.542,1.542,1.542,1.542,1.542,1.542,1.542,1.5635,1.5889,1.6085,1.6289,1.6621,1.7061,1.7275,1.749,1.7715,1.79,1.793,1.7744,1.79,1.7852,1.7428,1.7217,1.7256,1.7656,1.7324,1.7305,1.792,1.7803,1.7754,1.7954,1.8008,1.8008,1.7988,1.7861,1.7803,1.7959,1.7842,1.7803,1.7988,1.8008,1.7906,1.7773,1.76,1.7307,1.6972,1.6931,1.6644,1.5977,1.5805,1.5677,1.5334,1.5095,1.4915,1.4718,1.4538,1.4273,1.3922,1.3819,1.3733,1.3523,1.348,1.348,1.348,1.348,1.348,1.348,1.348,1.348,1.348,1.348,1.3335,2.2471,2.2168,2.206,2.2021,2.2031,2.2129,2.2168,2.2168,2.2178,2.2168,2.2158,2.207,2.2031,2.2021,2.2031,2.2021,2.2012,2.1934,2.1699,2.1435,2.1728,2.1523,2.0987,2.1221,2.1191,2.0879,2.042,2.0586,2.1122,2.0068,1.9482,1.9485,1.8598,1.8286,1.8588,1.85,1.875,1.9131,1.7396,1.6523,1.6804,1.5928,1.542,1.542,1.5518,1.5566,1.5566,1.5654,1.5713,1.5723,1.6035,1.629,1.6398,1.6689,1.708,1.7461,1.7529,1.7666,1.7969,1.8008,1.8008,1.8008,1.8008,1.8008,1.7978,1.7725,1.7646,1.7881,1.7432,1.7311,1.7852,1.7744,1.7656,1.7969,1.8008,1.8008,1.8008,1.8008,1.8008,1.8008,1.8008,1.7998,1.8008,1.8008,1.7803,1.7405,1.7104,1.6873,1.6721,1.667,1.6396,1.6036,1.5865,1.5925,1.5899,1.56,1.53,1.5249,1.4992,1.4607,1.4247,1.4084,1.393,1.3613,1.348,1.348,1.348,1.348,1.348,1.348,1.348,1.348,1.348,1.3417,1.3237,2.3003,2.2925,2.2565,2.2451,2.25,2.2799,2.2945,2.2955,2.2974,2.2974,2.2896,2.2627,2.2461,2.2451,2.2451,2.2461,2.2422,2.206,2.1875,2.1836,2.1865,2.1836,2.1728,2.1807,2.1807,2.168,2.1279,2.1239,2.165,2.0469,1.9492,1.8802,1.8598,1.8559,1.8568,1.8271,1.8486,1.9238,1.7949,1.7318,1.7246,1.6064,1.542,1.542,1.5831,1.6036,1.6036,1.6396,1.657,1.658,1.6599,1.6846,1.7187,1.7295,1.751,1.79,1.7939,1.7978,1.8008,1.8008,1.8008,1.8008,1.8008,1.8008,1.8008,1.7969,1.7959,1.7978,1.793,1.7891,1.7964,1.7949,1.793,1.7978,1.8008,1.8008,1.8008,1.8008,1.8008,1.8008,1.8008,1.8008,1.8008,1.7974,1.7701,1.7116,1.6894,1.6634,1.6154,1.6028,1.6036,1.5925,1.6054,1.6225,1.6227,1.6029,1.5651,1.5334,1.5215,1.4898,1.4444,1.4136,1.3973,1.3622,1.348,1.348,1.348,1.348,1.348,1.348,1.348,1.348,1.3476,1.3314,1.3078,2.3101,2.3081,2.2906,2.2838,2.2867,2.3023,2.3101,2.3101,2.3101,2.3101,2.3081,2.2906,2.2881,2.2838,2.2838,2.2838,2.2828,2.2705,2.249,2.2305,2.25,2.2373,2.1943,2.2148,2.2139,2.1865,2.1435,2.1288,2.1289,2.043,1.9736,1.9368,1.915,1.9023,1.8984,1.8594,1.8555,1.8848,1.79,1.7416,1.7295,1.6611,1.6161,1.618,1.6367,1.6455,1.6475,1.6609,1.6697,1.6716,1.6982,1.7197,1.7383,1.7617,1.7832,1.7998,1.8008,1.8008,1.8008,1.8008,1.8008,1.8008,1.8008,1.8008,1.8008,1.8008,1.8008,1.8008,1.8008,1.8008,1.8008,1.8008,1.8008,1.8008,1.8008,1.8008,1.8008,1.8008,1.8008,1.8008,1.8008,1.8008,1.7974,1.7813,1.7505,1.6978,1.6726,1.6351,1.5876,1.5805,1.5899,1.6098,1.6088,1.6011,1.6054,1.6158,1.5969,1.5711,1.5745,1.5574,1.4718,1.4453,1.4256,1.3609,1.3536,1.3511,1.348,1.348,1.348,1.348,1.348,1.348,1.348,1.3391,1.3237,2.3101,2.3101,2.3101,2.3101,2.3101,2.3101,2.3101,2.3101,2.3101,2.3101,2.3101,2.3101,2.3101,2.3101,2.3101,2.3101,2.3101,2.3101,2.2935,2.2691,2.2955,2.2769,2.2295,2.2487,2.2529,2.2207,2.1816,2.1492,2.1307,2.0615,2.0225,2.0049,1.9668,1.9394,1.9268,1.8919,1.8715,1.8568,1.8018,1.7676,1.7539,1.7246,1.6941,1.6736,1.6814,1.6872,1.6882,1.6989,1.7058,1.7067,1.7393,1.7559,1.7568,1.7842,1.8066,1.8154,1.8032,1.8032,1.813,1.8076,1.8008,1.8008,1.8008,1.8008,1.8008,1.8008,1.8008,1.8008,1.8008,1.8008,1.8008,1.8008,1.8008,1.8008,1.8008,1.8008,1.8008,1.8008,1.8008,1.8008,1.7906,1.7803,1.7701,1.7461,1.7151,1.6769,1.6482,1.6167,1.5876,1.5814,1.5899,1.6184,1.5959,1.5942,1.6062,1.6235,1.6261,1.6268,1.63,1.6114,1.5189,1.4975,1.4581,1.3973,1.3708,1.3511,1.348,1.348,1.348,1.348,1.348,1.348,1.348,1.3494,1.3399,2.3101,2.3101,2.3101,2.3101,2.3101,2.3101,2.3101,2.3101,2.3101,2.3101,2.3101,2.3101,2.3101,2.3101,2.3101,2.3101,2.3101,2.3101,2.3071,2.3033,2.3081,2.3071,2.3042,2.3062,2.3042,2.2896,2.2539,2.2168,2.1816,2.1387,2.0967,2.0566,2.0127,1.9717,1.9404,1.9307,1.9062,1.8715,1.8568,1.8354,1.8022,1.7978,1.7578,1.6931,1.7148,1.7353,1.7393,1.7744,1.7949,1.7939,1.7969,1.7978,1.7998,1.8027,1.8242,1.8481,1.8227,1.8213,1.8471,1.8227,1.8047,1.8027,1.8027,1.8008,1.8018,1.8057,1.8076,1.7993,1.8096,1.8105,1.8096,1.8057,1.8037,1.8057,1.8037,1.8047,1.8057,1.8154,1.8027,1.7969,1.7764,1.7527,1.7119,1.6943,1.6806,1.6544,1.6342,1.6175,1.5911,1.5805,1.5848,1.5882,1.5908,1.6036,1.6644,1.657,1.6544,1.6567,1.6524,1.6602,1.6011,1.5411,1.4821,1.4256,1.3802,1.3554,1.3498,1.348,1.348,1.348,1.348,1.348,1.348,1.348,1.3421,2.3101,2.3101,2.3101,2.3101,2.3101,2.3101,2.3101,2.3101,2.3101,2.3101,2.3101,2.3101,2.3101,2.3101,2.3101,2.3101,2.3101,2.3101,2.3101,2.3101,2.3101,2.3101,2.3101,2.3101,2.3101,2.3033,2.2715,2.2295,2.1914,2.1719,2.1426,2.1045,2.085,2.0537,2.0137,1.9824,1.96,1.9443,1.9173,1.8975,1.8818,1.8828,1.8535,1.7954,1.7798,1.7783,1.7783,1.8159,1.8383,1.8373,1.8383,1.85,1.8789,1.8828,1.8887,1.9014,1.8906,1.8896,1.8975,1.8652,1.8373,1.8354,1.812,1.8037,1.8057,1.8208,1.8373,1.8412,1.8682,1.8809,1.8721,1.8359,1.8091,1.8315,1.8373,1.8481,1.876,1.8828,1.873,1.8377,1.7902,1.7625,1.7644,1.7132,1.6705,1.6945,1.6464,1.6025,1.5876,1.5805,1.5882,1.6028,1.5977,1.6062,1.6761,1.6622,1.6467,1.6596,1.661,1.6584,1.6208,1.5591,1.4992,1.4555,1.4033,1.3579,1.3545,1.348,1.348,1.348,1.348,1.348,1.348,1.348,1.348,2.3101,2.3101,2.3101,2.3101,2.3101,2.3101,2.3101,2.3101,2.3101,2.3101,2.3101,2.3101,2.3101,2.3101,2.3101,2.3101,2.3101,2.3101,2.3101,2.3101,2.3101,2.3101,2.3101,2.3101,2.3101,2.3062,2.2818,2.2559,2.2305,2.2148,2.1934,2.167,2.1356,2.1094,2.0752,2.0342,2.0068,1.9893,1.9629,1.9424,1.9316,1.9277,1.916,1.8857,1.8564,1.835,1.8208,1.8623,1.8822,1.8812,1.8848,1.888,1.9062,1.9209,1.9277,1.9277,1.9277,1.9355,1.9414,1.9092,1.8812,1.8802,1.8603,1.8418,1.8447,1.8682,1.8818,1.8916,1.9082,1.9277,1.918,1.876,1.8545,1.8799,1.8812,1.8965,1.9275,1.9268,1.9017,1.8469,1.7875,1.7759,1.7843,1.709,1.6879,1.7289,1.6499,1.6002,1.5968,1.5977,1.5977,1.6122,1.6071,1.6114,1.6388,1.6216,1.6441,1.6576,1.6661,1.6619,1.6405,1.578,1.5266,1.4838,1.4341,1.3836,1.3571,1.3498,1.348,1.348,1.348,1.348,1.348,1.348,1.3511,2.3101,2.3101,2.3101,2.3101,2.3101,2.3101,2.3101,2.3101,2.3101,2.3101,2.3101,2.3101,2.3101,2.3101,2.3101,2.3101,2.3101,2.3101,2.3101,2.3101,2.3101,2.3101,2.3101,2.3101,2.3101,2.3101,2.3081,2.3062,2.2974,2.2695,2.248,2.2314,2.1648,2.1278,2.1171,2.0771,2.0361,2.0049,1.9932,1.9736,1.9365,1.9394,1.9375,1.9297,1.9287,1.9111,1.8666,1.9072,1.9287,1.9297,1.9287,1.9092,1.887,1.918,1.9382,1.9394,1.9346,1.9531,1.9824,1.9521,1.9287,1.9268,1.9248,1.9141,1.9121,1.9228,1.9287,1.9297,1.9365,1.9375,1.9394,1.9336,1.9287,1.9297,1.9287,1.9326,1.9365,1.9316,1.9042,1.84,1.7909,1.7406,1.7115,1.6989,1.7,1.7003,1.669,1.6356,1.6276,1.6293,1.6199,1.6062,1.6114,1.6313,1.6054,1.5857,1.6276,1.6619,1.6696,1.6696,1.6482,1.6002,1.5608,1.5163,1.4444,1.3939,1.3699,1.3648,1.3498,1.348,1.348,1.348,1.348,1.3511,1.3571,2.3101,2.3101,2.3101,2.3101,2.3101,2.3101,2.3101,2.3101,2.3101,2.3101,2.3101,2.3101,2.3101,2.3101,2.3101,2.3101,2.3101,2.3101,2.3101,2.3101,2.3101,2.3101,2.3101,2.3101,2.3101,2.3101,2.3101,2.3101,2.3071,2.2955,2.2769,2.249,2.2256,2.1797,2.1229,2.1084,2.081,2.0458,2.04,2.0321,2.0214,2.0204,2.0019,1.9785,2.0,1.9971,1.9524,1.9648,1.9717,1.9727,1.9717,1.9658,1.9572,1.9932,2.0194,2.0204,2.0204,2.0243,2.0312,1.9971,1.9717,1.9668,1.9473,1.9297,1.9326,1.957,1.9717,1.9756,1.998,2.0204,2.0204,2.0204,2.0019,1.9756,1.9717,1.9834,2.001,1.9863,1.965,1.9337,1.8746,1.8415,1.8277,1.7911,1.7409,1.7501,1.7124,1.6687,1.6456,1.661,1.6721,1.661,1.6559,1.6493,1.637,1.6182,1.6242,1.6447,1.6516,1.6559,1.6379,1.6173,1.5814,1.5377,1.4658,1.4179,1.3939,1.3759,1.3609,1.3498,1.348,1.348,1.348,1.3571,1.3692,2.3101,2.3101,2.3101,2.3101,2.3101,2.3101,2.3101,2.3101,2.3101,2.3101,2.3101,2.3101,2.3101,2.3101,2.3101,2.3101,2.3101,2.3101,2.3101,2.3101,2.3101,2.3101,2.3101,2.3101,2.3101,2.3101,2.3101,2.3101,2.3101,2.3091,2.2964,2.273,2.2598,2.2168,2.1514,2.1268,2.1016,2.0674,2.0605,2.0615,2.0605,2.0615,2.0468,2.0234,2.0468,2.0449,2.0166,2.0166,2.0156,2.0156,2.0156,2.0088,1.998,2.0293,2.0537,2.041,2.0507,2.0595,2.0576,2.0341,2.0156,2.0107,1.9912,1.9813,1.9814,2.0039,2.0146,2.0205,2.041,2.0615,2.0595,2.0605,2.0468,2.0233,2.0156,2.0312,2.0498,2.0176,1.9828,1.9514,1.9023,1.8823,1.8538,1.8262,1.7778,1.7852,1.7509,1.7081,1.6867,1.6978,1.7021,1.7021,1.6944,1.6867,1.6841,1.6602,1.6285,1.6268,1.6276,1.6259,1.6165,1.6011,1.5737,1.5446,1.4872,1.4461,1.4196,1.3956,1.3793,1.3651,1.3549,1.3511,1.3541,1.3752,1.3911,2.3101,2.3101,2.3101,2.3101,2.3101,2.3101,2.3101,2.3101,2.3101,2.3101,2.3101,2.3101,2.3101,2.3101,2.3101,2.3101,2.3101,2.3101,2.3101,2.3101,2.3101,2.3101,2.3101,2.3101,2.3101,2.3101,2.3101,2.3101,2.3101,2.3101,2.3101,2.3013,2.2701,2.2344,2.1934,2.1483,2.1162,2.0742,2.0683,2.0683,2.0625,2.0615,2.0595,2.0566,2.0586,2.0586,2.0546,2.0537,2.0566,2.0586,2.0556,2.0352,2.0127,2.039,2.0419,2.0098,2.0371,2.0566,2.0615,2.0566,2.0546,2.0527,2.0507,2.0605,2.0498,2.0478,2.0517,2.0527,2.0586,2.0615,2.0615,2.0615,2.0586,2.0605,2.0527,2.0566,2.0556,2.0205,1.984,1.9449,1.8982,1.8606,1.8309,1.8118,1.8057,1.7946,1.7715,1.7501,1.742,1.7329,1.7278,1.7282,1.7239,1.7167,1.7107,1.6616,1.6362,1.6268,1.6216,1.6122,1.6062,1.5925,1.5788,1.5489,1.5189,1.4786,1.4495,1.4298,1.4084,1.3947,1.3802,1.3613,1.3705,1.402,1.4279,2.3101,2.3101,2.3101,2.3101,2.3101,2.3101,2.3101,2.3101,2.3101,2.3101,2.3101,2.3101,2.3101,2.3101,2.3101,2.3101,2.3101,2.3101,2.3101,2.3101,2.3101,2.3101,2.3101,2.3101,2.3101,2.3101,2.3101,2.3101,2.3101,2.3101,2.3101,2.3101,2.2974,2.2744,2.2373,2.2187,2.1768,2.1172,2.1055,2.0869,2.0635,2.0615,2.0615,2.0615,2.0615,2.0615,2.0615,2.0615,2.0615,2.0615,2.0615,2.0566,2.0439,2.0537,2.0537,2.0468,2.0478,2.0615,2.0615,2.0615,2.0615,2.0615,2.0615,2.0615,2.0615,2.0615,2.0615,2.0615,2.0615,2.0615,2.0615,2.0615,2.0615,2.0615,2.0615,2.0615,2.0508,2.0217,1.9858,1.9693,1.9362,1.8922,1.8563,1.8386,1.8331,1.8055,1.788,1.7775,1.7655,1.7697,1.7663,1.7514,1.7437,1.7428,1.7227,1.6756,1.6439,1.6356,1.6253,1.6096,1.6045,1.5977,1.5848,1.5668,1.542,1.506,1.4915,1.4752,1.453,1.4256,1.411,1.3987,1.4197,1.4468,1.4749,2.3101,2.3101,2.3101,2.3101,2.3101,2.3101,2.3101,2.3101,2.3101,2.3101,2.3101,2.3101,2.3101,2.3101,2.3101,2.3101,2.3101,2.3101,2.3101,2.3101,2.3101,2.3101,2.3101,2.3101,2.3101,2.3101,2.3101,2.3101,2.3101,2.3101,2.3101,2.3101,2.3101,2.2877,2.2519,2.249,2.2058,2.1346,2.119,2.1016,2.0644,2.0615,2.0615,2.0615,2.0615,2.0615,2.0615,2.0615,2.0615,2.0615,2.0615,2.0615,2.0615,2.0615,2.0615,2.0615,2.0615,2.0615,2.0615,2.0615,2.0615,2.0615,2.0615,2.0615,2.0615,2.0615,2.0615,2.0615,2.0615,2.0615,2.0615,2.0615,2.0615,2.0615,2.0615,2.0615,2.0615,2.0372,2.001,1.9745,1.942,1.9024,1.8531,1.846,1.829,1.808,1.7991,1.7903,1.7809,1.7906,1.794,1.7757,1.7663,1.768,1.7663,1.7295,1.6966,1.6833,1.6587,1.6362,1.6096,1.6045,1.5891,1.5754,1.5574,1.5403,1.5232,1.506,1.4838,1.4607,1.4461,1.4473,1.4662,1.4909,1.5213,2.3101,2.3101,2.3101,2.3101,2.3101,2.3101,2.3101,2.3101,2.3101,2.3101,2.3101,2.3101,2.3101,2.3101,2.3101,2.3101,2.3101,2.3101,2.3101,2.3101,2.3101,2.3101,2.3101,2.3101,2.3101,2.3101,2.3101,2.3101,2.3101,2.3101,2.3101,2.3101,2.3101,2.2916,2.2715,2.2617,2.2107,2.157,2.1473,2.1299,2.0918,2.082,2.0732,2.0752,2.0635,2.0615,2.0615,2.0615,2.0615,2.0615,2.0615,2.0615,2.0615,2.0615,2.0615,2.0615,2.0615,2.0615,2.0615,2.0615,2.0615,2.0615,2.0615,2.0615,2.0615,2.0615,2.0615,2.0615,2.0615,2.0615,2.0615,2.0615,2.0615,2.0615,2.0615,2.0615,2.0566,2.0566,2.0216,1.9499,1.9341,1.8834,1.8353,1.804,1.7991,1.804,1.7991,1.7948,1.7929,1.7948,1.7991,1.7931,1.7946,1.7948,1.7923,1.7846,1.7641,1.7475,1.7124,1.6816,1.6302,1.6131,1.5942,1.578,1.5668,1.5548,1.5411,1.5232,1.5103,1.5,1.4881,1.4941,1.5092,1.5379,1.5645,2.3101,2.3101,2.3101,2.3101,2.3101,2.3101,2.3101,2.3101,2.3101,2.3101,2.3101,2.3101,2.3101,2.3101,2.3101,2.3101,2.3101,2.3101,2.3101,2.3101,2.3101,2.3101,2.3101,2.3101,2.3101,2.3101,2.3101,2.3101,2.3101,2.3101,2.3101,2.3101,2.3091,2.3052,2.2964,2.2886,2.2721,2.2314,2.2165,2.1943,2.1533,2.123,2.1094,2.1064,2.0791,2.0644,2.0615,2.0615,2.0615,2.0615,2.0635,2.0664,2.0664,2.0674,2.0683,2.0654,2.0635,2.0625,2.0615,2.0615,2.0615,2.0615,2.0615,2.0615,2.0615,2.0615,2.0615,2.0615,2.0615,2.0615,2.0615,2.0615,2.0615,2.0615,2.0615,2.0615,2.0527,2.0294,2.001,1.9745,1.924,1.8772,1.8571,1.8161,1.808,1.8031,1.7991,1.7991,1.7991,1.7991,1.7991,1.7991,1.7991,1.7991,1.7965,1.7914,1.7803,1.7726,1.7535,1.7252,1.6739,1.6405,1.6293,1.6062,1.5797,1.5677,1.5557,1.56,1.5506,1.5403,1.5351,1.547,1.5626,1.5882,1.5968,2.3101,2.3101,2.3101,2.3101,2.3101,2.3101,2.3101,2.3101,2.3101,2.3101,2.3101,2.3101,2.3101,2.3101,2.3101,2.3101,2.3101,2.3101,2.3101,2.3101,2.3101,2.3101,2.3101,2.3101,2.3101,2.3101,2.3101,2.3101,2.3101,2.3101,2.3101,2.3101,2.3091,2.3091,2.3101,2.3091,2.2847,2.2516,2.251,2.2305,2.1904,2.168,2.1543,2.1533,2.1309,2.1222,2.1251,2.0977,2.1016,2.1074,2.0996,2.0889,2.0937,2.1064,2.1114,2.0908,2.0869,2.0742,2.0693,2.0615,2.0615,2.0615,2.0615,2.0615,2.0615,2.0615,2.0615,2.0615,2.0615,2.0615,2.0615,2.0615,2.0615,2.0615,2.0615,2.0615,2.0566,2.0372,2.0098,1.9902,1.939,1.8971,1.8652,1.8331,1.808,1.7991,1.7991,1.7991,1.7991,1.7991,1.7991,1.7991,1.7991,1.7983,1.7957,1.7897,1.7803,1.7777,1.7735,1.7535,1.7192,1.6973,1.6767,1.6398,1.5959,1.5814,1.5728,1.5805,1.5805,1.5677,1.5661,1.5918,1.601,1.5957,1.603,2.3101,2.3101,2.3101,2.3101,2.3101,2.3101,2.3101,2.3101,2.3101,2.3101,2.3101,2.3101,2.3101,2.3101,2.3101,2.3101,2.3101,2.3101,2.3101,2.3101,2.3101,2.3101,2.3101,2.3101,2.3101,2.3101,2.3101,2.3101,2.3101,2.3101,2.3101,2.3091,2.296,2.296,2.3047,2.295,2.2814,2.2662,2.2633,2.2549,2.2197,2.206,2.1953,2.1816,2.1797,2.1748,2.1689,2.1523,2.1484,2.1836,2.1592,2.1424,2.1463,2.1621,2.1748,2.1338,2.1328,2.1143,2.0879,2.083,2.0869,2.0742,2.0723,2.0781,2.083,2.0732,2.0674,2.0693,2.0703,2.0615,2.0615,2.0615,2.0615,2.0615,2.0615,2.0615,2.0615,2.0605,2.0372,2.0098,1.9706,1.932,1.8891,1.8491,1.8241,1.7991,1.7991,1.7991,1.7991,1.7991,1.7991,1.7991,1.7991,1.7991,1.7974,1.7957,1.7854,1.7846,1.7871,1.7775,1.756,1.7351,1.7033,1.6519,1.6167,1.5985,1.5848,1.5805,1.5805,1.5805,1.5851,1.5948,1.5996,1.5981,1.6129,2.3101,2.3101,2.3101,2.3101,2.3101,2.3101,2.3101,2.3101,2.3101,2.3101,2.3101,2.3101,2.3101,2.3101,2.3101,2.3101,2.3101,2.3101,2.3101,2.3101,2.313,2.3149,2.3169,2.3179,2.3149,2.3101,2.3101,2.3101,2.3101,2.3101,2.3101,2.3003,2.2643,2.2599,2.2784,2.2643,2.2648,2.2795,2.2872,2.2847,2.273,2.2549,2.2275,2.206,2.2041,2.2012,2.1995,2.1855,2.1816,2.1894,2.2148,2.2256,2.2217,2.207,2.1924,2.1807,2.1768,2.1582,2.123,2.1435,2.1406,2.119,2.1123,2.1289,2.1328,2.1055,2.0801,2.084,2.0732,2.0615,2.0615,2.0615,2.0615,2.0615,2.0615,2.0615,2.0615,2.0605,2.0566,2.0372,2.002,1.9587,1.9112,1.8683,1.8362,1.8121,1.7991,1.7991,1.7991,1.7991,1.7991,1.7991,1.7991,1.7991,1.7991,1.7983,1.7948,1.794,1.7948,1.7948,1.7783,1.7595,1.7274,1.681,1.6416,1.6184,1.6011,1.5882,1.5805,1.5805,1.5894,1.5947,1.5992,1.6058,1.6294,2.3227,2.3457,2.3188,2.3227,2.3408,2.3179,2.3101,2.3101,2.3101,2.3101,2.3101,2.3101,2.3101,2.3101,2.3101,2.3101,2.3101,2.3101,2.3101,2.312,2.335,2.3477,2.3467,2.3467,2.3477,2.3418,2.3227,2.3101,2.3101,2.3101,2.3101,2.3047,2.2731,2.2643,2.2643,2.2696,2.2555,2.274,2.2916,2.3101,2.3101,2.2867,2.2662,2.2598,2.2519,2.2539,2.249,2.2285,2.2344,2.249,2.2519,2.2637,2.2695,2.2646,2.2422,2.2256,2.2207,2.2021,2.166,2.1797,2.1748,2.1621,2.1572,2.1523,2.1475,2.1162,2.0918,2.082,2.0781,2.0615,2.0615,2.0615,2.0615,2.0615,2.0615,2.0615,2.0615,2.0615,2.0576,2.0537,2.0137,1.9706,1.9301,1.8873,1.8482,1.8241,1.8031,1.7991,1.7991,1.7991,1.7991,1.7991,1.7991,1.7991,1.7991,1.7991,1.7991,1.7991,1.7991,1.7991,1.7957,1.7792,1.7526,1.7196,1.6827,1.6413,1.6192,1.6019,1.5917,1.5822,1.5893,1.5964,1.6044,1.6184,1.6295,2.3389,2.376,2.3418,2.3516,2.3818,2.351,2.3364,2.3354,2.3383,2.3403,2.3344,2.3276,2.3247,2.3208,2.314,2.3101,2.3101,2.3101,2.3101,2.3179,2.3545,2.3769,2.3789,2.3887,2.3906,2.3857,2.3516,2.3179,2.3101,2.3101,2.3101,2.3003,2.3003,2.2784,2.2555,2.2643,2.2511,2.2652,2.2775,2.3091,2.3101,2.3101,2.3101,2.3101,2.3101,2.3052,2.2964,2.275,2.275,2.2847,2.2828,2.275,2.3023,2.3091,2.2935,2.2705,2.2637,2.2402,2.2158,2.2168,2.2207,2.2031,2.2012,2.1826,2.1572,2.1396,2.1005,2.0684,2.0615,2.0615,2.0615,2.0615,2.0615,2.0615,2.0615,2.0615,2.0615,2.0576,2.0498,2.0333,2.0059,1.9745,1.9381,1.8953,1.8531,1.8201,1.7991,1.7991,1.7991,1.7991,1.7991,1.7991,1.7991,1.7991,1.7991,1.7991,1.7991,1.7991,1.7991,1.7991,1.7991,1.7948,1.7715,1.7475,1.7107,1.6747,1.6456,1.6191,1.6122,1.6036,1.5942,1.5936,1.5964,1.5973,1.6018,2.3389,2.3789,2.373,2.3955,2.4277,2.4228,2.4228,2.4199,2.418,2.4268,2.4131,2.3877,2.3711,2.3603,2.3266,2.313,2.312,2.3159,2.3208,2.3325,2.3721,2.3935,2.3906,2.4199,2.4316,2.4268,2.3916,2.3506,2.3266,2.3179,2.3101,2.3003,2.2687,2.2413,2.2687,2.2599,2.2511,2.2872,2.3047,2.3101,2.3101,2.3101,2.3101,2.3101,2.3101,2.3101,2.3101,2.2974,2.3033,2.3042,2.3052,2.3042,2.3101,2.3101,2.3091,2.3033,2.2984,2.2838,2.2578,2.2676,2.2682,2.25,2.2441,2.2412,2.2119,2.1611,2.1133,2.0664,2.0664,2.0732,2.0781,2.0674,2.0635,2.0674,2.0742,2.0723,2.0693,2.0615,2.0498,2.0371,2.0154,1.9773,1.9429,1.8962,1.8531,1.8241,1.7991,1.7991,1.7991,1.7991,1.7991,1.7991,1.7991,1.7991,1.7991,1.7991,1.7991,1.7991,1.7991,1.7991,1.7991,1.7991,1.7991,1.7757,1.7406,1.7064,1.6767,1.6544,1.637,1.6233,1.6096,1.5968,1.584,1.5822,1.5822,2.3354,2.3809,2.4053,2.4102,2.4092,2.4307,2.4268,2.4141,2.4316,2.4424,2.4394,2.4248,2.4023,2.3799,2.3564,2.3516,2.3506,2.3506,2.3617,2.3842,2.4238,2.4529,2.457,2.4687,2.4785,2.4678,2.4385,2.4111,2.3725,2.3325,2.3101,2.3076,2.2784,2.2555,2.2731,2.2687,2.2599,2.2687,2.2872,2.3091,2.3101,2.3101,2.3101,2.3101,2.3101,2.3101,2.3101,2.3101,2.3101,2.3101,2.3101,2.3101,2.3101,2.3101,2.3091,2.3091,2.3091,2.2994,2.2877,2.3013,2.2945,2.2896,2.2789,2.2701,2.2471,2.1973,2.1533,2.1357,2.1359,2.1329,2.1319,2.1309,2.1309,2.126,2.1035,2.1163,2.1045,2.0664,2.0557,2.037,2.022,1.9933,1.9645,1.9236,1.8758,1.8241,1.804,1.7991,1.7991,1.7991,1.7991,1.7991,1.7991,1.7991,1.7991,1.7991,1.7991,1.7991,1.7991,1.7991,1.7991,1.7991,1.7991,1.7991,1.7769,1.7441,1.7085,1.6841,1.6721,1.649,1.6278,1.6165,1.6071,1.5874,1.5874,2.3428,2.3682,2.4189,2.4228,2.4014,2.4512,2.4521,2.4199,2.46,2.4766,2.4707,2.4629,2.4346,2.4023,2.3945,2.3877,2.3789,2.3896,2.4043,2.4375,2.4766,2.499,2.5029,2.5107,2.5234,2.5215,2.4785,2.4492,2.4189,2.3812,2.3461,2.3266,2.3106,2.2838,2.2652,2.2784,2.2872,2.2589,2.2916,2.3101,2.3101,2.3101,2.3101,2.3101,2.3101,2.3101,2.3101,2.3101,2.3101,2.3101,2.3101,2.3101,2.3101,2.3101,2.3101,2.3101,2.3101,2.3091,2.3042,2.3081,2.3091,2.3062,2.2945,2.2711,2.2519,2.2139,2.1885,2.1777,2.1787,2.1858,2.1885,2.1836,2.1777,2.166,2.1553,2.1699,2.1719,2.1289,2.0935,2.078,2.0626,2.0382,2.0021,1.9593,1.9021,1.8383,1.8121,1.8031,1.7991,1.7991,1.7991,1.7991,1.7991,1.7991,1.7991,1.7991,1.7991,1.7991,1.7991,1.7991,1.7991,1.7991,1.7991,1.7991,1.7991,1.7829,1.7501,1.7287,1.7026,1.6816,1.6593,1.6465,1.6291,1.6131,1.6071,2.3525,2.3208,2.4062,2.4355,2.4365,2.5245,2.5342,2.4795,2.5322,2.544,2.5391,2.5205,2.4785,2.4463,2.4346,2.4189,2.3867,2.4209,2.4219,2.4316,2.4656,2.5039,2.5195,2.5391,2.5577,2.5518,2.5215,2.4824,2.4492,2.4326,2.4014,2.376,2.3457,2.3145,2.3023,2.3052,2.3101,2.2872,2.3057,2.3101,2.3101,2.3101,2.3101,2.3101,2.3101,2.3101,2.3101,2.3101,2.3101,2.3101,2.3101,2.3101,2.3101,2.3101,2.3101,2.3101,2.3101,2.3101,2.3101,2.3101,2.3101,2.2994,2.2838,2.2672,2.2617,2.2178,2.1953,2.2031,2.2139,2.206,2.2002,2.1914,2.21,2.207,2.2041,2.2041,2.2031,2.1846,2.1537,2.1253,2.1062,2.0882,2.0589,2.0204,1.948,1.8786,1.8129,1.7991,1.7991,1.7991,1.7991,1.7991,1.7991,1.7991,1.7991,1.7991,1.7991,1.7991,1.7991,1.7991,1.7991,1.7991,1.7991,1.7991,1.7991,1.7957,1.7923,1.7684,1.7419,1.7167,1.6953,1.6833,1.6773,1.6661,1.6644,2.3257,2.3149,2.3789,2.3877,2.3656,2.456,2.4678,2.4394,2.4736,2.5088,2.5342,2.54,2.5225,2.4912,2.4814,2.4746,2.4609,2.4717,2.4668,2.4814,2.5146,2.5273,2.5352,2.5469,2.5674,2.5645,2.5518,2.5439,2.5206,2.4766,2.4619,2.4326,2.3877,2.3633,2.3506,2.3266,2.314,2.311,2.3101,2.3101,2.3101,2.3101,2.3101,2.3101,2.3101,2.3101,2.3101,2.3101,2.3101,2.3101,2.3101,2.3101,2.3101,2.3101,2.3101,2.3101,2.3101,2.3101,2.3101,2.3101,2.3101,2.3081,2.2955,2.2838,2.2808,2.2705,2.2666,2.2666,2.2598,2.2539,2.2646,2.2666,2.2705,2.2598,2.251,2.2441,2.2363,2.2217,2.2116,2.1913,2.172,2.154,2.1199,2.0843,2.0053,1.9235,1.8562,1.7991,1.7991,1.7991,1.7991,1.7991,1.7991,1.7991,1.7991,1.7991,1.7991,1.7991,1.7991,1.7991,1.7991,1.7991,1.7991,1.7991,1.7991,1.7974,1.7974,1.7983,1.7777,1.7466,1.7295,1.7248,1.7175,1.7158,1.715,2.3101,2.313,2.3467,2.3428,2.3227,2.4007,2.418,2.3906,2.4258,2.4668,2.5145,2.5508,2.5586,2.5332,2.5264,2.5184,2.5098,2.5156,2.5146,2.5244,2.5381,2.5498,2.5478,2.5537,2.5684,2.5684,2.5664,2.5615,2.5371,2.5,2.4922,2.4795,2.4502,2.4209,2.3877,2.3574,2.333,2.3276,2.314,2.3101,2.3101,2.3101,2.3101,2.3101,2.3101,2.3101,2.3101,2.3101,2.3101,2.3101,2.3101,2.3101,2.3101,2.3101,2.3101,2.3101,2.3101,2.3101,2.3101,2.3101,2.3101,2.3091,2.3091,2.3062,2.3101,2.3101,2.2974,2.3013,2.3042,2.3101,2.3101,2.3003,2.2964,2.2838,2.2779,2.2721,2.273,2.2643,2.2656,2.2551,2.2324,2.2005,2.158,2.1092,2.0006,1.9206,1.849,1.8025,1.7991,1.7991,1.7991,1.7991,1.7991,1.7991,1.7991,1.7991,1.7991,1.7991,1.7991,1.7991,1.7991,1.7991,1.7991,1.7991,1.7991,1.7991,1.7991,1.7991,1.7912,1.7715,1.762,1.7552,1.7586,1.7569,1.7518,2.3101,2.3101,2.312,2.312,2.3179,2.4033,2.4131,2.3799,2.418,2.4609,2.5077,2.5469,2.5654,2.5596,2.5557,2.5449,2.5293,2.5488,2.5459,2.5254,2.5518,2.5625,2.5615,2.5625,2.5684,2.5684,2.5664,2.5547,2.5215,2.5283,2.5283,2.5205,2.499,2.4717,2.4394,2.3975,2.3779,2.3721,2.3379,2.314,2.3169,2.3149,2.3101,2.3101,2.3101,2.3101,2.3101,2.3101,2.3101,2.3101,2.3101,2.3101,2.3101,2.3101,2.3101,2.3101,2.3101,2.3101,2.3101,2.3101,2.3101,2.3101,2.3101,2.3101,2.3101,2.3101,2.3101,2.3101,2.3101,2.3101,2.3101,2.3101,2.3101,2.3071,2.3003,2.2974,2.2964,2.2964,2.2896,2.29,2.2625,2.2322,2.1864,2.1238,2.0022,1.9106,1.8372,1.8102,1.8145,1.8228,1.8305,1.8186,1.8194,1.8051,1.8051,1.8008,1.7991,1.7991,1.7991,1.7991,1.7991,1.7991,1.7991,1.8,1.7991,1.7991,1.7991,1.7991,1.7929,1.786,1.7929,1.792,1.7914,1.7889,1.7777,2.3101,2.3101,2.3101,2.3101,2.314,2.3383,2.3477,2.3457,2.3809,2.4238,2.4668,2.5098,2.5488,2.5596,2.5674,2.5586,2.5528,2.5518,2.5498,2.5185,2.5537,2.5459,2.5478,2.5615,2.5674,2.5684,2.5664,2.5635,2.5547,2.5508,2.5498,2.5449,2.5391,2.5088,2.4492,2.4053,2.3877,2.4014,2.3569,2.3198,2.3486,2.3266,2.3101,2.3101,2.3101,2.3101,2.3101,2.3101,2.3101,2.3101,2.3101,2.3101,2.3101,2.3101,2.3101,2.3101,2.3101,2.3101,2.3101,2.3101,2.3101,2.3101,2.3101,2.3101,2.3101,2.3101,2.3101,2.3101,2.3101,2.3101,2.3101,2.3101,2.3101,2.3101,2.3052,2.3062,2.3062,2.3062,2.3033,2.3023,2.2872,2.2353,2.1871,2.1325,2.0254,1.9635,1.8999,1.8776,1.8759,1.8776,1.8811,1.8554,1.8417,1.8254,1.8151,1.816,1.8042,1.7991,1.7991,1.7991,1.7991,1.8059,1.8042,1.8076,1.8034,1.7991,1.7991,1.7991,1.7991,1.7983,1.7991,1.7991,1.7965,1.7957,1.794,2.3101,2.3101,2.3101,2.3101,2.3101,2.3101,2.3101,2.3179,2.3594,2.3955,2.4277,2.4795,2.5205,2.5478,2.5615,2.5684,2.5684,2.5674,2.5635,2.5342,2.5576,2.5566,2.5527,2.5557,2.5654,2.5684,2.5684,2.5664,2.5684,2.5449,2.5478,2.5654,2.5674,2.543,2.4912,2.46,2.4394,2.4394,2.3955,2.3506,2.3564,2.3418,2.3101,2.3101,2.3101,2.3101,2.3101,2.3101,2.3101,2.3101,2.3101,2.3101,2.3101,2.3101,2.3101,2.3101,2.3101,2.3101,2.3101,2.3101,2.3101,2.3101,2.3101,2.3101,2.3101,2.3101,2.3101,2.3101,2.3101,2.3101,2.3101,2.3101,2.3101,2.3101,2.3101,2.3101,2.3101,2.3101,2.3101,2.3101,2.2838,2.2299,2.1758,2.1176,2.0457,2.0086,1.971,1.9504,1.9281,1.9239,1.9187,1.8956,1.8742,1.8605,1.8451,1.8323,1.822,1.8017,1.8076,1.8228,1.8245,1.8331,1.8263,1.8145,1.8102,1.8059,1.8008,1.8,1.8059,1.8051,1.7991,1.7991,1.7991,1.8074,1.8149,2.3101,2.3101,2.3101,2.3101,2.3101,2.3101,2.3101,2.313,2.3564,2.3769,2.3867,2.4687,2.5106,2.5176,2.5537,2.5674,2.5684,2.5684,2.5654,2.5635,2.5654,2.5625,2.5625,2.5654,2.5684,2.5684,2.5684,2.5684,2.5684,2.5596,2.5664,2.5674,2.5684,2.5557,2.541,2.5205,2.5,2.4736,2.4043,2.3701,2.3662,2.3369,2.314,2.3101,2.3101,2.3101,2.3101,2.3101,2.3101,2.3101,2.3101,2.3101,2.3101,2.3101,2.3101,2.3101,2.3101,2.311,2.3198,2.3218,2.3286,2.3354,2.3286,2.3188,2.3101,2.3101,2.3101,2.3101,2.3101,2.3101,2.3101,2.3101,2.3101,2.3101,2.3101,2.3101,2.3101,2.3101,2.3101,2.2969,2.2706,2.222,2.1668,2.1078,2.0784,2.0462,2.0126,1.9847,1.9641,1.9556,1.9444,1.9299,1.9119,1.899,1.8828,1.8648,1.8562,1.8477,1.8537,1.8614,1.8614,1.8614,1.8614,1.8528,1.8297,1.8196,1.8382,1.8299,1.8196,1.8179,1.834,1.8237,1.8297,1.8385,1.8443,2.3101,2.3101,2.3101,2.3101,2.3101,2.3101,2.3101,2.312,2.3247,2.3477,2.3873,2.4355,2.4727,2.5145,2.5537,2.5615,2.5674,2.5684,2.5684,2.5684,2.5684,2.5684,2.5684,2.5684,2.5684,2.5684,2.5684,2.5684,2.5684,2.5684,2.5684,2.5684,2.5684,2.5684,2.5635,2.5586,2.5332,2.4902,2.4043,2.3857,2.373,2.3477,2.3266,2.3208,2.3218,2.3218,2.3218,2.3198,2.3188,2.3159,2.313,2.311,2.3101,2.3101,2.3101,2.3101,2.313,2.3252,2.3525,2.3603,2.3682,2.3887,2.3965,2.3578,2.3344,2.3179,2.3198,2.3266,2.3218,2.3208,2.3179,2.3149,2.312,2.3101,2.3101,2.3101,2.3101,2.3101,2.3101,2.3013,2.2706,2.2397,2.1802,2.1382,2.1069,2.0808,2.0548,2.0266,2.0028,1.9891,1.9735,1.9607,1.9521,1.941,1.9196,1.9007,1.8965,1.8922,1.8965,1.8999,1.9007,1.9007,1.9007,1.8896,1.8691,1.8742,1.8896,1.8785,1.8605,1.8785,1.8888,1.8699,1.8595,1.8754,1.8929,2.3101,2.3101,2.3101,2.3101,2.3101,2.3101,2.3101,2.3101,2.3101,2.3266,2.3574,2.3984,2.4316,2.456,2.4961,2.5206,2.5439,2.5439,2.5508,2.5684,2.5684,2.5684,2.5684,2.5684,2.5684,2.5684,2.5684,2.5684,2.5684,2.5684,2.5684,2.5684,2.5684,2.5684,2.5615,2.5508,2.5303,2.4922,2.4473,2.418,2.3984,2.3838,2.3656,2.3549,2.3559,2.3559,2.3559,2.3559,2.3578,2.3598,2.3598,2.3608,2.3617,2.3617,2.3617,2.3656,2.3721,2.3828,2.4004,2.4033,2.4189,2.4346,2.4443,2.416,2.3881,2.3725,2.3715,2.3715,2.3564,2.3398,2.333,2.3262,2.3159,2.3101,2.3101,2.3101,2.3101,2.3101,2.3091,2.3047,2.2872,2.2608,2.2211,2.1767,2.141,2.123,2.1006,2.0683,2.0442,2.0273,2.015,1.9975,1.9915,1.9829,1.9598,1.9376,1.9299,1.9273,1.9324,1.9358,1.9384,1.9367,1.9341,1.9247,1.9119,1.917,1.9204,1.9153,1.9059,1.9264,1.9342,1.9196,1.9101,1.917,1.9426,2.3101,2.3101,2.3101,2.3101,2.3101,2.3101,2.3101,2.3101,2.3101,2.3101,2.3252,2.3613,2.3857,2.4072,2.4424,2.4756,2.499,2.5117,2.5332,2.5635,2.5684,2.5684,2.5684,2.5684,2.5684,2.5684,2.5684,2.5684,2.5684,2.5684,2.5684,2.5684,2.5684,2.5684,2.5645,2.5469,2.5332,2.5225,2.5049,2.4893,2.4717,2.458,2.4424,2.4355,2.4336,2.4336,2.4355,2.4385,2.4424,2.4404,2.4385,2.4326,2.4307,2.4287,2.4307,2.4307,2.4219,2.4336,2.4414,2.4463,2.4531,2.458,2.4475,2.4563,2.4524,2.4183,2.4085,2.4102,2.3926,2.3848,2.3789,2.3691,2.3569,2.3539,2.3539,2.3452,2.3335,2.3247,2.3101,2.3047,2.3003,2.2784,2.2608,2.2167,2.19,2.1687,2.1419,2.1087,2.0907,2.069,2.0439,2.026,2.0155,2.0061,1.9941,1.9735,1.9624,1.9607,1.9675,1.9735,1.9769,1.9727,1.9658,1.9615,1.9581,1.9496,1.9462,1.9583,1.967,1.9539,1.9634,1.9626,1.9634,1.9738,1.9887,2.3101,2.3101,2.3101,2.3101,2.3101,2.3101,2.3101,2.3101,2.3101,2.3101,2.3179,2.3564,2.3769,2.3799,2.4131,2.4424,2.457,2.4842,2.5135,2.5352,2.5537,2.5635,2.5684,2.5684,2.5684,2.5684,2.5684,2.5684,2.5684,2.5684,2.5684,2.5684,2.5684,2.5684,2.5684,2.5518,2.5508,2.5488,2.5478,2.5195,2.4785,2.46,2.4424,2.4453,2.4473,2.4521,2.4512,2.4482,2.4453,2.4414,2.4414,2.4404,2.4414,2.4443,2.4434,2.4424,2.4531,2.4687,2.4834,2.4932,2.5019,2.5264,2.5304,2.5352,2.5187,2.468,2.4407,2.4434,2.4365,2.4307,2.4228,2.4131,2.4004,2.4004,2.4023,2.3828,2.3643,2.3393,2.3169,2.313,2.313,2.3042,2.2876,2.2662,2.2397,2.2087,2.1776,2.1499,2.1365,2.1141,2.0645,2.0475,2.0311,2.0198,2.0121,2.0069,1.9924,1.9941,2.0018,2.0086,2.0129,2.0052,1.9966,2.0061,2.0061,2.0014,2.0095,2.0447,2.042,2.0191,2.0254,2.0395,2.0385,2.0447,2.0535,2.3101,2.3101,2.3101,2.3101,2.3101,2.3101,2.3101,2.3101,2.3101,2.3101,2.312,2.3344,2.3506,2.3506,2.376,2.4033,2.4141,2.4365,2.4793,2.5116,2.5273,2.5537,2.5625,2.5654,2.5684,2.5684,2.5684,2.5684,2.5684,2.5684,2.5684,2.5684,2.5684,2.5684,2.5684,2.5684,2.5684,2.5674,2.5684,2.5382,2.4951,2.4961,2.5,2.4953,2.4943,2.4923,2.4953,2.501,2.501,2.5019,2.5059,2.5068,2.5088,2.504,2.5001,2.5039,2.5078,2.5107,2.5273,2.5381,2.5449,2.5596,2.5684,2.5567,2.5577,2.5138,2.5109,2.5107,2.4814,2.4717,2.46,2.4502,2.4131,2.3984,2.4102,2.4092,2.3965,2.3838,2.3633,2.3506,2.3506,2.3461,2.3304,2.3037,2.2807,2.2662,2.2309,2.2036,2.1848,2.1509,2.1041,2.06,2.0419,2.0337,2.0232,2.0215,2.0198,2.0257,2.0292,2.0257,2.0215,2.0249,2.0275,2.0303,2.0385,2.0584,2.0782,2.1051,2.1186,2.1034,2.1105,2.1248,2.1177,2.1051,2.1141,2.3101,2.3101,2.3101,2.3101,2.3101,2.3101,2.3101,2.3101,2.3101,2.3101,2.3101,2.311,2.3101,2.3101,2.311,2.3418,2.3672,2.3935,2.4355,2.4715,2.4959,2.5195,2.5439,2.5605,2.5635,2.5645,2.5684,2.5684,2.5684,2.5684,2.5684,2.5684,2.5684,2.5684,2.5684,2.5684,2.5684,2.5684,2.5684,2.5684,2.5654,2.5684,2.5596,2.5625,2.5684,2.5684,2.5684,2.5674,2.5664,2.5625,2.5538,2.5518,2.5508,2.5479,2.5518,2.5499,2.5469,2.5528,2.5615,2.5596,2.5635,2.5684,2.5684,2.5684,2.5684,2.5664,2.5635,2.5547,2.5254,2.5117,2.5,2.4863,2.4463,2.4209,2.4365,2.4424,2.4336,2.4228,2.4043,2.3877,2.3867,2.3867,2.3721,2.3432,2.3281,2.3159,2.2953,2.2713,2.2387,2.1896,2.1419,2.0905,2.051,2.0428,2.0337,2.0292,2.0292,2.0292,2.0292,2.0292,2.0292,2.0292,2.0337,2.0374,2.051,2.0826,2.1141,2.141,2.1553,2.1642,2.1731,2.1767,2.1731,2.1642,2.1687,2.3101,2.3101,2.3101,2.3101,2.3101,2.3101,2.3101,2.3101,2.3101,2.3101,2.3101,2.3101,2.3101,2.3101,2.3101,2.3218,2.3325,2.3594,2.376,2.4023,2.4502,2.4844,2.5176,2.5478,2.5488,2.5605,2.5684,2.5684,2.5684,2.5684,2.5684,2.5684,2.5684,2.5684,2.5684,2.5684,2.5684,2.5684,2.5684,2.5684,2.5684,2.5684,2.5684,2.5684,2.5684,2.5684,2.5684,2.5684,2.5684,2.5684,2.5684,2.5684,2.5684,2.5684,2.5684,2.5684,2.5684,2.5684,2.5684,2.5684,2.5684,2.5684,2.5684,2.5684,2.5684,2.5684,2.5664,2.5664,2.5527,2.5527,2.5449,2.5449,2.5148,2.5078,2.5117,2.4941,2.4795,2.4609,2.4414,2.4336,2.4307,2.4307,2.4268,2.4111,2.4043,2.3903,2.3793,2.3518,2.2898,2.2335,2.1762,2.121,2.0661,2.0428,2.0292,2.0292,2.0292,2.0292,2.0292,2.0292,2.0292,2.0292,2.0329,2.0329,2.0645,2.0997,2.132,2.1731,2.19,2.2043,2.2176,2.222,2.2185,2.2185,2.2176]}]]